[[{"header":{"parameterUnit":"m.s-1","parameterCategory":1,"la1":30.6,"la2":29.2853,"lo1":-89.7004,"lo2":-87.6739,"dy":0.0162,"dx":0.0183,"nx":112,"ny":82,"refTime":"2025-07-05T12:00:00:Z","depth":0,"parameterNumber":2,"parameterNumberName":"U-component_of_WINDS"},"data":[0.0,0.0,0.0,0.0,0.0,0.0,0.0,0.0,0.0,0.0,0.0,0.0,0.0,0.0,0.0,0.0,0.0,0.0,0.0,0.0,0.0,0.0,0.0,0.0,0.0,0.0,0.0,0.0,0.0,0.0,0.0,0.0,0.0,0.0,0.0,0.0,0.0,0.0,0.0,0.0,0.0,0.0,0.0,0.0,0.0,0.0,0.0,0.0,0.0,0.0,0.0,0.0,0.0,0.0,0.0,0.0,0.0,0.0,0.0,0.0,0.0,0.0,0.0,0.0,0.0,0.0,0.0,0.0,0.0,0.0,0.0,0.0,0.0,0.0,0.0,0.0,0.0,0.0,0.0,0.0,0.0,0.0,0.0,0.0,0.0,0.0,0.0,0.0,0.0,0.0,0.6528,0.7991,0.8476,0.8717,0.8756,0.8957,0.9024,0.8936,0.0,0.0,0.0,0.0,0.0,0.0,0.0,0.0,0.0,0.0,0.0,0.0,0.0,0.0,0.0,0.0,0.0,0.0,0.0,0.0,0.0,0.0,0.0,0.0,0.0,0.0,0.0,0.0,0.0,0.0,0.0,0.0,0.0,0.0,0.0,0.0,0.0,0.0,0.0,0.0,0.0,0.0,0.0,0.0,0.0,0.0,0.0,0.0,0.0,0.0,0.0,0.0,0.0,0.0,0.0,0.0,0.0,0.0,0.0,0.0,0.0,0.0,0.0,0.0,0.0,0.0,0.0,0.0,0.0,0.0,0.0,0.0,0.0,0.0,0.0,0.0,0.0,0.0,0.0,0.0,0.0,0.0,0.0,0.0,0.0,0.0,0.0,0.0,0.0,0.0,0.0,0.0,0.0,0.0,0.0,0.0,0.0,0.0,0.0,0.0,0.0,0.0,0.0,0.0,0.7147,0.8235,0.8567,0.8794,0.9013,0.8979,0.8968,0.9066,0.0,0.0,0.0,0.0,0.0,0.0,0.0,0.0,0.0,0.0,0.0,0.0,0.0,0.0,0.0,0.0,0.0,0.0,0.0,0.0,0.0,0.0,0.0,0.0,0.0,0.0,0.0,0.0,0.0,0.0,0.0,0.0,0.0,0.0,0.0,0.0,0.0,0.0,0.0,0.0,0.0,0.0,0.0,0.0,0.0,0.0,0.0,0.0,0.0,0.0,0.0,0.0,0.0,0.0,0.0,0.0,0.0,0.0,0.0,0.0,0.0,0.0,0.0,0.0,0.0,0.0,0.0,0.0,0.0,0.0,0.0,0.0,0.0,0.0,0.0,0.0,0.0,0.0,0.0,0.0,0.0,0.0,0.0,0.0,0.0,0.0,0.0,0.0,0.0,0.0,0.0,0.0,0.0,0.0,0.0,0.0,0.0,0.0,0.0,0.0,0.0,0.0,0.0,0.7236,0.7617,0.8079,0.873,0.9017,0.8748,0.9205,0.9355,0.9016,0.8431,0.0,0.0,0.0,0.0,0.0,0.0,0.0,0.0,0.0,0.0,0.0,0.0,0.0,0.0,0.0,0.0,0.0,0.0,0.0,0.0,0.0,0.0,0.0,0.0,0.0,0.0,0.0,0.0,0.0,0.0,0.0,0.0,0.0,0.0,0.0,0.0,0.0,0.0,0.0,0.0,0.0,0.0,0.0,0.0,0.0,0.0,0.0,0.0,0.0,0.0,0.0,0.0,0.0,0.0,0.0,0.0,0.0,0.0,0.0,0.0,0.0,0.0,0.0,0.0,0.0,0.0,0.0,0.0,0.0,0.0,0.0,0.0,0.0,0.0,0.0,0.0,0.0,0.0,0.0,0.0,0.0,0.0,0.0,0.0,0.0,0.0,0.0,0.0,0.0,0.0,0.0,0.0,0.0,0.0,0.0,0.0,0.0,0.0,0.0,0.0,0.0,0.0,0.7899,0.7974,0.8168,0.892,0.9201,0.8727,0.9432,0.9614,0.8942,0.7894,0.0,0.0,0.0,0.0,0.0,0.0,0.0,0.0,0.0,0.0,0.0,0.0,0.0,0.0,0.0,0.0,0.0,0.0,0.0,0.0,0.0,0.0,0.0,0.0,0.0,0.0,0.0,0.0,0.0,0.0,0.0,0.0,0.0,0.0,0.0,0.0,0.0,0.0,0.0,0.0,0.0,0.0,0.0,0.0,0.0,0.0,0.0,0.0,0.0,0.0,0.0,0.0,0.0,0.0,0.0,0.0,0.0,0.0,0.0,0.0,0.0,0.0,0.0,0.0,0.0,0.0,0.0,0.0,0.0,0.0,0.0,0.0,0.0,0.0,0.0,0.0,0.0,0.0,0.0,0.0,0.0,0.0,0.0,0.0,0.0,0.0,0.0,0.0,0.0,0.0,0.0,0.0,0.0,0.0,0.0,0.0,0.0,0.0,0.0,0.0,0.0,0.0,0.7899,0.8191,0.8927,0.9081,0.924,0.9498,0.9593,0.9415,0.8931,0.7486,0.0,0.0,0.0,0.0,0.0,0.0,0.0,0.0,0.0,0.0,0.0,0.0,0.0,0.0,0.0,0.0,0.0,0.0,0.0,0.0,0.0,0.0,0.0,0.0,0.0,0.0,0.0,0.0,0.0,0.0,0.0,0.0,0.0,0.0,0.0,0.0,0.0,0.0,0.0,0.0,0.0,0.0,0.0,0.0,0.0,0.0,0.0,0.0,0.0,0.0,0.0,0.0,0.0,0.0,0.0,0.0,0.0,0.0,0.0,0.0,0.0,0.0,0.0,0.0,0.0,0.0,0.0,0.0,0.0,0.0,0.0,0.0,0.0,0.0,0.0,0.0,0.0,0.0,0.0,0.0,0.0,0.0,0.0,0.0,0.0,0.0,0.0,0.0,0.0,0.0,0.0,0.0,0.0,0.0,0.0,0.0,0.0,0.0,0.0,0.0,0.0,0.0,0.7899,0.8176,0.8902,0.9609,1.0002,0.9915,1.0305,1.0189,0.9391,0.0,0.0,0.0,0.0,0.0,0.0,0.0,0.0,0.0,0.0,0.0,0.0,0.0,0.0,0.0,0.0,0.0,0.0,0.0,0.0,0.0,0.0,0.0,0.0,0.0,0.0,0.0,0.0,0.0,0.0,0.0,0.0,0.0,0.0,0.0,0.0,0.0,0.0,0.0,0.0,0.0,0.0,0.0,0.0,0.0,0.0,0.0,0.0,0.0,0.0,0.0,0.0,0.0,0.0,0.0,0.0,0.0,0.0,0.0,0.0,0.0,0.0,0.0,0.0,0.0,0.0,0.0,0.0,0.0,0.0,0.0,0.0,0.0,0.0,0.0,0.0,0.0,0.0,0.0,0.0,0.0,0.0,0.0,0.0,0.0,0.0,0.0,0.0,0.0,0.0,0.0,0.0,0.0,0.0,0.0,0.0,0.0,0.0,0.0,0.0,0.0,0.0,0.7727,0.8087,0.8469,0.9136,1.007,1.0621,1.055,1.0759,1.0557,0.9779,0.0,0.0,0.0,0.0,0.0,0.0,0.0,0.0,0.0,0.0,0.0,0.0,0.0,0.0,0.0,0.0,0.0,0.0,0.0,0.0,0.0,0.0,0.0,0.0,0.0,0.0,0.0,0.0,0.0,0.0,0.0,0.0,0.0,0.0,0.0,0.0,0.0,0.0,0.0,0.0,0.0,0.0,0.0,0.0,0.0,0.0,0.0,0.0,0.0,0.0,0.0,0.0,0.0,0.0,0.0,0.0,0.0,0.0,0.0,0.0,0.0,0.0,0.0,0.0,0.0,0.0,0.0,0.0,0.0,0.0,0.0,0.0,0.0,0.0,0.0,0.0,0.0,0.0,0.0,0.0,0.0,0.0,0.0,0.0,0.0,0.0,0.0,0.0,0.0,0.0,0.0,0.0,0.0,0.0,0.0,0.0,0.0,0.0,0.0,0.0,0.0,0.0,0.7727,0.8492,0.9168,0.9822,1.0451,1.0986,1.1468,1.0835,1.0292,0.0,0.0,0.0,0.0,0.0,0.0,0.0,0.0,0.0,0.0,0.0,0.0,0.0,0.0,0.0,0.0,0.0,0.0,0.0,0.0,0.0,0.0,0.0,0.0,0.0,0.0,0.0,0.0,0.0,0.0,0.0,0.0,0.0,0.0,0.0,0.0,0.0,0.0,0.0,0.0,0.0,0.0,0.0,0.0,0.0,0.0,0.0,0.0,0.0,0.0,0.0,0.0,0.0,0.0,0.0,0.0,0.0,0.0,0.0,0.0,0.0,0.0,0.0,0.0,0.0,0.0,0.0,0.0,0.0,0.0,0.0,0.0,0.0,0.0,0.0,0.0,0.0,0.0,0.0,0.0,0.0,0.0,0.0,0.0,0.0,0.0,0.0,0.0,0.0,0.0,0.0,0.0,0.0,0.0,0.0,0.0,0.0,0.0,0.0,0.0,0.0,0.0,0.0,0.7727,0.8492,0.9168,0.9822,1.0617,1.1251,1.1675,1.0949,1.0367,1.0081,0.0,0.0,0.0,0.0,0.0,0.0,0.0,0.0,0.0,0.0,0.0,0.0,0.0,0.0,0.0,0.0,0.0,0.0,0.0,0.0,0.0,0.0,0.0,0.0,0.0,0.0,0.0,0.0,0.0,0.0,0.0,0.0,0.0,0.0,0.0,0.0,0.0,0.0,0.0,0.0,0.0,0.0,0.0,0.0,0.0,0.0,0.0,0.0,0.0,0.0,0.0,0.0,0.0,0.0,0.0,0.0,0.0,0.0,0.0,0.0,0.0,0.0,0.0,0.0,0.0,0.0,0.0,0.0,0.0,0.0,0.0,0.0,0.0,0.0,0.0,0.0,0.0,0.0,0.0,0.0,0.0,0.0,0.0,0.0,0.0,0.0,0.0,0.0,0.0,0.0,0.0,0.0,0.0,0.0,0.0,0.0,0.0,0.0,0.0,0.0,0.0,0.0,0.8087,0.8794,0.9438,1.017,1.0967,1.1574,1.193,1.0958,1.0341,1.0381,0.0,0.0,0.0,0.0,0.0,0.0,0.0,0.0,0.0,0.0,0.0,0.0,0.0,0.0,0.0,0.0,0.0,0.0,0.0,0.0,0.0,0.0,0.0,0.0,0.0,0.0,0.0,0.0,0.0,0.0,0.0,0.0,0.0,0.0,0.0,0.0,0.0,0.0,0.0,0.0,0.0,0.0,0.0,0.0,0.0,0.0,0.0,0.0,0.0,0.0,0.0,0.0,0.0,0.0,0.0,0.0,0.0,0.0,0.0,0.0,0.0,0.0,0.0,0.0,0.0,0.0,0.0,0.0,0.0,0.0,0.0,0.0,0.0,0.0,0.0,0.0,0.0,0.0,0.0,0.0,0.0,0.0,0.0,0.0,0.0,0.0,0.0,0.0,0.0,0.0,0.0,0.0,0.0,0.0,0.0,0.0,0.0,0.0,0.0,0.0,0.0,0.0,0.8618,0.9269,0.9852,1.0711,1.1408,1.1905,1.2136,1.0951,1.0327,1.0694,0.0,0.0,0.0,0.0,0.0,0.0,0.0,0.0,0.0,0.0,0.0,0.0,0.0,0.0,0.0,0.0,0.0,0.0,0.0,0.0,0.0,0.0,0.0,0.0,0.0,0.0,0.0,0.0,0.0,0.0,0.0,0.0,0.0,0.0,0.0,0.0,0.0,0.0,0.0,0.0,0.0,0.0,0.0,0.0,0.0,0.0,0.0,0.0,0.0,0.0,0.0,0.0,0.0,0.0,0.0,0.0,0.0,0.0,0.0,0.0,0.9899,0.9241,0.0,0.0,0.0,0.0,0.0,0.0,0.0,0.0,0.0,0.0,0.0,0.0,0.0,0.0,0.0,0.0,0.0,0.0,0.0,0.0,0.0,0.0,0.0,0.0,0.0,0.0,0.0,0.0,0.0,0.0,0.0,0.0,0.0,0.0,0.0,0.0,0.0,0.0,0.0,0.0,0.871,0.9439,1.0066,1.073,1.1408,1.1819,1.1883,1.1125,1.0493,1.0126,0.8681,0.0,0.0,0.0,0.0,0.0,0.0,0.0,0.0,0.0,0.0,0.0,0.0,0.0,0.0,0.0,0.0,0.0,0.0,0.0,0.0,0.0,0.0,0.0,0.0,0.0,0.0,0.0,0.0,0.0,0.0,0.0,0.0,0.0,0.0,0.0,0.0,0.0,0.0,0.0,0.0,0.0,0.0,0.0,0.0,0.0,0.0,0.0,0.0,0.0,0.0,0.0,0.0,0.0,0.0,0.0,0.0,0.0,0.0,0.0,1.1533,1.0966,0.0,0.0,0.0,0.0,0.0,0.0,0.0,0.0,0.0,0.0,0.0,0.0,0.0,0.0,0.0,0.0,0.0,0.0,0.0,0.0,0.0,0.0,0.0,0.0,0.0,0.0,0.0,0.0,0.0,0.0,0.0,0.0,0.0,0.0,0.0,0.0,0.0,0.0,0.0,0.0,0.9187,0.9854,1.0481,1.1201,1.1595,1.1797,1.1797,1.1199,1.0722,1.0485,0.919,0.0,0.0,0.0,0.0,0.0,0.0,0.0,0.0,0.0,0.0,0.0,0.0,0.0,0.0,0.0,0.0,0.0,0.0,0.0,0.0,0.0,0.0,0.0,0.0,0.0,0.0,0.0,0.0,0.0,0.0,0.0,0.0,0.0,0.0,0.0,0.0,0.0,0.0,0.0,0.0,0.0,0.0,0.0,0.0,0.0,0.0,0.0,0.0,0.0,0.0,0.0,0.0,0.0,1.326,1.3664,1.42,1.42,1.4493,1.4933,1.3448,1.3145,1.3638,1.2354,0.0,0.0,0.0,0.0,0.0,0.0,0.0,0.0,0.0,0.0,0.0,0.0,0.0,0.0,0.0,0.0,0.0,0.0,0.0,0.0,0.0,0.0,1.3279,1.315,1.3629,1.3635,1.1925,0.0,0.0,0.0,0.0,0.0,0.0,0.0,0.0,0.0,0.0,0.0,0.9864,1.036,1.0872,1.1709,1.1797,1.1797,1.1797,1.1304,1.0997,1.1044,0.9907,0.8986,0.0,0.0,0.0,0.0,0.0,0.0,0.0,0.0,0.0,0.0,0.0,0.0,0.0,0.0,0.0,0.0,0.0,0.0,0.0,0.0,0.0,0.0,0.0,0.0,0.0,0.0,0.0,0.0,0.0,0.0,0.0,0.0,0.8583,0.921,0.0,0.0,0.0,0.0,0.0,0.0,0.0,0.0,0.0,0.0,0.0,0.0,0.0,1.1762,1.184,1.3211,1.3936,1.4025,1.5132,1.571,1.5792,1.5792,1.5834,1.5937,1.5689,0.0,1.4573,1.3795,0.0,0.0,0.0,0.0,0.0,0.0,0.0,0.0,0.0,0.0,0.0,0.0,0.0,0.0,0.0,0.0,0.0,0.0,0.0,0.0,0.0,0.0,1.4745,1.4171,1.4286,1.4452,1.4174,1.2946,1.1678,1.0903,1.0347,0.9519,0.0,0.0,0.0,0.0,0.0,0.0,1.0506,1.0725,1.1031,1.173,1.1797,1.1797,1.1797,1.1723,1.1423,1.0867,1.066,1.0028,0.887,0.8748,0.0,0.0,0.0,0.0,0.0,0.0,0.0,0.0,0.0,0.0,0.0,0.0,0.0,0.0,0.0,0.0,0.0,0.0,0.0,0.0,0.0,0.0,0.0,0.0,0.0,0.0,0.0,0.0,0.0,0.8246,0.9318,0.9828,0.9852,0.9756,0.0,0.0,0.0,0.0,0.0,0.0,0.0,0.0,0.0,1.2569,1.3364,1.3797,1.3797,1.4779,1.5447,1.5851,1.6414,1.6876,1.7236,1.7236,1.7236,1.7236,1.7236,1.6958,1.6469,1.5438,1.4821,1.442,0.0,0.0,0.0,0.0,1.397,1.3965,1.4818,1.5015,1.4865,1.4674,0.0,0.0,0.0,0.0,0.0,0.0,0.0,1.4227,1.4527,1.5175,1.5745,1.5891,1.5733,1.5563,1.5563,1.4633,1.3539,1.2634,1.2458,1.1749,0.9523,0.9593,0.0,0.0,0.0,1.072,1.1296,1.2007,1.244,1.2358,1.2351,1.2201,1.1827,1.1797,1.167,1.1386,1.0871,1.0387,0.9987,0.907,0.8351,0.0,0.0,0.0,0.0,0.0,0.0,0.0,0.0,0.0,0.0,0.0,0.0,0.0,0.0,0.0,0.0,0.0,0.0,0.0,0.0,0.0,0.0,0.0,0.0,0.0,0.0,0.0,0.0,0.9249,1.0041,1.0322,1.0666,1.0716,0.0,0.0,0.0,0.0,0.0,0.0,1.2715,1.3277,1.3673,1.3927,1.4944,1.5476,1.5476,1.5959,1.6384,1.6711,1.6882,1.7116,1.7477,1.7619,1.7706,1.7706,1.7706,1.7726,1.769,1.6821,1.6417,1.6226,1.574,1.5246,1.4932,1.5912,1.6087,1.6022,1.7269,1.7505,1.7182,1.6706,1.6076,1.5321,1.4146,0.0,0.0,0.0,0.0,1.5681,1.615,1.6396,1.667,1.7249,1.701,1.665,1.665,1.6258,1.5499,1.4101,1.4023,1.3444,1.1181,1.1089,0.0,1.0035,1.1137,1.2112,1.2291,1.3189,1.3615,1.3099,1.3071,1.277,1.2104,1.2052,1.1977,1.1812,1.1067,1.0689,1.0805,0.9376,0.8621,0.8672,0.0,0.0,0.0,0.0,0.0,0.0,0.0,0.0,0.0,0.0,0.0,0.0,0.0,0.0,0.0,0.0,0.0,0.0,0.0,0.0,0.0,0.0,0.0,0.0,0.0,0.0,0.0,0.0,0.0,1.1077,1.2226,0.0,0.0,0.0,0.0,1.2119,1.2611,1.3459,1.4768,1.5001,1.5373,1.5932,1.6153,1.6245,1.6245,1.6389,1.6207,1.5672,1.6275,1.6244,1.5758,1.6318,1.6595,1.6595,1.6595,1.686,1.7336,1.7674,1.7739,1.7585,1.7555,1.7525,1.7503,1.757,1.7603,1.7588,1.7652,1.77,1.7767,1.8366,1.8111,1.7413,1.6726,1.6106,0.0,0.0,1.6562,1.6795,1.7421,1.7625,1.7625,1.7662,1.7647,1.7625,1.7625,1.7595,1.7004,1.5087,1.424,1.358,1.2786,0.0,1.2681,1.2613,1.2696,1.2972,1.3623,1.3765,1.3802,1.3757,1.3757,1.3481,1.2816,1.2756,1.2486,1.1842,1.1461,1.1125,1.08,0.9679,0.9015,0.888,0.8025,0.0,0.0,0.0,0.0,0.0,0.0,0.0,0.0,0.0,0.0,0.0,0.0,0.0,0.0,0.0,0.0,0.0,0.0,0.0,0.0,0.0,0.0,0.0,0.0,0.0,0.0,0.0,0.0,1.2874,1.349,0.0,1.318,1.326,1.3575,1.4104,1.4315,1.4833,1.5786,1.5519,1.5457,1.5749,1.5799,1.5648,1.5253,1.568,1.5644,1.5017,1.5638,1.5594,1.5056,1.5644,1.5688,1.5383,1.5738,1.6244,1.676,1.7304,1.7695,1.7959,1.7959,1.7959,1.7959,1.7959,1.8187,1.8483,1.8483,1.8683,1.8957,1.8762,1.8545,1.8231,1.7548,1.7473,1.7707,1.7939,1.8313,1.8695,1.8927,1.8672,1.8351,1.8351,1.7996,1.769,1.769,1.769,1.7488,1.681,1.6114,1.5188,1.3705,1.3795,1.378,1.2936,1.3535,1.4161,1.4408,1.4812,1.4909,1.4483,1.4438,1.4169,1.3503,1.3056,1.2703,1.2471,1.157,1.1065,1.1118,0.9737,0.8904,0.8773,0.7995,0.743,0.0,0.0,0.0,0.0,0.0,0.0,0.0,0.0,0.0,0.0,0.0,0.0,0.0,0.0,0.0,0.0,0.0,0.0,0.0,0.0,0.0,0.0,0.0,0.0,0.0,1.1886,1.2713,1.3658,1.404,1.4091,1.3745,1.4025,1.4474,1.4976,1.4985,1.5292,1.6001,1.5494,1.5195,1.5309,1.5281,1.5101,1.4703,1.5101,1.5005,1.4376,1.5005,1.496,1.4427,1.5005,1.5056,1.4698,1.5096,1.5487,1.5872,1.6268,1.664,1.704,1.7807,1.8099,1.8099,1.8099,1.8334,1.865,1.8848,1.9244,1.9615,1.9181,1.9039,1.8949,1.8523,1.8695,1.9039,1.9039,1.9353,1.9682,1.9682,1.9361,1.9039,1.9039,1.8702,1.8381,1.8381,1.8381,1.8321,1.8063,1.7496,1.6562,1.5039,1.5164,1.5074,1.3985,1.4577,1.5154,1.5154,1.5536,1.5634,1.5164,1.5154,1.4857,1.4199,1.3518,1.3032,1.2816,1.1606,1.1024,1.1303,0.9688,0.882,0.8826,0.8142,0.7655,0.7437,0.0,0.0,0.0,0.0,0.0,0.0,0.0,0.0,0.0,0.0,0.0,0.0,0.0,0.0,0.0,0.0,0.0,0.0,0.0,0.0,0.0,0.0,0.0,1.2031,1.2662,1.32,1.3336,1.3921,1.3892,1.2869,1.3685,1.4413,1.4666,1.4593,1.4773,1.5437,1.4982,1.4658,1.4658,1.4658,1.4658,1.4658,1.4658,1.4376,1.3774,1.4376,1.4381,1.3774,1.4376,1.4658,1.4658,1.4658,1.4658,1.4658,1.4703,1.4703,1.4915,1.7164,1.8013,1.8013,1.8052,1.8059,1.8138,1.8696,1.9207,1.9646,1.9682,1.9682,1.9682,1.9682,1.9682,1.9682,1.9682,1.9646,1.9646,1.9646,1.9646,1.9682,1.9682,1.9682,1.9682,1.9682,1.9682,1.9495,1.8859,1.8223,1.7533,1.6861,1.6741,1.6532,1.5956,1.5844,0.0,1.5836,1.5814,1.5799,1.5799,1.5799,1.5544,1.4879,1.4199,1.3518,1.2876,1.162,1.1001,1.128,0.9581,0.8765,0.9081,0.8456,0.8057,0.7929,0.0,0.0,0.0,0.0,0.0,0.0,0.0,0.0,0.0,0.0,0.0,0.0,0.0,0.0,0.0,0.0,0.0,0.0,0.0,0.0,0.0,1.2046,1.2789,1.2789,1.3505,1.4076,1.4155,1.4413,1.4475,1.4181,1.4408,1.4628,1.4687,1.4659,1.4716,1.4892,1.437,1.4055,1.4055,1.4055,1.3831,1.3387,1.3831,1.3737,1.3147,1.3784,1.3737,1.3152,1.3784,1.3831,1.343,1.3873,1.4055,1.4097,1.4514,1.4703,1.4789,1.5872,1.6305,1.6348,1.6769,1.7188,1.7585,1.8138,1.8419,1.8612,1.9006,1.9125,1.9207,1.9566,1.9442,1.9125,1.9125,1.8848,1.8535,1.8535,1.881,1.9125,1.9125,1.9125,1.9244,1.9603,1.9406,1.9192,1.9371,1.9271,1.8785,1.7615,1.7428,1.7361,1.7214,1.6749,1.6443,1.6443,1.6061,1.5799,1.5799,1.5799,1.5731,1.5544,1.4229,1.3454,1.3516,1.1647,1.0678,1.1001,0.9839,0.9048,0.8738,0.8565,0.8438,0.0,0.0,0.0,0.0,0.0,0.0,0.0,0.0,0.0,0.0,0.0,0.0,0.0,0.0,0.0,0.0,0.0,0.0,0.0,0.0,0.0,0.0,1.3044,1.3471,1.295,1.3578,1.4108,1.4204,1.4063,1.3931,1.3931,1.3931,1.3931,1.3931,1.3931,1.3931,1.3931,1.3605,1.3415,1.3415,1.3415,1.3238,1.2881,1.3238,1.3238,1.2934,1.3424,1.351,1.314,1.351,1.3461,1.3184,1.3319,1.3415,1.3467,1.3789,1.3931,1.4019,0.0,0.0,0.0,0.0,1.6108,1.6627,1.717,1.7545,1.7826,1.8366,1.8574,1.8612,1.893,1.881,1.8574,1.8574,1.8334,1.8099,1.8099,1.8334,1.8574,1.8574,1.8574,1.865,1.8968,1.8968,1.9006,1.9288,1.9566,0.0,1.868,1.8313,1.8003,1.7727,1.7369,1.7025,1.6749,1.6376,1.6076,1.5836,1.5799,1.5799,1.5799,1.4458,0.0,0.0,0.0,1.0555,1.015,0.9595,0.0,0.0,0.0,0.0,0.0,0.901,0.0,0.0,0.7875,0.8342,0.0,0.0,0.0,0.0,0.0,0.0,0.0,0.0,0.0,0.0,0.0,0.0,0.0,0.0,0.0,0.0,1.3796,1.383,1.2777,1.2999,1.3324,1.347,1.2982,1.2671,1.2671,1.2671,1.2671,1.2774,1.2774,1.2822,1.2881,1.2881,0.0,0.0,0.0,1.293,1.2881,1.2925,1.2876,1.2774,1.32,1.3348,1.324,1.3288,1.3307,1.3288,1.2871,1.2694,1.2739,1.269,1.2671,1.2808,1.4102,1.4658,1.4703,1.4703,1.4982,1.5472,1.6022,0.0,0.0,1.7673,1.7894,1.7933,1.8052,1.8059,1.802,1.802,1.794,1.7807,1.7807,1.78,1.784,1.7887,1.7894,1.7933,1.8052,1.8419,1.8734,1.881,1.9244,1.9603,1.9603,1.9168,1.862,1.8036,1.7847,1.7593,1.7003,1.6801,1.6488,1.5971,1.5844,0.0,1.5799,1.4738,1.4056,1.4112,1.2314,1.0697,0.9342,0.9298,0.9298,0.9298,0.8884,0.8957,0.9548,0.9146,0.8889,0.8772,0.872,0.9357,0.0,0.0,0.0,0.0,0.0,0.0,0.0,0.0,0.0,0.0,0.0,0.0,0.0,0.0,0.0,1.2974,1.2991,1.2887,1.2795,1.1953,1.1357,1.1399,1.1266,1.1229,1.1229,1.1229,1.1425,1.1972,1.2026,1.229,1.2876,1.2881,1.2881,1.2881,1.3208,1.3223,1.2886,1.3218,1.2938,1.203,1.2359,0.0,1.175,1.1935,1.2071,1.2049,1.1739,1.163,1.1609,1.1302,1.1229,1.1371,1.3226,1.4288,1.4703,1.4703,1.4784,1.4863,1.5005,1.5084,1.5336,1.6378,1.6718,1.6886,1.7807,1.7787,0.0,1.747,1.6779,1.6083,1.6083,1.6053,1.6114,1.6621,1.6718,1.697,1.7894,1.782,1.7747,1.8178,1.8696,1.905,1.905,1.9302,1.945,1.9323,1.8852,1.847,1.8343,1.7369,1.6667,1.654,1.6084,1.5799,1.5799,1.4551,1.3876,1.4091,1.268,1.143,1.0499,1.0457,1.0457,1.0457,1.003,1.0015,1.0521,1.0055,0.9836,0.9789,0.9464,0.9425,0.0,0.0,0.0,0.0,0.0,0.0,0.0,0.0,0.0,0.0,0.0,0.9631,1.0532,0.0,1.1844,1.2298,1.2246,1.1939,1.136,1.0708,1.0415,1.0767,1.0813,1.0813,1.0813,1.0813,1.0965,1.1262,1.1438,1.1713,1.2092,1.2225,1.2275,1.2275,1.2515,1.252,1.228,1.2384,1.2158,1.1724,1.1982,1.2016,1.1872,1.1996,1.2073,1.2041,1.1493,1.1309,1.1284,1.0914,1.0813,1.0914,1.19,1.2478,1.2807,1.3105,1.3258,1.3384,1.4254,1.4536,1.4712,1.584,1.602,1.5938,1.6541,1.6368,1.6009,1.6009,1.5576,1.5147,1.5147,1.5123,1.5196,1.5475,1.557,1.5778,1.667,1.6857,1.7037,1.7578,1.8138,1.8496,1.8496,1.893,1.9406,1.9646,1.9398,1.9076,1.874,1.8134,1.7372,1.6476,1.6123,1.5732,1.5193,1.4318,1.3539,1.2927,1.2234,1.1435,1.0475,1.0432,1.0432,1.0432,0.9771,0.9673,1.0188,0.9491,0.9267,0.9437,0.9257,0.9491,0.0,0.0,0.0,0.0,0.0,0.0,0.0,0.0,0.7476,0.8003,0.8409,0.8984,1.015,1.0497,1.0792,1.1245,1.1085,1.0545,0.9526,0.928,0.9377,0.9931,1.025,1.0415,1.0415,1.0415,1.0466,1.0614,1.0898,1.1153,1.1309,1.1536,1.1671,1.1671,1.18,1.1804,1.1671,1.1579,1.1524,1.1511,1.1688,1.1824,1.1953,1.202,1.2051,1.2012,1.13,1.0949,1.0858,1.0562,1.0415,1.0415,1.0415,1.0415,1.0517,1.1312,1.1665,1.1917,1.3301,1.3831,1.4063,1.5032,1.5097,1.4766,1.4866,1.4733,1.4567,1.4365,1.4302,1.4313,1.4157,1.4116,1.4174,1.4313,1.4416,1.4744,1.5448,1.5922,1.6434,1.7015,1.7585,1.794,1.794,1.8373,1.893,1.945,1.9646,1.9452,1.881,1.8631,1.7971,1.6446,1.6191,1.5668,1.4625,1.4153,1.3337,1.1942,1.1776,1.1307,1.031,1.0266,1.0232,1.0121,0.9288,0.909,0.956,0.8696,0.847,0.8769,0.8769,0.9459,0.3569,0.4561,0.6069,0.7949,0.75,0.7113,0.0,0.0,0.7636,0.8456,0.8656,0.8907,0.9651,0.9325,0.9197,0.9819,0.8895,0.8016,0.787,0.7315,0.7012,0.7063,0.8249,0.9008,0.9008,0.9008,0.926,0.9865,1.0227,1.0678,1.126,1.1536,1.1671,1.1671,1.2118,1.213,1.1675,1.2086,1.1803,1.0793,1.1081,1.0896,1.0363,1.0698,1.0819,1.0784,1.0179,0.9703,0.9432,0.9131,0.9008,0.9008,0.9008,0.9008,0.9159,1.0466,1.1127,1.1357,1.1553,1.1776,1.21,1.2761,1.2946,1.2944,1.3266,1.374,1.3998,1.3173,1.2959,1.286,1.2197,1.2073,1.2292,1.2865,1.3464,1.4231,1.5359,1.5632,1.5852,1.646,1.7034,1.7388,1.7388,1.782,1.8373,1.8893,1.9406,1.95,1.8956,1.8375,1.7741,1.7052,1.6445,1.5713,1.4749,1.4243,1.3546,1.2484,1.2021,1.1516,1.0936,1.0899,1.0697,1.0187,0.9675,0.9403,0.9406,0.8893,0.8656,0.8694,0.8694,0.905,0.4561,0.5176,0.5752,0.0,0.6725,0.6546,0.7464,0.717,0.687,0.7384,0.7455,0.7564,0.7829,0.767,0.7561,0.7829,0.7413,0.6996,0.6996,0.6794,0.6588,0.6588,0.7128,0.7667,0.8103,0.8537,0.8981,0.9406,0.9761,1.0126,1.0584,1.0897,1.1072,1.1072,1.1267,1.1278,1.1072,1.0576,1.0402,1.0603,0.9547,0.9248,0.9621,0.9276,0.9237,0.9581,0.9853,0.9673,0.9173,0.9054,0.9058,0.9058,0.9058,0.9162,0.9383,1.0004,1.0436,1.0813,1.1438,1.1863,1.2208,1.2684,1.2666,1.2469,1.2433,1.2426,1.2326,1.1769,1.1625,1.1544,1.124,1.1203,1.1312,1.1548,1.2146,1.288,1.3757,1.4291,1.4818,1.5776,1.6164,1.641,1.6788,1.7271,1.7706,1.794,1.8419,1.8696,1.8458,1.8194,1.7703,1.6824,1.5646,1.4726,1.4323,1.3763,1.311,1.2422,1.1963,1.1373,1.049,1.0263,0.9894,0.9332,0.8829,0.8707,0.8973,0.8472,0.8294,0.8489,0.8489,0.8676,0.5026,0.5424,0.0,0.6137,0.617,0.6106,0.6106,0.5949,0.5819,0.5968,0.6043,0.6098,0.6258,0.615,0.6098,0.6256,0.615,0.6043,0.6043,0.6043,0.6043,0.6043,0.6204,0.6527,0.7066,0.7774,0.8321,0.8534,0.8867,0.9141,0.9355,0.9693,0.9907,0.9907,0.9907,0.9907,0.9907,0.9,0.9,0.984,0.837,0.8125,0.8944,0.8288,0.8191,0.8587,0.9147,0.9144,0.8718,0.8644,0.861,0.861,0.861,0.8791,0.8973,0.9048,0.9576,1.0337,1.1119,1.1608,1.1951,1.2257,1.211,1.183,1.1428,1.1229,1.0987,1.0442,1.0364,1.0466,1.0316,1.0368,1.0517,1.0517,1.1065,1.1756,1.2628,1.3168,1.3888,1.509,1.5365,1.5505,1.5926,1.6336,1.6568,1.6568,1.6928,1.73,1.7599,1.7341,1.6842,1.61,1.4898,1.4056,1.3729,1.3105,1.2445,1.1769,1.1348,1.0756,0.9956,0.9654,0.9261,0.8724,0.8307,0.8221,0.847,0.81,0.8005,0.8184,0.8184,0.8353,0.0,0.0,0.5462,0.6189,0.6119,0.5813,0.5813,0.5245,0.4692,0.4601,0.4572,0.4789,0.5433,0.5003,0.4787,0.5435,0.5005,0.4572,0.4572,0.4572,0.4572,0.4572,0.5166,0.554,0.5542,0.6253,0.6733,0.6946,0.7224,0.7448,0.7553,0.7902,0.8091,0.8091,0.8091,0.8091,0.8091,0.8019,0.8019,0.8091,0.8019,0.8019,0.8027,0.8027,0.8021,0.8004,0.7722,0.7558,0.7531,0.7258,0.7171,0.7171,0.7171,0.7176,0.7181,0.7166,0.8443,1.0087,1.0157,1.0359,1.0674,1.0681,1.0678,1.0563,0.9975,1.0232,1.0482,0.9226,0.9312,0.9662,0.9008,0.9364,0.981,0.981,1.0364,1.1208,1.2527,1.2817,1.3205,1.4457,1.4749,1.4744,1.4744,1.4749,1.4795,1.4795,1.4789,1.5219,1.6299,1.5481,1.4784,1.4772,1.4716,1.4214,1.3034,1.2458,1.1643,1.0441,0.9847,0.9541,0.9541,0.9487,0.9254,0.8716,0.8669,0.8447,0.7903,0.7903,0.7909,0.7916,0.7916,0.8076,0.3989,0.0,0.4567,0.4998,0.5171,0.5219,0.5219,0.49,0.4579,0.4528,0.4498,0.4593,0.4802,0.4636,0.4581,0.4789,0.4625,0.4517,0.4517,0.4517,0.4517,0.4517,0.4679,0.4842,0.4842,0.5878,0.6736,0.7153,0.7249,0.7451,0.7828,0.7919,0.8027,0.8027,0.8027,0.8027,0.8027,0.7437,0.7437,0.8024,0.744,0.6854,0.6274,0.6854,0.7111,0.7172,0.7621,0.7701,0.7499,0.7427,0.7336,0.7336,0.7336,0.7484,0.7676,0.7676,0.8101,0.8656,0.8429,0.8597,0.8868,0.8868,0.8868,0.8775,0.8274,0.8293,0.8297,0.7531,0.7498,0.7652,0.7396,0.7495,0.77,0.77,0.858,0.9555,0.9995,1.0822,1.1738,1.2541,1.3085,1.3585,1.3955,1.4405,1.4703,1.4703,1.4703,1.4835,1.5219,1.496,1.4703,1.4703,1.393,1.3282,1.2889,1.1875,1.1053,1.0641,1.0227,0.9823,0.9448,0.9139,0.8493,0.7449,0.7453,0.7119,0.6503,0.6503,0.6838,0.7517,0.7517,0.7661,0.2963,0.3241,0.3307,0.363,0.3823,0.394,0.4085,0.3952,0.3808,0.3719,0.366,0.3698,0.3681,0.4102,0.4476,0.4522,0.4473,0.4494,0.449,0.4498,0.4517,0.4512,0.4518,0.4518,0.4574,0.5366,0.6032,0.6387,0.6464,0.6706,0.7037,0.7053,0.7053,0.7053,0.7053,0.7053,0.7053,0.6531,0.6531,0.7053,0.647,0.5951,0.5427,0.5951,0.6208,0.6268,0.6859,0.6916,0.6738,0.6738,0.6738,0.6738,0.6738,0.6877,0.7053,0.7053,0.7053,0.71,0.7543,0.784,0.8027,0.8027,0.8027,0.7942,0.7426,0.7289,0.7198,0.6709,0.6588,0.6588,0.6588,0.6588,0.6588,0.6588,0.727,0.8106,0.8574,0.9408,1.0332,1.1228,1.1778,1.2225,1.2595,1.3042,1.3296,1.3296,1.3296,1.3585,1.4277,1.3982,1.3643,1.3643,1.272,1.1984,1.1738,1.0956,1.0364,1.0115,0.9864,0.945,0.8792,0.8509,0.7855,0.6756,0.6706,0.6505,0.6104,0.6104,0.6437,0.7062,0.7062,0.7142,0.1388,0.1683,0.1783,0.2018,0.2059,0.2169,0.2482,0.2582,0.2471,0.2149,0.2063,0.2085,0.0,0.0,0.4312,0.4393,0.4371,0.4376,0.4405,0.4365,0.4357,0.0,0.0,0.0,0.4624,0.4576,0.4579,0.4747,0.4993,0.5199,0.542,0.543,0.543,0.543,0.543,0.543,0.543,0.543,0.543,0.543,0.5374,0.5372,0.5292,0.5374,0.5374,0.543,0.543,0.543,0.543,0.543,0.543,0.543,0.543,0.543,0.543,0.543,0.543,0.5625,0.7316,0.7897,0.7897,0.7897,0.7897,0.775,0.7317,0.7181,0.7084,0.6611,0.6487,0.648,0.648,0.648,0.648,0.648,0.6534,0.6899,0.8258,0.8574,0.8992,1.0344,1.0657,1.0712,1.0813,1.0813,1.0813,1.0813,1.0813,1.1503,1.3421,1.2546,1.1765,1.1765,1.1166,1.0513,0.9862,0.971,0.9409,0.8804,0.8702,0.8374,0.7726,0.7673,0.7348,0.6593,0.6593,0.6539,0.6482,0.6482,0.648,0.6477,0.6477,0.6534,0.0356,0.0429,0.0504,0.0527,0.059,0.0579,0.0639,0.0677,0.0647,0.0565,0.0545,0.0576,0.0,0.0,0.1529,0.2597,0.2812,0.0,0.2804,0.2758,0.0,0.2758,0.0,0.2829,0.2828,0.4031,0.4277,0.2986,0.417,0.5099,0.5379,0.5387,0.5387,0.5387,0.5387,0.5387,0.5387,0.5387,0.5387,0.5387,0.5391,0.4705,0.3413,0.4773,0.5391,0.5387,0.5387,0.5387,0.5387,0.5387,0.5387,0.5387,0.5387,0.5387,0.5387,0.5387,0.5387,0.5452,0.5911,0.603,0.6079,0.6079,0.6079,0.6038,0.5756,0.5609,0.547,0.5258,0.5106,0.5007,0.5007,0.5007,0.5007,0.5007,0.5439,0.5867,0.6234,0.6727,0.7219,0.7584,0.8524,0.9563,1.0606,1.0813,1.0813,1.0813,1.0813,1.1011,1.1507,1.1262,1.1061,1.1061,1.0466,0.9965,0.9814,0.8823,0.8143,0.7993,0.7453,0.7249,0.7441,0.7498,0.7182,0.6606,0.6609,0.6101,0.5037,0.5037,0.502,0.5048,0.5039,0.5431,-0.0,-0.0,-0.0,-0.0,-0.0,-0.0,-0.0,-0.0,-0.0,-0.0,-0.0,0.0,-0.0,-0.0,0.0258,0.0,0.0,0.0,0.1251,0.1259,0.1219,0.0,0.1216,0.0,0.211,0.385,0.4555,0.368,0.3809,0.4032,0.4229,0.4232,0.4232,0.4232,0.4232,0.4232,0.4232,0.4232,0.4232,0.4232,0.4989,0.4441,0.2678,0.2949,0.349,0.4232,0.4232,0.4232,0.4232,0.4232,0.4232,0.4232,0.4232,0.4232,0.4232,0.4232,0.4232,0.4232,0.4232,0.4225,0.4353,0.5169,0.5377,0.5348,0.5267,0.5166,0.5054,0.4708,0.4584,0.4504,0.4496,0.4477,0.4475,0.4525,0.4796,0.5117,0.5435,0.5817,0.6202,0.6532,0.7489,0.8537,0.9322,0.9699,0.9806,0.9481,0.9426,0.9315,0.8992,0.9511,0.9875,0.9875,0.9006,0.8386,0.8386,0.7655,0.7297,0.7532,0.7155,0.7006,0.7043,0.6403,0.562,0.4695,0.4693,0.4306,0.3471,0.3471,0.3518,0.3503,0.3498,0.4117,-0.0,-0.0,-0.0,-0.0,-0.0,-0.0,-0.0,-0.0,-0.0,-0.0,0.0,-0.0,-0.0,-0.0,-0.0,-0.0,0.0,-0.0,-0.0,-0.0,-0.0,-0.0,-0.0,0.0471,0.1813,0.3308,0.4543,0.5351,0.3494,0.2344,0.2344,0.2344,0.2344,0.2344,0.2344,0.2344,0.2344,0.2344,0.2344,0.2344,0.3906,0.3837,0.2277,0.0737,0.0871,0.2344,0.2344,0.2344,0.2344,0.2344,0.2344,0.2344,0.2344,0.2344,0.2344,0.2344,0.2479,0.2681,0.2681,0.2681,0.295,0.4508,0.5052,0.5032,0.5049,0.5066,0.4928,0.4406,0.4258,0.4213,0.4191,0.4209,0.4208,0.4198,0.4366,0.4641,0.5224,0.538,0.5599,0.631,0.6964,0.745,0.756,0.8103,0.8265,0.7667,0.756,0.7343,0.6696,0.7688,0.8419,0.8419,0.7323,0.6645,0.6704,0.6591,0.6714,0.7244,0.6903,0.6584,0.6351,0.5081,0.3618,0.1953,0.1898,0.1898,0.1898,0.1898,0.1898,0.1898,0.1897,0.2625,-0.0,-0.0,-0.0,-0.0,-0.0,-0.0,-0.0,-0.0,0.0,0.0,-0.0,-0.0,-0.0,-0.0,-0.0,-0.0,-0.0,-0.0,-0.0,-0.0,-0.0,0.0,-0.0,0.0067,0.0337,0.0674,0.2093,0.5166,0.236,0.0471,0.0471,0.0471,0.0471,0.0471,0.0471,0.0471,0.0471,0.0471,0.0471,0.0471,0.0808,0.0741,0.0471,0.0135,0.0202,0.0471,0.0471,0.0471,0.0471,0.0471,0.0471,0.0471,0.0471,0.0471,0.0471,0.0471,0.1414,0.2699,0.2699,0.2699,0.2764,0.3086,0.3149,0.3146,0.3198,0.3146,0.3132,0.3022,0.2815,0.262,0.2591,0.2624,0.2624,0.2623,0.3581,0.4544,0.4641,0.4688,0.4895,0.5544,0.5814,0.6088,0.6694,0.6912,0.6912,0.6804,0.6804,0.675,0.6588,0.6799,0.6956,0.6956,0.6745,0.6763,0.7228,0.651,0.6249,0.6731,0.4458,0.3629,0.479,0.4617,0.3197,0.0448,0.0392,0.0392,0.0392,0.0392,0.0392,0.0392,0.0391,0.0502,-0.0,-0.0,-0.0,-0.0,-0.0,-0.0,-0.0,0.0,0.0,0.0,-0.0,-0.0,-0.0,-0.0,0.0,-0.0,-0.0,-0.0,-0.0,-0.0,-0.0,-0.0,-0.0,-0.0,-0.0,-0.0,0.0742,0.2432,0.1012,-0.0,-0.0,-0.0,-0.0,-0.0,-0.0,-0.0,-0.0,-0.0,-0.0,-0.0,-0.0,-0.0,-0.0,-0.0,-0.0,-0.0,-0.0,-0.0,-0.0,-0.0,-0.0,-0.0,-0.0,-0.0,-0.0,-0.0,0.0539,0.1282,0.1282,0.1282,0.1281,0.1277,0.1276,0.1276,0.1276,0.1317,0.128,0.1304,0.1204,0.1049,0.1071,0.1062,0.1062,0.106,0.2233,0.3524,0.4309,0.4473,0.4577,0.4895,0.5271,0.5597,0.5982,0.6367,0.6477,0.6091,0.6034,0.5875,0.5561,0.5508,0.5675,0.6168,0.5791,0.5635,0.5868,0.4736,0.4411,0.5456,0.4154,0.3028,0.2188,0.2132,0.1458,0.0056,-0.0,-0.0,-0.0,-0.0,-0.0,-0.0,-0.0,-0.0,-0.0,-0.0,-0.0,-0.0,-0.0,-0.0,-0.0,-0.0,0.0,0.0,-0.0,-0.0,-0.0,0.0,-0.0,0.0,-0.0,-0.0,-0.0,-0.0,-0.0,0.0,-0.0,0.0,-0.0,-0.0,-0.0,-0.0,-0.0,-0.0,-0.0,-0.0,-0.0,-0.0,-0.0,-0.0,-0.0,-0.0,-0.0,-0.0,-0.0,-0.0,-0.0,-0.0,-0.0,-0.0,-0.0,-0.0,-0.0,-0.0,-0.0,-0.0,-0.0,-0.0,-0.0,-0.0,-0.0,-0.0,-0.0,-0.0,-0.0,-0.0,-0.0,-0.0,-0.0,-0.0,-0.0,-0.0,-0.0,-0.0,-0.0,-0.0,-0.0,-0.0,0.0893,0.2064,0.3294,0.4028,0.448,0.4525,0.4903,0.5279,0.5277,0.5771,0.5937,0.538,0.5275,0.5119,0.4588,0.4484,0.4763,0.5534,0.4646,0.4154,0.4499,0.3416,0.2912,0.3487,0.3543,0.247,0.0112,-0.0,-0.0,-0.0,-0.0,-0.0,-0.0,-0.0,-0.0,-0.0,-0.0,-0.0,-0.0,-0.0,-0.0,-0.0,-0.0,-0.0,-0.0,0.0,0.0,-0.0,-0.0,-0.0,-0.0,-0.0,0.0,0.0,0.0,-0.0,-0.0,-0.0,-0.0,-0.0,0.0,0.0,-0.0,-0.0,-0.0,-0.0,-0.0,-0.0,-0.0,-0.0,-0.0,-0.0,-0.0,-0.0,-0.0,-0.0,-0.0,-0.0,-0.0,-0.0,-0.0,-0.0,-0.0,-0.0,-0.0,-0.0,-0.0,-0.0,-0.0,-0.0,-0.0,-0.0,-0.0,-0.0,-0.0,-0.0,-0.0,-0.0,-0.0,-0.0,-0.0,-0.0,-0.0,-0.0,-0.0,-0.0,-0.0,-0.0,-0.0,-0.0,-0.0,-0.0,0.0112,0.0223,0.0391,0.257,0.4496,0.4494,0.4548,0.4598,0.4588,0.4641,0.4695,0.4627,0.4579,0.4588,0.4536,0.4499,0.4509,0.4622,0.3303,0.2964,0.4397,0.4396,0.3203,0.056,0.0392,0.028,-0.0,-0.0,-0.0,-0.0,-0.0,-0.0,-0.0,-0.0,-0.0,-0.0,-0.0,-0.0,-0.0,-0.132,-0.2275,-0.0473,-0.0,-0.0,-0.0,0.0,-0.0,-0.0,-0.0,-0.0,-0.0,-0.0,-0.0,0.0,0.0,0.0,-0.0,-0.0,-0.0,-0.0,-0.0,-0.0,-0.0,-0.0,-0.0,-0.0,-0.0,-0.0,-0.0,-0.0,-0.0,-0.0,-0.0,-0.0,-0.0,-0.0,-0.0,-0.0,-0.0,-0.0,-0.0,-0.0,-0.0,-0.0,-0.0,-0.0,-0.0,-0.0,-0.0,-0.0,-0.0,-0.0,-0.0,-0.0,-0.0,-0.0,-0.0,-0.0,-0.0,-0.0,-0.0,-0.0,-0.0,-0.0,-0.0,-0.0,-0.0,-0.0,-0.0,-0.0,-0.0,-0.0,-0.0,-0.0,-0.0,0.0949,0.2067,0.2963,0.3131,0.313,0.3126,0.3862,0.4489,0.4482,0.4485,0.4492,0.4501,0.4509,0.4518,0.4524,0.23,0.1119,0.1738,0.1794,0.1289,0.0056,-0.0,-0.0,-0.0,-0.0,-0.0,-0.0,-0.0,-0.0,-0.0,-0.0,-0.0,-0.0,-0.0,-0.0,-0.0,-0.1556,-0.2851,-0.1627,-0.0633,-0.0,0.0,-0.0,-0.0,-0.0,-0.0,-0.0,-0.0,-0.0,-0.0,0.0,0.0,-0.0,-0.0,-0.0,-0.0,-0.0,-0.0,-0.0,-0.0,-0.0,-0.0,-0.0,-0.0,-0.0,-0.0,-0.0,-0.0,-0.0,-0.0,-0.0,-0.0,-0.0,-0.0539,-0.1616,-0.1616,-0.101,-0.0,-0.0,-0.0,-0.0067,-0.1145,-0.101,-0.0,-0.0,-0.0,-0.0,-0.0,-0.0,-0.0,-0.0,-0.0674,-0.1616,-0.1616,-0.0875,-0.0067,-0.0605,-0.1144,-0.1482,-0.0942,-0.1062,-0.1363,-0.1311,-0.1018,-0.0576,-0.0113,-0.0,-0.0,-0.0,-0.0,-0.0,-0.0,-0.0,0.028,0.134,0.1563,0.1563,0.1561,0.2458,0.3303,0.3754,0.4214,0.4506,0.4512,0.4518,0.4177,0.3268,0.1291,-0.0,-0.0,-0.0,-0.0,-0.0,-0.0,-0.0,-0.0,-0.0,-0.0,-0.0,-0.0,-0.0,-0.0,-0.0,-0.0,-0.0,-0.0,-0.0,-0.0,-0.0,-0.0729,-0.3727,-0.2193,-0.0,-0.0,-0.0,-0.0,-0.0,-0.0,-0.0,-0.0,-0.0,-0.0,-0.0,0.0,0.0,-0.0,-0.0,-0.0,-0.0,-0.0,-0.0,-0.0,-0.0,-0.0,-0.0,-0.0,-0.0,-0.0,-0.0,-0.0,-0.0,-0.0,-0.0,-0.0,-0.0,-0.1818,-0.5344,-0.5344,-0.3498,-0.0,-0.0,-0.0,-0.0202,-0.3777,-0.3303,-0.0,-0.0,-0.0,-0.0,-0.0,-0.0,-0.0,-0.0,-0.2291,-0.5344,-0.5344,-0.3024,-0.0268,-0.2074,-0.3899,-0.4998,-0.3219,-0.3502,-0.4424,-0.4482,-0.3362,-0.1841,-0.0391,-0.0,-0.0,-0.0,-0.0,-0.0,-0.0,-0.0,-0.0,-0.0,-0.0,-0.0,-0.0,0.0056,0.0558,0.2007,0.3535,0.4514,0.4514,0.4524,0.3383,0.0393,-0.0,-0.0,-0.0,-0.0,-0.0,-0.0,-0.0,-0.0,-0.0,-0.0,-0.0,-0.0,-0.0,-0.0,-0.0,-0.0,-0.0,-0.0,-0.0,-0.0,-0.0,-0.0,-0.025,-0.1171,-0.2257,-0.2217,0.1075,0.0882,-0.0,-0.0,-0.0,-0.0,-0.0,-0.0,-0.0,-0.0,-0.0,0.0,0.0,0.0,0.0,-0.0,-0.0,-0.0,-0.0,-0.0,-0.0,-0.0,-0.0,-0.0,-0.0,-0.0,-0.0,-0.0,-0.0,-0.1212,-0.3641,-0.3708,-0.3636,-0.3558,-0.4784,-0.4784,-0.3626,-0.241,-0.1874,-0.1877,-0.3086,-0.3628,-0.3565,-0.2345,-0.1875,-0.1877,-0.1877,-0.1877,-0.1877,-0.1877,-0.2549,-0.3761,-0.4989,-0.4645,-0.3558,-0.2947,-0.3894,-0.5264,-0.4711,-0.3965,-0.3457,-0.4277,-0.4134,-0.3641,-0.3192,-0.229,-0.1506,-0.1507,-0.1507,-0.1228,-0.0224,-0.0,-0.0,-0.0,-0.0,-0.0,-0.0,-0.0,0.0168,0.0615,0.112,0.1402,0.1402,0.1403,0.1066,0.0112,-0.0,-0.0,-0.0,-0.0,-0.0,-0.0,-0.0,-0.0,-0.0,-0.0,-0.0,-0.0,-0.0,-0.0,-0.0,-0.0,-0.0,-0.0056,-0.2131,-0.309,0.0,-0.0542,-0.0,-0.0,-0.0903,-0.0975,0.2009,0.1825,0.0814,0.0138,-0.0,-0.0,-0.0,-0.0,-0.0,-0.0,-0.0,-0.0,0.0,0.0,-0.0,-0.0,-0.0,-0.0,-0.0,-0.0,-0.0,-0.0,-0.128,-0.1414,-0.0067,-0.0673,-0.1345,-0.202,-0.202,-0.276,-0.4377,-0.5062,-0.485,-0.3752,-0.4841,-0.5389,-0.5387,-0.4227,-0.3687,-0.3689,-0.3686,-0.4366,0.0,-0.4161,-0.3687,-0.3689,-0.3689,-0.3689,-0.3689,-0.3689,-0.3687,-0.3887,-0.4978,-0.5389,-0.5184,-0.4087,-0.4493,-0.5382,-0.5382,-0.4499,-0.3675,-0.4428,-0.4544,-0.4484,-0.449,-0.3805,-0.3071,-0.3073,-0.3074,-0.2794,-0.1899,-0.1228,-0.0837,-0.0839,-0.0839,-0.0839,-0.0839,-0.0839,-0.0615,-0.0056,-0.0448,-0.1063,-0.1626,-0.1175,-0.0839,-0.0839,-0.0839,-0.0839,-0.0839,-0.0336,-0.0,-0.0,-0.0,-0.0,-0.0,-0.1065,-0.1177,-0.0,-0.0,-0.056,-0.1684,-0.1682,-0.14,-0.0895,-0.2746,-0.3934,0.0,-0.1358,-0.0175,-0.0044,0.136,0.2711,0.2703,0.2715,0.0,0.0442,0.0034,-0.0,-0.0,-0.0,-0.0,-0.0,-0.0,-0.0,-0.0,-0.0,-0.0,-0.0,-0.0,-0.013,-0.0388,-0.0398,-0.0337,-0.0202,-0.3301,-0.3776,-0.0539,-0.1877,-0.3557,-0.5341,-0.5411,-0.4583,-0.2879,-0.4571,-0.5389,-0.5377,-0.5377,-0.5377,-0.5377,-0.5377,-0.5384,-0.5393,-0.5382,-0.5384,-0.5393,-0.5382,-0.5384,-0.5394,-0.5394,-0.5394,-0.5394,-0.5394,-0.5387,-0.5377,-0.5377,-0.5377,-0.5376,-0.5432,-0.5428,-0.5428,-0.5428,-0.5096,-0.4809,-0.4809,-0.4646,-0.4519,-0.4475,-0.4477,-0.448,-0.4492,-0.4496,-0.4496,-0.4496,-0.3356,-0.2342,-0.2343,-0.2343,-0.2343,-0.2343,-0.2343,-0.1896,-0.0502,-0.1394,-0.2738,-0.4281,-0.3249,-0.2343,-0.2343,-0.2343,-0.2343,-0.2343,-0.1006,-0.0168,-0.0168,-0.0056,-0.0,-0.0,-0.2921,-0.3204,-0.0392,-0.0224,-0.1511,-0.4356,-0.446,-0.3764,-0.2343,-0.2343,-0.313,-0.0211,0.0,-0.173,-0.0356,0.1356,0.2687,0.0,0.2714,0.2375,0.0,0.0,0.0,-0.0,-0.0,-0.0,-0.0,-0.0,-0.0,-0.0,-0.0,-0.0,-0.0,-0.0,-0.1067,-0.3873,-0.4101,-0.3569,-0.2144,-0.2882,-0.3559,-0.4106,-0.322,-0.3551,-0.5319,-0.5387,-0.5179,-0.4765,-0.5176,-0.5377,-0.5432,-0.5432,-0.5432,-0.5432,-0.5432,-0.5434,-0.5371,-0.5434,-0.5434,-0.5371,-0.5434,-0.5434,-0.5371,-0.5371,-0.5371,-0.5371,-0.5371,-0.5369,-0.5432,-0.5432,-0.5432,-0.5432,-0.543,-0.5428,-0.5428,-0.5428,-0.5155,-0.486,-0.486,-0.4701,-0.4517,-0.452,-0.452,-0.4522,-0.4524,-0.4525,-0.4472,-0.448,-0.4198,-0.3971,-0.3979,-0.3981,-0.3981,-0.3981,-0.3981,-0.3869,-0.3474,-0.2737,-0.2737,-0.4327,-0.4211,-0.3981,-0.3981,-0.3981,-0.3981,-0.3981,-0.257,-0.1675,-0.1675,-0.0614,-0.0,-0.0,-0.2923,-0.4179,-0.343,-0.2293,-0.201,-0.2741,-0.3929,-0.4327,-0.3981,-0.3973,-0.4141,0.105,0.02,-0.0508,-0.0,0.1507,0.2852,0.2828,0.0,0.0,0.0,0.0,0.0,0.0,0.0,0.0,-0.0,-0.0,-0.0,-0.0,-0.0,-0.0627,-0.2292,-0.2469,-0.2895,-0.4037,-0.4923,-0.499,-0.4028,-0.3956,-0.4364,-0.5328,-0.4496,-0.4356,-0.5377,-0.5374,-0.5371,-0.5371,-0.5371,-0.5369,-0.5428,-0.5428,-0.5428,-0.5428,-0.5428,-0.5428,-0.5428,-0.5428,-0.5428,-0.5428,-0.5428,-0.5428,-0.5428,-0.5428,-0.5428,-0.5428,-0.5428,-0.5428,-0.5428,-0.5428,-0.5686,-0.6075,-0.6467,-0.6599,-0.6599,-0.6599,-0.6341,-0.587,-0.5097,-0.4697,-0.4517,-0.4517,-0.4517,-0.4517,-0.4517,-0.4517,-0.4519,-0.4525,-0.4525,-0.4472,-0.4479,-0.448,-0.448,-0.448,-0.448,-0.4482,-0.4489,-0.3801,-0.3572,-0.4374,-0.4484,-0.448,-0.448,-0.448,-0.448,-0.448,-0.3741,-0.3235,-0.3244,-0.2515,-0.173,-0.1059,-0.3252,-0.4506,-0.4499,-0.3697,-0.3241,-0.3238,-0.4089,-0.4485,-0.448,-0.4473,-0.4525,0.1853,0.1896,0.1731,0.0939,0.1883,0.3052,0.299,0.0,0.0,0.0,0.0,0.0,0.0,0.0196,0.0,0.0,-0.0786,-0.0754,-0.0425,-0.0433,-0.152,-0.4628,-0.5204,-0.4788,-0.3282,-0.4502,-0.5393,-0.5391,-0.5382,-0.5381,-0.5391,-0.5372,-0.5434,-0.5376,-0.5434,-0.5428,-0.5428,-0.5428,-0.5428,-0.5428,-0.5428,-0.5493,-0.5622,-0.5622,-0.5622,-0.5622,-0.5754,-0.5754,-0.5622,-0.5622,-0.5622,-0.5556,-0.5427,-0.5428,-0.5428,-0.5428,-0.5491,-0.5622,-0.5752,-0.627,-0.7046,-0.7765,-0.8027,-0.8019,-0.7919,-0.7618,-0.6987,-0.5601,-0.5024,-0.4844,-0.4844,-0.4736,-0.4679,-0.4679,-0.4572,-0.4517,-0.4517,-0.4517,-0.4517,-0.4517,-0.4517,-0.4517,-0.4517,-0.4517,-0.452,-0.4475,-0.4524,-0.452,-0.4475,-0.4524,-0.4517,-0.4517,-0.4517,-0.4517,-0.4517,-0.4517,-0.4525,-0.449,-0.4494,-0.3923,-0.2624,-0.3802,-0.4479,-0.4479,-0.4489,-0.4485,-0.4475,-0.4475,-0.4472,-0.4517,-0.4517,-0.4517,0.2075,0.236,0.2593,0.2653,0.2975,0.3207,0.0,0.0,0.0,0.0,0.0,0.0,0.0,0.1033,-0.0824,0.0,-0.4229,-0.4045,-0.2498,-0.226,-0.2517,-0.3071,-0.4441,-0.5324,-0.5038,-0.5244,-0.5377,-0.5434,-0.5432,-0.5432,-0.5434,-0.543,-0.5428,-0.5432,-0.543,-0.5428,-0.5428,-0.5428,-0.5428,-0.5428,-0.5428,-0.5817,-0.6525,-0.6525,-0.6525,-0.6525,-0.7309,-0.7179,-0.6525,-0.6525,-0.6525,-0.6396,-0.5686,-0.5428,-0.5428,-0.5428,-0.5881,-0.6593,-0.7377,-0.77,-0.7829,-0.7962,-0.8027,-0.7924,-0.7674,-0.7436,-0.719,-0.6721,-0.6444,-0.6263,-0.6263,-0.5819,-0.5326,-0.5326,-0.4895,-0.4517,-0.4517,-0.4517,-0.4517,-0.4517,-0.4517,-0.4517,-0.4517,-0.4517,-0.4517,-0.4519,-0.4519,-0.4517,-0.4519,-0.4519,-0.4517,-0.4517,-0.4517,-0.4517,-0.4517,-0.4517,-0.4519,-0.4522,-0.4475,-0.4373,-0.4154,-0.4371,-0.4479,-0.4479,-0.4525,-0.4522,-0.452,-0.452,-0.4519,-0.4517,-0.4517,-0.4517,0.1954,0.2267,0.2574,0.2553,0.292,0.3263,0.3191,0.0,0.0,0.0,0.0,0.0,0.0,0.0,0.005,-0.4298,-0.5061,-0.4912,-0.4261,-0.415,-0.4162,-0.4144,-0.4906,-0.5382,-0.5371,-0.5371,-0.5434,-0.5428,-0.5428,-0.5428,-0.5428,-0.5428,-0.5428,-0.5428,-0.5428,-0.5622,-0.6075,-0.6073,-0.6073,-0.6073,-0.6073,-0.6529,-0.7372,-0.7372,-0.7372,-0.7437,-0.7829,-0.7765,-0.7372,-0.7372,-0.7372,-0.7372,-0.6987,-0.6793,-0.6793,-0.6793,-0.7051,-0.7502,-0.842,-0.8681,-0.8809,-0.9259,-0.9292,-0.9089,-0.8968,-0.8649,-0.8306,-0.8188,-0.7417,-0.6588,-0.6588,-0.6036,-0.5485,-0.5485,-0.5003,-0.4517,-0.4517,-0.4517,-0.4517,-0.4517,-0.4517,-0.4517,-0.4517,-0.4517,-0.4517,-0.4517,-0.4517,-0.4517,-0.4517,-0.4517,-0.4517,-0.4517,-0.4517,-0.4517,-0.4517,-0.4517,-0.4517,-0.4517,-0.4522,-0.4472,-0.4477,-0.4472,-0.4525,-0.4525,-0.452,-0.4517,-0.4517,-0.4517,-0.4517,-0.4519,-0.4895,-0.5058,0.1869,0.2191,0.2471,0.2356,0.0,0.3197,0.29,0.0,0.0,0.0,0.0,0.0,0.0,0.1869,-0.0371,-0.4512,-0.504,-0.5039,-0.5271,-0.5366,-0.5387,-0.5428,-0.5376,-0.5372,-0.5428,-0.5428,-0.5428,-0.5428,-0.5328,-0.5323,-0.5427,-0.5328,-0.5453,-0.5684,-0.5686,-0.6141,-0.6979,-0.6981,-0.6981,-0.6981,-0.6981,-0.7437,-0.8288,-0.8288,-0.8288,-0.8288,-0.8544,-0.8479,-0.8288,-0.8288,-0.8288,-0.8285,-0.8091,-0.8027,-0.8024,-0.8223,-0.8288,-0.842,-0.9332,-0.9594,-0.9722,-1.0368,-1.0361,-1.0104,-1.0037,-0.9653,-0.917,-0.9103,-0.8151,-0.7128,-0.7128,-0.6578,-0.5975,-0.5814,-0.522,-0.4679,-0.4517,-0.4517,-0.4517,-0.4517,-0.4517,-0.4517,-0.4517,-0.4517,-0.4517,-0.4517,-0.4517,-0.4517,-0.4517,-0.4517,-0.4517,-0.4517,-0.4517,-0.4517,-0.4517,-0.4517,-0.4517,-0.4517,-0.4517,-0.4517,-0.4517,-0.4517,-0.4517,-0.4517,-0.4517,-0.4517,-0.4517,-0.4679,-0.4734,-0.4734,-0.5437,-0.576,0.2102,0.2327,0.2584,0.2876,0.0,0.0,0.1709,0.1605,0.0,0.0098,0.0,0.0,0.0,-0.0597,-0.409,-0.4511,-0.4864,-0.505,-0.4936,-0.5174,-0.5418,-0.5428,-0.543,-0.543,-0.5428,-0.5428,-0.5428,-0.5428,-0.5228,-0.5209,-0.542,-0.5225,-0.559,-0.6584,-0.659,-0.7046,-0.7894,-0.7894,-0.7894,-0.7894,-0.7894,-0.8355,-0.9207,-0.9207,-0.9207,-0.9271,-1.0044,-0.9977,-0.9207,-0.9207,-0.9207,-0.9139,-0.8288,-0.8027,-0.8091,-0.8879,-0.9207,-0.9335,-1.0174,-1.0495,-1.0498,-1.0561,-1.0361,-1.0067,-0.9796,-0.9492,-0.9127,-0.8915,-0.8715,-0.8643,-0.8643,-0.8099,-0.7396,-0.6694,-0.5982,-0.5271,-0.4625,-0.4517,-0.4517,-0.4517,-0.4517,-0.4517,-0.4517,-0.4517,-0.4517,-0.4517,-0.4517,-0.4517,-0.4517,-0.4517,-0.4517,-0.4517,-0.4517,-0.4517,-0.4517,-0.4517,-0.4517,-0.4517,-0.4517,-0.4517,-0.4517,-0.4517,-0.4517,-0.4517,-0.4517,-0.4517,-0.4517,-0.5109,-0.5433,-0.5433,-0.6202,-0.6532,0.1921,0.2099,0.23,0.2476,0.0,0.0,0.0,0.0,0.0,-0.2459,-0.2155,0.0,0.0,-0.2492,-0.4521,-0.4671,-0.4857,-0.4987,-0.4919,-0.5174,-0.5326,-0.523,-0.5303,-0.5519,-0.5862,-0.5917,-0.6063,-0.6453,-0.6375,-0.6364,-0.6438,-0.6373,-0.6548,-0.6929,-0.7117,-0.7621,-0.8504,-0.8728,-0.9069,-0.9585,-0.9067,-0.9268,-1.0107,-1.0107,-1.0107,-1.011,-1.0431,-1.0431,-1.0107,-1.0107,-1.0107,-1.0107,-0.9776,-0.9646,-0.9649,-0.9977,-1.0107,-1.0174,-1.0498,-1.0624,-1.0624,-1.0624,-1.0237,-0.9826,-0.9716,-0.9349,-0.8948,-0.8841,-0.8808,-0.8808,-0.8808,-0.8265,-0.7506,-0.675,-0.6036,-0.5326,-0.4625,-0.4517,-0.4517,-0.4517,-0.4517,-0.4517,-0.4517,-0.4517,-0.4517,-0.4517,-0.4517,-0.4517,-0.4517,-0.4517,-0.4517,-0.4517,-0.4517,-0.4517,-0.4517,-0.4517,-0.4517,-0.4517,-0.4517,-0.4517,-0.4517,-0.4517,-0.4517,-0.4517,-0.4517,-0.4679,-0.5109,-0.538,-0.5762,-0.6202,-0.6964,-0.7289,0.1853,0.203,0.2074,0.0,0.0,0.0,0.0,0.0,0.0,-0.3457,-0.4163,-0.4154,-0.3131,0.0,-0.5014,-0.5133,-0.5336,-0.5553,-0.5553,-0.574,-0.5875,-0.5753,-0.5848,-0.606,-0.6427,-0.6476,-0.6666,-0.7074,-0.7059,-0.705,-0.7119,-0.7057,-0.7167,-0.7472,-0.7686,-0.8193,-0.9047,-0.9389,-0.9806,-1.0284,-0.9806,-0.9895,-1.0624,-1.0624,-1.0624,-1.0624,-1.0624,-1.0624,-1.0624,-1.0624,-1.0624,-1.0624,-1.0624,-1.0624,-1.0624,-1.0624,-1.0624,-1.0624,-1.0624,-1.0624,-1.0624,-1.0624,-1.0224,-0.9803,-0.9713,-0.9335,-0.8925,-0.8831,-0.8808,-0.8808,-0.8808,-0.8427,-0.7886,-0.7128,-0.6581,-0.598,-0.5334,-0.4952,-0.4842,-0.4842,-0.4625,-0.4517,-0.4517,-0.4517,-0.4517,-0.4517,-0.4517,-0.4517,-0.4517,-0.4517,-0.4517,-0.4517,-0.4517,-0.4517,-0.4517,-0.4517,-0.4517,-0.4517,-0.4517,-0.4517,-0.4517,-0.4517,-0.4517,-0.4517,-0.4734,-0.5058,-0.5485,-0.5975,-0.6468,-0.6966,-0.7723,-0.8049,0.2009,0.2258,0.0,0.0,0.0,0.0,0.0,0.0,0.0,-0.2534,-0.3414,-0.4497,-0.4497,-0.5258,-0.5909,-0.5909,-0.6447,-0.6907,-0.6902,-0.7041,-0.7124,-0.7119,-0.7119,-0.7124,-0.7121,-0.7119,-0.7119,-0.7116,-0.6972,-0.6999,-0.7104,-0.6964,-0.7346,-0.8343,-0.841,-0.8832,-0.9679,-0.9967,-0.997,-0.9686,-0.9977,-1.0267,-1.0621,-1.0621,-1.0621,-1.0624,-1.0624,-1.0624,-1.0624,-1.0624,-1.0624,-1.0624,-1.0624,-1.0624,-1.0624,-1.0624,-1.0624,-1.0624,-1.0624,-1.0624,-1.0624,-1.0624,-1.0357,-1.006,-0.977,-0.9472,-0.912,-0.8888,-0.8808,-0.8808,-0.8808,-0.8808,-0.859,-0.7883,-0.7723,-0.7509,-0.675,-0.6034,-0.5485,-0.5485,-0.4948,-0.4519,-0.4519,-0.4519,-0.4519,-0.4519,-0.4517,-0.4517,-0.4517,-0.4517,-0.4517,-0.4517,-0.4517,-0.4517,-0.4517,-0.4517,-0.4517,-0.4517,-0.4517,-0.4517,-0.4517,-0.4517,-0.4517,-0.4519,-0.5164,-0.5485,-0.554,-0.7012,-0.7723,-0.7723,-0.848,-0.8808,0.2082,0.0,0.0,0.015,0.0,0.0,0.0,0.0,0.0,0.0,-0.4198,-0.4645,-0.5122,-0.5445,-0.5773,-0.6322,-0.6657,-0.6851,-0.6704,-0.6947,-0.7064,-0.6967,-0.7027,-0.7236,-0.7649,-0.7687,-0.785,-0.8242,-0.8263,-0.8253,-0.8282,-0.826,-0.8365,-0.8671,-0.8859,-0.9081,-0.9372,-0.9663,-0.977,-0.9683,-0.977,-0.9967,-1.0251,-1.0251,-1.0361,-1.0624,-1.0624,-1.0624,-1.0624,-1.0624,-1.0624,-1.0624,-1.0624,-1.0624,-1.0624,-1.0624,-1.0624,-1.0624,-1.0624,-1.0624,-1.0624,-1.0624,-1.0221,-0.9796,-0.9709,-0.9332,-0.8918,-0.8831,-0.8808,-0.8808,-0.8808,-0.8808,-0.859,-0.7883,-0.7723,-0.7509,-0.675,-0.6421,-0.6147,-0.5594,-0.5764,-0.5823,-0.5273,-0.5218,-0.5218,-0.5218,-0.4787,-0.4517,-0.4517,-0.4517,-0.4517,-0.4517,-0.4517,-0.4517,-0.4517,-0.4517,-0.4517,-0.4517,-0.4517,-0.4517,-0.4517,-0.4517,-0.4732,-0.5218,-0.5378,-0.6029,-0.7066,-0.7503,-0.794,-0.848,-0.8699,-0.8808,0.2353,0.0,0.0,0.0165,-0.2208,-0.4455,-0.5857,0.0,0.0,0.0,-0.4906,-0.5122,-0.5819,-0.6197,-0.6522,-0.6964,-0.7408,-0.762,-0.7473,-0.7652,-0.7725,-0.7688,-0.7748,-0.7892,-0.8239,-0.8276,-0.8431,-0.8768,-0.8808,-0.8808,-0.8808,-0.8808,-0.8808,-0.8808,-0.9233,-0.9329,-0.9068,-0.9632,-0.9725,-0.9335,-0.9452,-0.9768,-1.0168,-1.0005,-1.0043,-1.0278,-1.0334,-1.0451,-1.0624,-1.0624,-1.0624,-1.0624,-1.0624,-1.0624,-1.0624,-1.0624,-1.0624,-1.0624,-1.0624,-1.0624,-1.0604,-1.0424,-1.0147,-0.9813,-0.9579,-0.9262,-0.8955,-0.8841,-0.8808,-0.8808,-0.8808,-0.8808,-0.8699,-0.8262,-0.8156,-0.7993,-0.7563,-0.7235,-0.6907,-0.6468,-0.6473,-0.6477,-0.6036,-0.5925,-0.5925,-0.5925,-0.533,-0.4895,-0.4895,-0.4679,-0.4517,-0.4517,-0.4517,-0.4517,-0.4517,-0.4517,-0.4517,-0.4517,-0.4517,-0.4625,-0.4895,-0.4895,-0.5111,-0.5485,-0.6086,-0.6794,-0.7723,-0.7993,-0.8374,-0.8808,-0.8808,-0.8808,0.2677,0.0,0.0,-0.0182,-0.2232,0.0,-0.6163,-0.6145,-0.5703,-0.5597,-0.5594,-0.5817,-0.6586,-0.7235,-0.772,-0.778,-0.8371,-0.8808,-0.8808,-0.8808,-0.8808,-0.891,-0.8906,-0.8906,-0.8956,-0.8959,-0.8959,-0.8959,-0.8959,-0.8959,-0.8959,-0.8959,-0.8959,-0.8959,-0.9562,-0.9614,-0.9012,-0.9907,-0.9907,-0.8962,-0.9228,-0.9679,-1.0327,-0.984,-0.9659,-0.9699,-0.996,-1.0247,-1.0518,-1.0554,-1.0574,-1.0621,-1.0594,-1.0601,-1.0624,-1.0624,-1.0624,-1.0624,-1.0624,-1.0624,-1.0511,-1.0214,-1.0097,-0.997,-0.9356,-0.9167,-0.909,-0.8881,-0.8808,-0.8808,-0.8808,-0.8808,-0.8808,-0.8808,-0.8808,-0.8808,-0.8808,-0.8262,-0.7777,-0.7723,-0.7235,-0.6804,-0.6696,-0.6696,-0.6696,-0.6588,-0.6034,-0.5594,-0.5594,-0.5003,-0.457,-0.457,-0.4517,-0.4517,-0.4517,-0.4517,-0.4517,-0.4517,-0.457,-0.484,-0.5487,-0.5485,-0.5542,-0.5706,-0.7012,-0.7723,-0.7777,-0.848,-0.8808,-0.8808,-0.8808,-0.8808,0.0,0.154,0.0,0.0,-0.3278,-0.603,-0.6509,-0.691,-0.7069,-0.6475,-0.6367,-0.6586,-0.7343,-0.7613,-0.7886,-0.848,-0.8699,-0.8808,-0.8808,-0.8808,-0.9008,-0.9514,-0.9562,-0.9814,-1.0316,-1.0368,-1.0368,-1.0368,-1.0368,-1.0368,-1.0368,-1.0368,-1.0368,-1.0368,-1.0517,-1.0517,-1.0364,-1.0593,-1.0589,-1.0368,-1.0439,-1.0526,-1.0641,-0.973,-0.9462,-0.9686,-0.975,-0.994,-1.0194,-0.9967,-1.0144,-1.0601,-1.0301,-1.0354,-1.0624,-1.0624,-1.0624,-1.0624,-1.0624,-1.0624,-1.0511,-1.0214,-0.996,-0.9709,-0.9293,-0.9027,-0.8888,-0.8824,-0.8808,-0.8808,-0.8808,-0.8808,-0.8808,-0.8808,-0.8808,-0.8808,-0.8808,-0.8695,-0.8371,-0.783,-0.8049,-0.8156,-0.7563,-0.745,-0.7292,-0.6696,-0.6475,-0.6367,-0.6367,-0.5708,-0.5271,-0.5271,-0.4787,-0.4517,-0.4517,-0.4517,-0.4517,-0.4517,-0.5003,-0.5326,-0.5485,-0.5485,-0.6032,-0.723,-0.756,-0.7993,-0.8586,-0.8699,-0.8808,-0.8808,-0.8808,-0.8808,0.0,0.0,0.0,-0.3107,0.0,-0.7235,-0.756,-0.794,-0.8103,-0.7723,-0.7399,-0.7447,-0.8504,-0.8718,-0.8823,-0.9208,-0.926,-0.926,-0.926,-0.926,-0.9514,-1.0214,-1.0265,-1.0415,-1.0767,-1.0813,-1.0813,-1.0813,-1.0813,-1.0813,-1.0813,-1.0813,-1.0813,-1.0813,-1.1111,-1.1116,-1.0813,-1.1116,-1.1116,-1.0813,-1.0813,-1.0813,-1.0771,-1.0244,-0.9984,-0.9967,-0.9967,-0.9975,-0.9897,-0.9746,-0.9863,-1.014,-1.012,-1.0214,-1.0364,-1.0571,-1.0624,-1.0624,-1.0624,-1.0468,-1.0297,-1.0007,-0.9709,-0.9419,-0.9122,-0.8925,-0.8808,-0.8808,-0.8808,-0.8808,-0.8808,-0.8808,-0.8808,-0.8808,-0.8808,-0.8808,-0.8808,-0.8808,-0.8699,-0.8318,-0.8537,-0.8695,-0.8318,-0.8212,-0.8103,-0.7723,-0.7667,-0.7667,-0.7667,-0.6689,-0.5764,-0.5113,-0.4734,-0.4517,-0.4517,-0.4787,-0.5003,-0.5003,-0.5655,-0.6197,-0.6519,-0.6576,-0.6904,-0.7667,-0.8049,-0.8424,-0.8808,-0.8808,-0.8808,-0.8808,-0.8808,-0.8808,0.0,0.0,-0.2045,-0.5972,-0.7352,0.0,-0.8794,-0.8956,-0.9008,-0.911,-0.8573,-0.8405,-0.9603,-0.9913,-0.9965,-0.9965,-0.9965,-0.9965,-0.9965,-0.9965,-1.0214,-1.0914,-1.0965,-1.1019,-1.1174,-1.117,-1.117,-1.117,-1.117,-1.117,-1.117,-1.117,-1.117,-1.117,-1.1674,-1.172,-1.1174,-1.1724,-1.1724,-1.117,-1.117,-1.117,-1.117,-1.117,-1.0836,-1.0225,-1.0225,-0.9982,-0.9603,-0.9552,-0.9593,-0.9703,-0.989,-1.003,-1.014,-1.0337,-1.0438,-1.0537,-1.0487,-1.0247,-0.9993,-0.9699,-0.9439,-0.913,-0.8895,-0.8808,-0.8808,-0.8808,-0.8808,-0.8808,-0.8808,-0.8808,-0.8808,-0.8808,-0.8808,-0.8808,-0.8808,-0.8808,-0.8808,-0.8808,-0.8808,-0.8808,-0.8808,-0.8808,-0.8808,-0.8808,-0.8808,-0.8808,-0.8808,-0.7723,-0.6529,-0.5386,-0.4789,-0.4517,-0.4517,-0.5111,-0.5485,-0.5485,-0.6308,-0.7074,-0.767,-0.7833,-0.7937,-0.8034,-0.8685,-0.8956,-0.8956,-0.8956,-0.8906,-0.8808,-0.8808,-0.8808,0.0,0.0,-0.4708,0.0,-0.7111,-0.8037,0.0,0.0,-0.981,-1.0415,-1.0009,-0.9551,-0.9762,-1.0261,-1.0665,-1.0665,-1.0665,-1.0665,-1.0665,-1.0665,-1.0914,-1.1566,-1.1665,-1.1931,-1.2564,-1.2622,-1.2622,-1.2622,-1.2622,-1.2622,-1.2622,-1.2622,-1.2622,-1.2622,-1.272,-1.272,-1.2622,-1.272,-1.272,-1.2622,-1.2622,-1.2622,-1.2622,-1.2622,-1.1628,-0.9881,-0.9881,-0.9653,-0.9226,-0.9028,-0.9225,-0.9663,-0.9442,-0.9666,-1.009,-0.988,-0.996,-1.014,-0.9886,-0.9776,-0.9693,-0.9396,-0.9216,-0.913,-0.8895,-0.8808,-0.8808,-0.8808,-0.8808,-0.8808,-0.8808,-0.8808,-0.8808,-0.8808,-0.8808,-0.8808,-0.8808,-0.8808,-0.8808,-0.8808,-0.8808,-0.8808,-0.8808,-0.8808,-0.8808,-0.8808,-0.8808,-0.8808,-0.8808,-0.8646,-0.8427,-0.8262,-0.5984,-0.4517,-0.4517,-0.5111,-0.5485,-0.5485,-0.6794,-0.7616,-0.7723,-0.8318,-0.8949,-0.9499,-0.961,-0.9666,-0.9666,-0.9666,-0.9364,-0.8808,-0.8808,-0.8808,-0.0468,-0.2999,-0.5282,0.0,-0.7309,-0.8342,-0.9343,-0.9687,-1.0012,-1.0665,-1.0864,-1.0914,-1.0914,-1.1166,-1.1362,-1.1362,-1.1362,-1.1366,-1.1384,-1.1371,-1.162,-1.2344,-1.2711,-1.2914,-1.2876,-1.3195,-1.3238,-1.2929,-1.2881,-1.2881,-1.2881,-1.2881,-1.2881,-1.2881,-1.2881,-1.2881,-1.2881,-1.2881,-1.2881,-1.2881,-1.2881,-1.2881,-1.2881,-1.2881,-1.2157,-1.0914,-1.0914,-1.0601,-1.0064,-0.9974,-1.0087,-1.0297,-1.0339,-1.032,-1.0247,-1.0225,-1.0099,-0.9856,-0.9726,-0.9573,-0.9412,-0.923,-0.9077,-0.8971,-0.8848,-0.8808,-0.8808,-0.8808,-0.8808,-0.8808,-0.8808,-0.8808,-0.8808,-0.8808,-0.8808,-0.8808,-0.8808,-0.8808,-0.8808,-0.8808,-0.8808,-0.8808,-0.8808,-0.8808,-0.8808,-0.8808,-0.8808,-0.8808,-0.8808,-0.8808,-0.8808,-0.8808,-0.7664,-0.6578,-0.5771,-0.631,-0.674,-0.674,-0.772,-0.8318,-0.8318,-0.8998,-0.9662,-1.0368,-1.0012,-0.9814,-0.9814,-0.9814,-0.9462,-0.8808,-0.8808,-0.8808,0.0,0.0,-0.5162,-0.6127,-0.7372,-0.8612,0.0,-0.9906,-1.0362,-1.1157,-1.1729,-1.2124,-1.2302,-1.2169,-1.208,-1.208,-1.208,-1.2089,-1.2058,-1.2227,-1.2516,-1.305,-1.3642,-1.3831,-1.3387,-1.3784,-1.3826,-1.3382,-1.3339,-1.3291,-1.3157,-1.3152,-1.3065,-1.2881,-1.2881,-1.2881,-1.2881,-1.2881,-1.2881,-1.2881,-1.2881,-1.2881,-1.2881,-1.2881,-1.2613,-1.208,-1.1868,-1.1412,-1.0813,-1.0813,-1.0813,-1.0842,-1.1066,-1.0917,-1.0593,-1.0703,-1.0434,-1.0112,-1.0034,-0.9795,-0.9598,-0.9391,-0.924,-0.9008,-0.8857,-0.8808,-0.8808,-0.8808,-0.8808,-0.8808,-0.8808,-0.8808,-0.8808,-0.8808,-0.8808,-0.8808,-0.8808,-0.8808,-0.8808,-0.8808,-0.8808,-0.8808,-0.8808,-0.8808,-0.8808,-0.8808,-0.8808,-0.8808,-0.8808,-0.8808,-0.8808,-0.8808,-0.859,-0.7993,-0.6912,-0.7345,-0.7723,-0.7723,-0.8371,-0.8857,-0.9061,-0.951,-1.0214,-1.1065,-1.0564,-1.0214,-1.0064,-1.0064,-0.9614,-0.8808,-0.8808,-0.8808,0.0,-0.3101,0.0,-0.5518,-0.7028,0.0,0.0,-1.0724,-1.1429,-1.2536,-1.2827,-1.3007,-1.3584,-1.3233,-1.2827,-1.2827,-1.2827,-1.2827,-1.2832,-1.3319,-1.3721,-1.3726,-1.4288,-1.4658,-1.4617,-1.4612,-1.4658,-1.4617,-1.4617,-1.4381,-1.3774,-1.3726,-1.351,-1.2929,-1.2881,-1.2881,-1.2881,-1.2881,-1.2881,-1.2881,-1.2881,-1.2881,-1.2881,-1.2881,-1.2881,-1.2822,-1.208,-1.1412,-1.0813,-1.0813,-1.0813,-1.0813,-1.0838,-1.1005,-1.1219,-1.0892,-1.0986,-1.1186,-1.084,-1.0706,-1.0592,-0.9991,-0.9777,-0.9614,-0.9008,-0.8808,-0.8808,-0.8808,-0.8808,-0.8808,-0.8808,-0.8808,-0.8808,-0.8808,-0.8808,-0.8808,-0.8808,-0.8808,-0.8808,-0.8808,-0.8808,-0.8808,-0.8808,-0.8808,-0.8808,-0.8808,-0.8808,-0.8808,-0.8808,-0.8808,-0.8808,-0.8808,-0.7996,-0.7458,-0.7348,-0.7563,-0.7723,-0.7723,-0.8371,-0.9061,-0.9714,-0.9762,-1.0415,-1.1715,-1.1711,-1.1362,-1.0767,-1.0767,-1.0064,-0.8808,-0.8808,-0.8808,0.0,0.0,0.0,-0.5428,-0.6727,-0.8011,-0.9129,-1.0139,-1.1122,-1.2223,-1.2764,-1.3202,-1.3716,-1.3642,-1.36,-1.3978,-1.4071,-1.4071,-1.4071,-1.4242,-1.4376,-1.4376,-1.4915,-1.5147,-1.4749,-1.5056,-1.5101,-1.4749,-1.4703,-1.4612,-1.4381,-1.4376,-1.4102,-1.351,-1.3462,-1.3286,-1.2881,-1.2881,-1.2881,-1.2881,-1.2881,-1.2881,-1.2881,-1.2881,-1.2881,-1.2881,-1.2613,-1.2353,-1.2152,-1.2152,-1.2152,-1.2152,-1.2152,-1.1922,-1.1604,-1.1469,-1.1251,-1.0943,-1.0858,-1.0813,-1.0665,-1.0012,-0.9814,-0.9662,-0.9008,-0.8808,-0.8808,-0.8808,-0.8808,-0.8808,-0.8808,-0.8808,-0.8808,-0.8808,-0.8808,-0.8808,-0.8808,-0.8808,-0.8808,-0.8808,-0.8808,-0.8808,-0.8808,-0.8808,-0.8808,-0.8808,-0.8808,-0.8808,-0.8808,-0.8808,-0.8808,-0.8808,-0.8484,-0.8318,-0.8318,-0.8374,-0.8427,-0.8427,-0.8646,-0.911,-0.9762,-1.0214,-1.0864,-1.1765,-1.2241,-1.2143,-1.1462,-1.1015,-1.0312,-0.9409,-0.9008,-0.8808,-0.3639,0.0,0.0,0.0,-0.655,-0.7434,-0.8736,-0.9822,-1.0808,-1.1831,-1.2575,-1.3237,-1.3789,-1.4025,-1.4281,-1.463,-1.4703,-1.4703,-1.4703,-1.4875,-1.5017,-1.5017,-1.5549,-1.5732,-1.5332,-1.5688,-1.5738,-1.5338,-1.5287,-1.5197,-1.5011,-1.5017,-1.4641,-1.3821,-1.3595,-1.3329,-1.2881,-1.2881,-1.2881,-1.2881,-1.2881,-1.2881,-1.2881,-1.2881,-1.2881,-1.2881,-1.2881,-1.2881,-1.2881,-1.2881,-1.2881,-1.2881,-1.2881,-1.2613,-1.2187,-1.2187,-1.1886,-1.1484,-1.1484,-1.1484,-1.1334,-1.0415,-1.0167,-0.9965,-0.9057,-0.8808,-0.8808,-0.8808,-0.8808,-0.8808,-0.8808,-0.8808,-0.8808,-0.8808,-0.8808,-0.8808,-0.8808,-0.8808,-0.8808,-0.8808,-0.8808,-0.8808,-0.8808,-0.8808,-0.8808,-0.8808,-0.8808,-0.8959,-0.9409,-0.9462,-0.9361,-0.9159,-0.9162,-0.9061,-0.8808,-0.8808,-0.8808,-0.8808,-0.8808,-0.9211,-1.0115,-1.0564,-1.122,-1.2133,-1.2662,-1.2666,-1.2187,-1.1271,-1.0466,-0.9762,-0.911,-0.8808,0.0,0.0,0.0,0.0,0.0,-0.6994,-0.897,-0.9913,-1.0583,-1.1481,-1.2338,-1.3163,-1.3853,-1.4447,-1.4773,-1.4716,-1.4732,-1.4744,-1.4744,-1.5281,-1.5632,-1.5632,-1.6145,-1.6515,-1.6515,-1.6515,-1.6515,-1.6515,-1.6515,-1.6238,-1.5676,-1.5626,-1.5039,-1.3909,-1.3291,-1.2973,-1.2973,-1.2925,-1.2929,-1.2929,-1.2929,-1.2881,-1.2881,-1.2881,-1.2881,-1.2881,-1.2881,-1.2881,-1.2881,-1.2881,-1.2881,-1.2881,-1.2881,-1.2881,-1.2881,-1.2881,-1.2881,-1.2881,-1.2881,-1.2881,-1.2671,-1.1275,-1.0813,-1.0564,-0.9208,-0.8804,-0.8808,-0.8808,-0.8808,-0.8808,-0.8808,-0.8808,-0.8808,-0.8808,-0.8808,-0.8808,-0.8808,-0.8808,-0.8808,-0.8808,-0.8804,-0.8808,-0.8808,-0.8808,-0.8808,-0.8808,-0.8808,-0.9312,-1.0665,-1.0864,-1.0568,-0.9913,-0.9814,-0.9566,-0.8906,-0.8857,-0.8857,-0.8857,-0.8808,-0.9413,-1.0767,-1.0813,-1.1484,-1.2876,-1.2881,-1.2881,-1.2881,-1.1484,-1.0466,-0.9814,-0.911,-0.8808,-0.3754,0.0,0.0,0.0,0.0,0.0,-0.7572,-0.8303,-0.9167,-1.0685,-1.1563,-1.2456,-1.3739,-1.4471,-1.4863,-1.4837,-1.5514,-1.602,-1.602,-1.6151,-1.6238,-1.6238,-1.638,-1.6515,-1.6515,-1.6515,-1.6515,-1.6515,-1.6515,-1.6429,-1.6238,-1.582,-1.5448,-1.5129,-1.4514,-1.4201,-1.4201,-1.3784,-1.3552,-1.3552,-1.3109,-1.2881,-1.2881,-1.2881,-1.2881,-1.2881,-1.2881,-1.2881,-1.2881,-1.2881,-1.2881,-1.2881,-1.2881,-1.2881,-1.2881,-1.2881,-1.2881,-1.2881,-1.2881,-1.2881,-1.2774,-1.1828,-1.1216,-1.0665,-0.9762,-0.9159,-0.8808,-0.8808,-0.8808,-0.8808,-0.8808,-0.8808,-0.8808,-0.8808,-0.8808,-0.8808,-0.8808,-0.8808,-0.8959,-0.9413,-0.9106,-0.8808,-0.8808,-0.8808,-0.8808,-0.8808,-0.8808,-0.9673,-1.2004,-1.1742,-1.1229,-1.1028,-1.072,-1.0466,-1.0265,-1.0265,-1.0064,-0.9562,-0.9514,-0.9917,-1.0767,-1.0813,-1.1484,-1.2876,-1.2881,-1.2627,-1.2107,-1.1229,-1.0716,-1.0517,-0.9361,-0.8808,0.0,0.0,0.0,0.0,0.0,0.0,-0.7875,-0.8265,-0.8756,-1.0201,-1.1096,-1.1919,-1.2823,-1.3649,-1.4186,-1.4186,-1.5109,-1.5906,-1.6139,-1.6371,-1.6515,-1.6515,-1.6515,-1.6515,-1.6515,-1.6515,-1.6515,-1.6515,-1.6515,-1.6515,-1.6515,-1.5914,-1.5588,-1.5588,-1.5011,-1.4703,-1.4703,-1.4097,-1.3821,-1.3774,-1.32,-1.2881,-1.2881,-1.2881,-1.2881,-1.2881,-1.2881,-1.2881,-1.2881,-1.2881,-1.2881,-1.2881,-1.2881,-1.2881,-1.2881,-1.2881,-1.2881,-1.2881,-1.2881,-1.2881,-1.2769,-1.2026,-1.1562,-1.1065,-1.0064,-0.9514,-0.9211,-0.9211,-0.9211,-0.9159,-0.8857,-0.8808,-0.8808,-0.8808,-0.8808,-0.8808,-0.8808,-0.8808,-0.8906,-0.9312,-0.9514,-0.9462,-0.8906,-0.8808,-0.9162,-1.0336,-1.049,-1.1099,-1.2676,-1.2412,-1.2103,-1.2103,-1.1575,-1.1116,-1.0813,-1.0813,-1.0614,-1.0265,-1.0214,-1.0517,-1.1166,-1.1216,-1.1733,-1.2881,-1.2881,-1.2417,-1.1388,-1.0969,-1.0513,-0.9965,-0.9162,-0.8808,0.0,0.0,0.0,0.0,-0.7618,0.0,-0.8928,-0.8917,-0.8862,-0.9791,-1.0661,-1.1261,-1.1381,-1.2253,-1.2922,-1.2922,-1.3929,-1.4902,-1.5524,-1.6026,-1.6333,-1.6333,-1.6333,-1.6333,-1.6333,-1.6396,-1.6427,-1.6427,-1.6484,-1.6515,-1.6515,-1.6002,-1.572,-1.572,-1.5197,-1.4886,-1.4886,-1.4324,-1.4003,-1.3998,-1.3377,-1.3113,-1.3113,-1.3113,-1.3113,-1.3113,-1.3113,-1.3113,-1.3113,-1.3113,-1.3017,-1.2881,-1.2881,-1.2881,-1.2881,-1.2881,-1.2881,-1.2881,-1.2881,-1.2881,-1.2774,-1.2133,-1.1868,-1.1566,-1.0364,-0.9913,-0.9762,-0.9714,-0.9766,-0.9666,-0.8956,-0.8808,-0.8808,-0.8808,-0.8808,-0.8808,-0.8808,-0.8808,-0.8808,-0.8808,-0.9865,-1.0415,-0.9417,-0.9012,-0.9725,-1.2471,-1.2881,-1.2881,-1.2881,-1.2881,-1.2881,-1.2881,-1.229,-1.167,-1.107,-1.1019,-1.1019,-1.0914,-1.0914,-1.1166,-1.1765,-1.1814,-1.2133,-1.2881,-1.2827,-1.2152,-1.0914,-1.0864,-1.0111,-0.8808,-0.8808,-0.8808,0.0,0.0,-0.7931,-0.7976,-0.8355,0.0,-0.7946,-0.7938,-0.8184,-0.8588,-0.8823,-0.9209,-1.0069,-1.0772,-1.1188,-1.1188,-1.2497,-1.3898,-1.489,-1.5167,-1.5191,-1.5191,-1.5191,-1.5191,-1.5191,-1.5593,-1.5863,-1.5863,-1.6271,-1.6515,-1.6515,-1.638,-1.6331,-1.6331,-1.6201,-1.6151,-1.6151,-1.5549,-1.5264,-1.5225,-1.4652,-1.434,-1.434,-1.434,-1.434,-1.434,-1.434,-1.434,-1.434,-1.434,-1.38,-1.2881,-1.2881,-1.2881,-1.2881,-1.2881,-1.2881,-1.2881,-1.2881,-1.2881,-1.2881,-1.272,-1.229,-1.176,-1.1466,-1.0665,-0.9662,-0.9162,-0.9361,-0.9666,-0.8956,-0.8808,-0.8808,-0.8808,-0.8808,-0.8808,-0.8808,-0.8808,-0.8808,-0.8808,-0.9614,-1.0677,-1.1904,-1.0285,-0.9725,-1.2471,-1.2881,-1.2881,-1.2881,-1.2881,-1.2881,-1.2881,-1.2774,-1.2613,-1.2515,-1.2466,-1.225,-1.1665,-1.1616,-1.1665,-1.181,-1.1814,-1.2133,-1.2881,-1.2344,-1.1873,-1.1616,-1.1065,-1.0111,-0.8808,-0.8808,-0.8808,-0.8011,-0.8184,-0.8637,-0.8968,-0.9104,0.0,0.0,-0.8765,-0.8681,-0.9366,-0.9071,-0.8939,-0.9749,-1.0125,-1.0313,-1.0313,-1.1494,-1.2664,-1.3357,-1.4272,-1.4909,-1.4909,-1.4909,-1.4909,-1.4909,-1.5161,-1.5285,-1.5285,-1.5542,-1.5819,-1.6095,-1.6107,-1.6227,-1.6509,-1.6515,-1.6515,-1.6515,-1.5908,-1.5588,-1.5588,-1.4971,-1.4703,-1.4703,-1.4703,-1.4703,-1.4703,-1.4703,-1.4703,-1.4703,-1.4703,-1.434,-1.3747,-1.3467,-1.3329,-1.3329,-1.3017,-1.2881,-1.2881,-1.2881,-1.2881,-1.2881,-1.2881,-1.2662,-1.2295,-1.1918,-1.1312,-1.0665,-0.9965,-1.0265,-1.0568,-0.9562,-0.9413,-0.9361,-0.8906,-0.8808,-0.8808,-0.8808,-0.8808,-0.8808,-0.8808,-1.0281,-1.185,-1.2725,-1.176,-1.1301,-1.2676,-1.2881,-1.2881,-1.2881,-1.2881,-1.2881,-1.2881,-1.2881,-1.2881,-1.2881,-1.2881,-1.272,-1.2344,-1.2344,-1.2344,-1.2344,-1.2344,-1.2505,-1.2881,-1.2554,-1.1985,-1.1316,-1.0965,-1.0265,-0.9312,-0.8959,-0.8808,-0.9027,-0.9185,-0.9649,-1.0157,-1.0127,-1.0033,0.0,0.0,0.0,-1.0119,-0.9591,-0.9146,-0.9596,-0.9678,-0.9678,-0.9678,-1.0582,-1.1298,-1.1436,-1.2958,-1.4184,-1.4426,-1.4365,-1.4379,-1.4487,-1.4468,-1.4569,-1.489,-1.4714,-1.4846,-1.5505,-1.5637,-1.59,-1.6346,-1.6465,-1.6515,-1.6515,-1.6008,-1.577,-1.577,-1.5287,-1.5068,-1.5068,-1.5068,-1.5068,-1.5068,-1.5068,-1.5068,-1.5068,-1.5068,-1.5068,-1.4971,-1.4143,-1.3821,-1.3732,-1.3104,-1.2881,-1.2881,-1.2881,-1.2881,-1.2881,-1.2881,-1.2881,-1.2769,-1.2026,-1.1918,-1.1823,-1.1015,-1.1266,-1.1512,-1.0316,-0.9965,-0.9766,-0.8959,-0.8808,-0.8808,-0.8808,-0.9218,-0.9569,-0.9569,-1.1401,-1.2881,-1.2881,-1.2881,-1.2881,-1.2881,-1.2881,-1.2881,-1.2881,-1.2881,-1.2881,-1.2881,-1.2881,-1.2881,-1.2881,-1.2881,-1.2881,-1.2881,-1.2881,-1.2881,-1.2881,-1.2881,-1.2881,-1.2881,-1.2769,-1.2147,-1.1011,-1.0712,-1.0265,-0.9614,-0.9057,-0.8808,-1.1467,-1.1859,-1.2203,-1.0957,-1.1814,-1.235,-0.9854,0.0,-0.9939,-0.8812,0.0,-0.8775,-0.882,0.0,0.0,-0.8833,-0.9553,-0.995,-0.9495,-1.0447,-1.1567,-1.2635,-1.2525,-1.2531,-1.307,-1.287,-1.3295,-1.4802,-1.3967,-1.3873,-1.4947,-1.5429,-1.5724,-1.5787,-1.6264,-1.6515,-1.6515,-1.6429,-1.638,-1.638,-1.6337,-1.6293,-1.6293,-1.6293,-1.6293,-1.6293,-1.6293,-1.6293,-1.6293,-1.6293,-1.6293,-1.6151,-1.4457,-1.3821,-1.3732,-1.3104,-1.2881,-1.2881,-1.2881,-1.2881,-1.2881,-1.2881,-1.2881,-1.2769,-1.2026,-1.2241,-1.251,-1.1174,-1.1266,-1.1616,-1.0864,-0.9814,-0.8959,-0.8808,-0.8808,-0.8808,-0.8808,-1.069,-1.2421,-1.2421,-1.2676,-1.2881,-1.2881,-1.2881,-1.2881,-1.2881,-1.2881,-1.2881,-1.2881,-1.2881,-1.2881,-1.2881,-1.2881,-1.2881,-1.2881,-1.2881,-1.2881,-1.2881,-1.2881,-1.2881,-1.2881,-1.2881,-1.2881,-1.2881,-1.2241,-1.1868,-1.1665,-1.0513,-0.9566,-0.8906,-0.8857,-0.8808,-1.2497,-1.2596,-1.2714,-1.2038,-1.2211,-1.2238,-1.0913,-1.0637,-1.0554,-1.0091,0.0,0.0,0.0,0.0,0.0,0.0,-0.8759,-0.8951,-0.8885,-0.926,-1.0017,-1.1289,-1.1332,-1.1484,-1.2078,-1.1716,-1.1858,-1.2927,-1.2536,-1.2755,-1.386,-1.4444,-1.5073,-1.5674,-1.5919,-1.6195,-1.6515,-1.6515,-1.6515,-1.6515,-1.6515,-1.6515,-1.6515,-1.6515,-1.6515,-1.6515,-1.6515,-1.6515,-1.6515,-1.6515,-1.6515,-1.638,-1.5276,-1.4641,-1.4236,-1.3647,-1.3195,-1.2973,-1.3286,-1.3195,-1.2881,-1.2881,-1.2881,-1.2827,-1.2554,-1.2662,-1.2774,-1.2157,-1.2201,-1.2246,-1.1566,-1.1279,-1.0791,-0.9162,-0.9413,-0.9965,-0.9965,-1.1493,-1.2881,-1.2881,-1.3478,-1.3705,-1.3017,-1.2881,-1.2881,-1.2881,-1.2881,-1.2881,-1.2881,-1.2881,-1.2881,-1.2881,-1.2881,-1.2881,-1.2881,-1.2881,-1.2881,-1.2881,-1.2881,-1.2881,-1.2881,-1.2881,-1.2881,-1.2881,-1.2183,-1.1616,-1.1216,-1.0265,-0.9462,-0.8808,-0.8808,-0.8808,-1.3394,-1.3424,-1.3423,-1.2851,-1.262,-1.2367,-1.1647,-1.1381,-1.1256,-1.114,-1.0632,0.0,0.0,0.0,-0.8599,-0.844,0.0,-0.827,-0.8135,-0.824,-0.8824,-1.0122,-1.0353,-1.052,-1.0888,-1.0436,-1.0462,-1.128,-1.1124,-1.1578,-1.2897,-1.3534,-1.4305,-1.5216,-1.5542,-1.5888,-1.6289,-1.6446,-1.6515,-1.6515,-1.6515,-1.6515,-1.6515,-1.6515,-1.6515,-1.6515,-1.6515,-1.6515,-1.6515,-1.6515,-1.6515,-1.6429,-1.582,-1.532,-1.4875,-1.4283,-1.3642,-1.3195,-1.3642,-1.342,-1.2881,-1.2881,-1.2881,-1.2881,-1.2881,-1.2881,-1.2881,-1.2881,-1.2881,-1.2769,-1.2236,-1.2344,-1.2103,-1.0123,-1.0167,-1.0716,-1.0918,-1.2276,-1.3382,-1.3382,-1.4113,-1.4525,-1.3978,-1.3339,-1.2881,-1.2881,-1.3472,-1.3889,-1.3889,-1.3615,-1.3339,-1.3248,-1.3243,-1.3157,-1.2929,-1.2881,-1.2881,-1.2881,-1.2881,-1.2881,-1.2881,-1.2881,-1.2881,-1.2881,-1.2183,-1.1462,-1.0813,-1.0115,-0.9462,-0.8808,-0.8808,-0.8808,-1.4547,-1.4967,-1.5056,-1.3165,-1.3469,-1.3642,-1.1421,-1.1614,-1.2002,-1.109,-1.1391,-1.1624,-1.0983,-1.014,0.0,0.0,0.0,0.0,0.0,-0.7112,-0.7881,-0.9099,-0.9468,-0.9527,-0.9206,-0.8866,-0.9243,-1.0627,-0.995,-1.0341,-1.2316,-1.2929,-1.3521,-1.4116,-1.5174,-1.5706,-1.5724,-1.6252,-1.6515,-1.6515,-1.6515,-1.6515,-1.6515,-1.6515,-1.6515,-1.6515,-1.6515,-1.6515,-1.6515,-1.6515,-1.6515,-1.6429,-1.582,-1.5588,-1.5499,-1.488,-1.4288,-1.3774,-1.3774,-1.342,-1.2881,-1.2881,-1.2881,-1.2881,-1.2881,-1.2881,-1.2881,-1.2881,-1.2881,-1.2881,-1.2876,-1.2344,-1.1814,-1.1715,-1.0965,-1.0466,-1.1279,-1.312,-1.4658,-1.4658,-1.4658,-1.5068,-1.6201,-1.4433,-1.2881,-1.2881,-1.488,-1.638,-1.638,-1.5383,-1.4468,-1.4097,-1.4055,-1.3742,-1.2973,-1.2881,-1.2881,-1.2881,-1.2881,-1.2881,-1.2881,-1.2881,-1.2881,-1.2881,-1.2183,-1.1462,-1.0813,-1.0115,-0.9462,-0.8808,-0.8808,-0.8808,-1.6067,-1.6196,-1.614,-1.5026,-1.4655,-1.4238,-1.3033,-1.3176,-1.3156,-1.1733,-1.2163,-1.2426,-1.1131,-1.034,0.0,0.0,0.0,0.0,0.0,-0.6969,-0.7027,-0.7423,-0.8217,-0.8701,-0.8591,-0.811,-0.8419,-0.9866,-0.9701,-1.0146,-1.1538,-1.2503,-1.3165,-1.349,-1.4255,-1.4991,-1.5687,-1.5875,-1.6158,-1.6515,-1.6515,-1.6515,-1.6515,-1.6515,-1.6515,-1.6515,-1.6515,-1.6515,-1.6515,-1.6515,-1.6515,-1.6472,-1.6287,-1.6194,-1.6139,-1.5505,-1.4915,-1.4329,-1.3962,-1.342,-1.2881,-1.2881,-1.2881,-1.2881,-1.2881,-1.2881,-1.2881,-1.2881,-1.2881,-1.2881,-1.2881,-1.272,-1.2398,-1.1922,-1.1886,-1.195,-1.1724,-1.2986,-1.4097,-1.4097,-1.4732,-1.5371,-1.5662,-1.5478,-1.5293,-1.5293,-1.5976,-1.6293,-1.575,-1.535,-1.4937,-1.452,-1.452,-1.4247,-1.3552,-1.3152,-1.2881,-1.2881,-1.2881,-1.2881,-1.2881,-1.2881,-1.2662,-1.2183,-1.1471,-1.0817,-1.0167,-0.9462,-0.9008,-0.8808,-0.8808,-0.8808,-1.6789,-1.6892,-1.6782,-1.6,-1.5531,-1.5002,-1.3934,-1.4046,-1.3999,-1.2694,-1.2778,-1.2862,-1.2065,-1.1045,-1.0198,0.0,0.0,0.0,0.0,-0.6924,-0.6678,-0.6616,-0.7313,-0.7776,-0.7702,-0.7477,-0.7752,-0.874,-0.9081,-0.9738,-1.0847,-1.2025,-1.2791,-1.3079,-1.4027,-1.4775,-1.5325,-1.5911,-1.6292,-1.6417,-1.6657,-1.6674,-1.6515,-1.6515,-1.6515,-1.6515,-1.6515,-1.6515,-1.6515,-1.6515,-1.6515,-1.6515,-1.6515,-1.6515,-1.6466,-1.6051,-1.5416,-1.4612,-1.4003,-1.342,-1.2881,-1.2881,-1.2881,-1.2881,-1.2881,-1.2881,-1.2881,-1.2881,-1.2881,-1.2881,-1.2881,-1.2881,-1.2769,-1.2295,-1.2559,-1.2774,-1.229,-1.3188,-1.4102,-1.4102,-1.509,-1.587,-1.5756,-1.6163,-1.6515,-1.6515,-1.6515,-1.6293,-1.58,-1.5712,-1.5573,-1.5062,-1.5011,-1.4692,-1.3862,-1.3238,-1.2881,-1.2881,-1.2881,-1.2881,-1.2881,-1.2881,-1.2666,-1.2183,-1.1521,-1.0817,-1.0163,-0.9462,-0.9008,-0.8808,-0.8808,-0.8808]},{"header":{"parameterUnit":"m.s-1","parameterCategory":1,"la1":30.6,"la2":29.2853,"lo1":-89.7004,"lo2":-87.6739,"dy":0.0162,"dx":0.0183,"nx":112,"ny":82,"refTime":"2025-07-05T12:00:00:Z","depth":0,"parameterNumber":3,"parameterNumberName":"V-component_of_WINDS"},"data":[0.0,0.0,0.0,0.0,0.0,0.0,0.0,0.0,0.0,0.0,0.0,0.0,0.0,0.0,0.0,0.0,0.0,0.0,0.0,0.0,0.0,0.0,0.0,0.0,0.0,0.0,0.0,0.0,0.0,0.0,0.0,0.0,0.0,0.0,0.0,0.0,0.0,0.0,0.0,0.0,0.0,0.0,0.0,0.0,0.0,0.0,0.0,0.0,0.0,0.0,0.0,0.0,0.0,0.0,0.0,0.0,0.0,0.0,0.0,0.0,0.0,0.0,0.0,0.0,0.0,0.0,0.0,0.0,0.0,0.0,0.0,0.0,0.0,0.0,0.0,0.0,0.0,0.0,0.0,0.0,0.0,0.0,0.0,0.0,0.0,0.0,0.0,0.0,0.0,0.0,-0.5453,-0.6077,-0.5771,-0.5473,-0.5392,-0.4991,-0.4849,-0.503,0.0,0.0,0.0,0.0,0.0,0.0,0.0,0.0,0.0,0.0,0.0,0.0,0.0,0.0,0.0,0.0,0.0,0.0,0.0,0.0,0.0,0.0,0.0,0.0,0.0,0.0,0.0,0.0,0.0,0.0,0.0,0.0,0.0,0.0,0.0,0.0,0.0,0.0,0.0,0.0,0.0,0.0,0.0,0.0,0.0,0.0,0.0,0.0,0.0,0.0,0.0,0.0,0.0,0.0,0.0,0.0,0.0,0.0,0.0,0.0,0.0,0.0,0.0,0.0,0.0,0.0,0.0,0.0,0.0,0.0,0.0,0.0,0.0,0.0,0.0,0.0,0.0,0.0,0.0,0.0,0.0,0.0,0.0,0.0,0.0,0.0,0.0,0.0,0.0,0.0,0.0,0.0,0.0,0.0,0.0,0.0,0.0,0.0,0.0,0.0,0.0,0.0,0.0,0.0,-0.5761,-0.5928,-0.567,-0.531,-0.4868,-0.4952,-0.4971,-0.477,0.0,0.0,0.0,0.0,0.0,0.0,0.0,0.0,0.0,0.0,0.0,0.0,0.0,0.0,0.0,0.0,0.0,0.0,0.0,0.0,0.0,0.0,0.0,0.0,0.0,0.0,0.0,0.0,0.0,0.0,0.0,0.0,0.0,0.0,0.0,0.0,0.0,0.0,0.0,0.0,0.0,0.0,0.0,0.0,0.0,0.0,0.0,0.0,0.0,0.0,0.0,0.0,0.0,0.0,0.0,0.0,0.0,0.0,0.0,0.0,0.0,0.0,0.0,0.0,0.0,0.0,0.0,0.0,0.0,0.0,0.0,0.0,0.0,0.0,0.0,0.0,0.0,0.0,0.0,0.0,0.0,0.0,0.0,0.0,0.0,0.0,0.0,0.0,0.0,0.0,0.0,0.0,0.0,0.0,0.0,0.0,0.0,0.0,0.0,0.0,0.0,0.0,0.0,-0.6098,-0.6251,-0.6283,-0.6141,-0.5856,-0.5387,-0.5422,-0.532,-0.4946,-0.4966,0.0,0.0,0.0,0.0,0.0,0.0,0.0,0.0,0.0,0.0,0.0,0.0,0.0,0.0,0.0,0.0,0.0,0.0,0.0,0.0,0.0,0.0,0.0,0.0,0.0,0.0,0.0,0.0,0.0,0.0,0.0,0.0,0.0,0.0,0.0,0.0,0.0,0.0,0.0,0.0,0.0,0.0,0.0,0.0,0.0,0.0,0.0,0.0,0.0,0.0,0.0,0.0,0.0,0.0,0.0,0.0,0.0,0.0,0.0,0.0,0.0,0.0,0.0,0.0,0.0,0.0,0.0,0.0,0.0,0.0,0.0,0.0,0.0,0.0,0.0,0.0,0.0,0.0,0.0,0.0,0.0,0.0,0.0,0.0,0.0,0.0,0.0,0.0,0.0,0.0,0.0,0.0,0.0,0.0,0.0,0.0,0.0,0.0,0.0,0.0,0.0,0.0,-0.6599,-0.6632,-0.6703,-0.6661,-0.6473,-0.6026,-0.5951,-0.5691,-0.5137,-0.4837,0.0,0.0,0.0,0.0,0.0,0.0,0.0,0.0,0.0,0.0,0.0,0.0,0.0,0.0,0.0,0.0,0.0,0.0,0.0,0.0,0.0,0.0,0.0,0.0,0.0,0.0,0.0,0.0,0.0,0.0,0.0,0.0,0.0,0.0,0.0,0.0,0.0,0.0,0.0,0.0,0.0,0.0,0.0,0.0,0.0,0.0,0.0,0.0,0.0,0.0,0.0,0.0,0.0,0.0,0.0,0.0,0.0,0.0,0.0,0.0,0.0,0.0,0.0,0.0,0.0,0.0,0.0,0.0,0.0,0.0,0.0,0.0,0.0,0.0,0.0,0.0,0.0,0.0,0.0,0.0,0.0,0.0,0.0,0.0,0.0,0.0,0.0,0.0,0.0,0.0,0.0,0.0,0.0,0.0,0.0,0.0,0.0,0.0,0.0,0.0,0.0,0.0,-0.6599,-0.6722,-0.7037,-0.7063,-0.6837,-0.6316,-0.626,-0.5941,-0.5156,-0.4454,0.0,0.0,0.0,0.0,0.0,0.0,0.0,0.0,0.0,0.0,0.0,0.0,0.0,0.0,0.0,0.0,0.0,0.0,0.0,0.0,0.0,0.0,0.0,0.0,0.0,0.0,0.0,0.0,0.0,0.0,0.0,0.0,0.0,0.0,0.0,0.0,0.0,0.0,0.0,0.0,0.0,0.0,0.0,0.0,0.0,0.0,0.0,0.0,0.0,0.0,0.0,0.0,0.0,0.0,0.0,0.0,0.0,0.0,0.0,0.0,0.0,0.0,0.0,0.0,0.0,0.0,0.0,0.0,0.0,0.0,0.0,0.0,0.0,0.0,0.0,0.0,0.0,0.0,0.0,0.0,0.0,0.0,0.0,0.0,0.0,0.0,0.0,0.0,0.0,0.0,0.0,0.0,0.0,0.0,0.0,0.0,0.0,0.0,0.0,0.0,0.0,0.0,-0.6599,-0.677,-0.7241,-0.7208,-0.72,-0.7303,-0.6724,-0.6213,-0.5868,0.0,0.0,0.0,0.0,0.0,0.0,0.0,0.0,0.0,0.0,0.0,0.0,0.0,0.0,0.0,0.0,0.0,0.0,0.0,0.0,0.0,0.0,0.0,0.0,0.0,0.0,0.0,0.0,0.0,0.0,0.0,0.0,0.0,0.0,0.0,0.0,0.0,0.0,0.0,0.0,0.0,0.0,0.0,0.0,0.0,0.0,0.0,0.0,0.0,0.0,0.0,0.0,0.0,0.0,0.0,0.0,0.0,0.0,0.0,0.0,0.0,0.0,0.0,0.0,0.0,0.0,0.0,0.0,0.0,0.0,0.0,0.0,0.0,0.0,0.0,0.0,0.0,0.0,0.0,0.0,0.0,0.0,0.0,0.0,0.0,0.0,0.0,0.0,0.0,0.0,0.0,0.0,0.0,0.0,0.0,0.0,0.0,0.0,0.0,0.0,0.0,0.0,-0.6455,-0.6755,-0.7075,-0.7632,-0.7762,-0.7859,-0.7986,-0.7223,-0.6565,-0.617,0.0,0.0,0.0,0.0,0.0,0.0,0.0,0.0,0.0,0.0,0.0,0.0,0.0,0.0,0.0,0.0,0.0,0.0,0.0,0.0,0.0,0.0,0.0,0.0,0.0,0.0,0.0,0.0,0.0,0.0,0.0,0.0,0.0,0.0,0.0,0.0,0.0,0.0,0.0,0.0,0.0,0.0,0.0,0.0,0.0,0.0,0.0,0.0,0.0,0.0,0.0,0.0,0.0,0.0,0.0,0.0,0.0,0.0,0.0,0.0,0.0,0.0,0.0,0.0,0.0,0.0,0.0,0.0,0.0,0.0,0.0,0.0,0.0,0.0,0.0,0.0,0.0,0.0,0.0,0.0,0.0,0.0,0.0,0.0,0.0,0.0,0.0,0.0,0.0,0.0,0.0,0.0,0.0,0.0,0.0,0.0,0.0,0.0,0.0,0.0,0.0,0.0,-0.6455,-0.7063,-0.7625,-0.8242,-0.8769,-0.8857,-0.8256,-0.7764,-0.7008,0.0,0.0,0.0,0.0,0.0,0.0,0.0,0.0,0.0,0.0,0.0,0.0,0.0,0.0,0.0,0.0,0.0,0.0,0.0,0.0,0.0,0.0,0.0,0.0,0.0,0.0,0.0,0.0,0.0,0.0,0.0,0.0,0.0,0.0,0.0,0.0,0.0,0.0,0.0,0.0,0.0,0.0,0.0,0.0,0.0,0.0,0.0,0.0,0.0,0.0,0.0,0.0,0.0,0.0,0.0,0.0,0.0,0.0,0.0,0.0,0.0,0.0,0.0,0.0,0.0,0.0,0.0,0.0,0.0,0.0,0.0,0.0,0.0,0.0,0.0,0.0,0.0,0.0,0.0,0.0,0.0,0.0,0.0,0.0,0.0,0.0,0.0,0.0,0.0,0.0,0.0,0.0,0.0,0.0,0.0,0.0,0.0,0.0,0.0,0.0,0.0,0.0,0.0,-0.6455,-0.7063,-0.7625,-0.8242,-0.8521,-0.8869,-0.937,-0.8139,-0.7327,-0.7291,0.0,0.0,0.0,0.0,0.0,0.0,0.0,0.0,0.0,0.0,0.0,0.0,0.0,0.0,0.0,0.0,0.0,0.0,0.0,0.0,0.0,0.0,0.0,0.0,0.0,0.0,0.0,0.0,0.0,0.0,0.0,0.0,0.0,0.0,0.0,0.0,0.0,0.0,0.0,0.0,0.0,0.0,0.0,0.0,0.0,0.0,0.0,0.0,0.0,0.0,0.0,0.0,0.0,0.0,0.0,0.0,0.0,0.0,0.0,0.0,0.0,0.0,0.0,0.0,0.0,0.0,0.0,0.0,0.0,0.0,0.0,0.0,0.0,0.0,0.0,0.0,0.0,0.0,0.0,0.0,0.0,0.0,0.0,0.0,0.0,0.0,0.0,0.0,0.0,0.0,0.0,0.0,0.0,0.0,0.0,0.0,0.0,0.0,0.0,0.0,0.0,0.0,-0.6755,-0.7477,-0.8061,-0.8572,-0.8881,-0.9247,-0.9661,-0.837,-0.7548,-0.7542,0.0,0.0,0.0,0.0,0.0,0.0,0.0,0.0,0.0,0.0,0.0,0.0,0.0,0.0,0.0,0.0,0.0,0.0,0.0,0.0,0.0,0.0,0.0,0.0,0.0,0.0,0.0,0.0,0.0,0.0,0.0,0.0,0.0,0.0,0.0,0.0,0.0,0.0,0.0,0.0,0.0,0.0,0.0,0.0,0.0,0.0,0.0,0.0,0.0,0.0,0.0,0.0,0.0,0.0,0.0,0.0,0.0,0.0,0.0,0.0,0.0,0.0,0.0,0.0,0.0,0.0,0.0,0.0,0.0,0.0,0.0,0.0,0.0,0.0,0.0,0.0,0.0,0.0,0.0,0.0,0.0,0.0,0.0,0.0,0.0,0.0,0.0,0.0,0.0,0.0,0.0,0.0,0.0,0.0,0.0,0.0,0.0,0.0,0.0,0.0,0.0,0.0,-0.7231,-0.8093,-0.8716,-0.9067,-0.9573,-0.977,-0.9481,-0.8556,-0.7747,-0.7145,0.0,0.0,0.0,0.0,0.0,0.0,0.0,0.0,0.0,0.0,0.0,0.0,0.0,0.0,0.0,0.0,0.0,0.0,0.0,0.0,0.0,0.0,0.0,0.0,0.0,0.0,0.0,0.0,0.0,0.0,0.0,0.0,0.0,0.0,0.0,0.0,0.0,0.0,0.0,0.0,0.0,0.0,0.0,0.0,0.0,0.0,0.0,0.0,0.0,0.0,0.0,0.0,0.0,0.0,0.0,0.0,0.0,0.0,0.0,0.0,-0.7665,-0.7285,0.0,0.0,0.0,0.0,0.0,0.0,0.0,0.0,0.0,0.0,0.0,0.0,0.0,0.0,0.0,0.0,0.0,0.0,0.0,0.0,0.0,0.0,0.0,0.0,0.0,0.0,0.0,0.0,0.0,0.0,0.0,0.0,0.0,0.0,0.0,0.0,0.0,0.0,0.0,0.0,-0.7244,-0.7955,-0.8559,-0.9044,-0.9573,-0.9873,-0.9796,-0.9211,-0.8611,-0.8055,-0.6844,0.0,0.0,0.0,0.0,0.0,0.0,0.0,0.0,0.0,0.0,0.0,0.0,0.0,0.0,0.0,0.0,0.0,0.0,0.0,0.0,0.0,0.0,0.0,0.0,0.0,0.0,0.0,0.0,0.0,0.0,0.0,0.0,0.0,0.0,0.0,0.0,0.0,0.0,0.0,0.0,0.0,0.0,0.0,0.0,0.0,0.0,0.0,0.0,0.0,0.0,0.0,0.0,0.0,0.0,0.0,0.0,0.0,0.0,0.0,-0.9174,-0.8568,0.0,0.0,0.0,0.0,0.0,0.0,0.0,0.0,0.0,0.0,0.0,0.0,0.0,0.0,0.0,0.0,0.0,0.0,0.0,0.0,0.0,0.0,0.0,0.0,0.0,0.0,0.0,0.0,0.0,0.0,0.0,0.0,0.0,0.0,0.0,0.0,0.0,0.0,0.0,0.0,-0.7708,-0.8416,-0.8991,-0.944,-0.973,-0.9899,-0.9899,-0.9397,-0.8917,-0.8529,-0.7475,0.0,0.0,0.0,0.0,0.0,0.0,0.0,0.0,0.0,0.0,0.0,0.0,0.0,0.0,0.0,0.0,0.0,0.0,0.0,0.0,0.0,0.0,0.0,0.0,0.0,0.0,0.0,0.0,0.0,0.0,0.0,0.0,0.0,0.0,0.0,0.0,0.0,0.0,0.0,0.0,0.0,0.0,0.0,0.0,0.0,0.0,0.0,0.0,0.0,0.0,0.0,0.0,0.0,-1.1629,-1.1983,-1.2453,-1.2453,-1.271,-1.3038,-1.1486,-1.0597,-1.0184,-0.9309,0.0,0.0,0.0,0.0,0.0,0.0,0.0,0.0,0.0,0.0,0.0,0.0,0.0,0.0,0.0,0.0,0.0,0.0,0.0,0.0,0.0,0.0,-0.9041,-0.8953,-0.915,-0.8982,-0.7707,0.0,0.0,0.0,0.0,0.0,0.0,0.0,0.0,0.0,0.0,0.0,-0.8314,-0.8966,-0.9493,-0.9868,-0.9899,-0.9899,-0.9899,-0.9485,-0.9105,-0.8784,-0.8094,-0.7277,0.0,0.0,0.0,0.0,0.0,0.0,0.0,0.0,0.0,0.0,0.0,0.0,0.0,0.0,0.0,0.0,0.0,0.0,0.0,0.0,0.0,0.0,0.0,0.0,0.0,0.0,0.0,0.0,0.0,0.0,0.0,0.0,-0.5337,-0.6096,0.0,0.0,0.0,0.0,0.0,0.0,0.0,0.0,0.0,0.0,0.0,0.0,0.0,-1.1113,-1.1187,-1.3153,-1.4181,-1.4272,-1.5265,-1.5778,-1.5861,-1.5861,-1.5903,-1.5937,-1.5689,0.0,-1.2013,-1.1422,0.0,0.0,0.0,0.0,0.0,0.0,0.0,0.0,0.0,0.0,0.0,0.0,0.0,0.0,0.0,0.0,0.0,0.0,0.0,0.0,0.0,0.0,-1.1263,-1.0776,-1.0475,-1.0261,-1.0063,-0.8732,-0.7729,-0.8216,-0.8011,-0.7437,0.0,0.0,0.0,0.0,0.0,0.0,-0.8855,-0.908,-0.9338,-0.9843,-0.9899,-0.9899,-0.9899,-0.9836,-0.9585,-0.9078,-0.8945,-0.8377,-0.7279,-0.7243,0.0,0.0,0.0,0.0,0.0,0.0,0.0,0.0,0.0,0.0,0.0,0.0,0.0,0.0,0.0,0.0,0.0,0.0,0.0,0.0,0.0,0.0,0.0,0.0,0.0,0.0,0.0,0.0,0.0,-0.5588,-0.6374,-0.7108,-0.7257,-0.7418,0.0,0.0,0.0,0.0,0.0,0.0,0.0,0.0,0.0,-1.2191,-1.3248,-1.3797,-1.3797,-1.5105,-1.5927,-1.6201,-1.6703,-1.7098,-1.7387,-1.7387,-1.7387,-1.7387,-1.7387,-1.6376,-1.4634,-1.3779,-1.2884,-1.2046,0.0,0.0,0.0,0.0,-1.1363,-1.1009,-1.2269,-1.2322,-1.1824,-1.1936,0.0,0.0,0.0,0.0,0.0,0.0,0.0,-1.1418,-1.1869,-1.2125,-1.2301,-1.2304,-1.1964,-1.1622,-1.1622,-1.0729,-0.9792,-0.9391,-0.9431,-0.9056,-0.7575,-0.7907,0.0,0.0,0.0,-0.8995,-0.9479,-1.012,-1.0485,-1.037,-1.0364,-1.0238,-0.9924,-0.9899,-0.9792,-0.9554,-0.945,-0.9069,-0.838,-0.7919,-0.7421,0.0,0.0,0.0,0.0,0.0,0.0,0.0,0.0,0.0,0.0,0.0,0.0,0.0,0.0,0.0,0.0,0.0,0.0,0.0,0.0,0.0,0.0,0.0,0.0,0.0,0.0,0.0,0.0,-0.6658,-0.7329,-0.8028,-0.8333,-0.86,0.0,0.0,0.0,0.0,0.0,0.0,-1.2066,-1.2821,-1.3673,-1.4612,-1.5679,-1.6238,-1.6238,-1.6964,-1.757,-1.8078,-1.7946,-1.8195,-1.866,-1.8566,-1.8496,-1.8496,-1.8496,-1.796,-1.7009,-1.5755,-1.4589,-1.3615,-1.3207,-1.2793,-1.2529,-1.3352,-1.3202,-1.2801,-1.4362,-1.443,-1.3852,-1.3833,-1.349,-1.2856,-1.187,0.0,0.0,0.0,0.0,-1.2586,-1.3432,-1.3456,-1.332,-1.3659,-1.341,-1.3125,-1.3125,-1.2817,-1.2109,-1.0723,-1.076,-1.0503,-0.8894,-0.9101,0.0,-0.8383,-0.9304,-1.0163,-1.0313,-1.1067,-1.1425,-1.0991,-1.0919,-1.0715,-1.0157,-1.0113,-1.005,-0.9912,-0.9834,-0.9582,-0.9107,-0.8516,-0.8039,-0.7706,0.0,0.0,0.0,0.0,0.0,0.0,0.0,0.0,0.0,0.0,0.0,0.0,0.0,0.0,0.0,0.0,0.0,0.0,0.0,0.0,0.0,0.0,0.0,0.0,0.0,0.0,0.0,0.0,0.0,-0.8616,-0.9509,0.0,0.0,0.0,0.0,-1.1203,-1.1864,-1.2716,-1.3832,-1.4871,-1.5713,-1.6355,-1.7398,-1.7963,-1.7963,-1.902,-1.9748,-2.015,-1.9743,-1.9793,-2.017,-1.9795,-1.9603,-1.9603,-1.9603,-1.931,-1.8672,-1.7068,-1.5763,-1.4821,-1.4796,-1.4771,-1.4752,-1.4809,-1.477,-1.4758,-1.4878,-1.4852,-1.4908,-1.5411,-1.5197,-1.4676,-1.4097,-1.3515,0.0,0.0,-1.3959,-1.4092,-1.4683,-1.4789,-1.4789,-1.482,-1.4808,-1.4789,-1.4789,-1.4764,-1.4268,-1.2603,-1.1896,-1.1345,-1.0681,0.0,-1.0593,-1.0537,-1.0606,-1.0885,-1.1431,-1.155,-1.1581,-1.1544,-1.1544,-1.1312,-1.0706,-1.0656,-1.0431,-0.9937,-1.0184,-0.9973,-0.9143,-0.9066,-0.8518,-0.7451,-0.7038,0.0,0.0,0.0,0.0,0.0,0.0,0.0,0.0,0.0,0.0,0.0,0.0,0.0,0.0,0.0,0.0,0.0,0.0,0.0,0.0,0.0,0.0,0.0,0.0,0.0,0.0,0.0,0.0,-1.149,-1.2525,0.0,-1.3295,-1.3145,-1.3341,-1.4042,-1.4315,-1.5094,-1.6563,-1.7236,-1.8018,-1.8936,-1.9337,-1.9672,-1.9968,-2.007,-2.0296,-2.0764,-2.0288,-2.0322,-2.0723,-2.0296,-2.0261,-2.0506,-2.0235,-1.9793,-1.928,-1.8394,-1.7618,-1.6968,-1.6968,-1.6968,-1.6968,-1.6968,-1.6738,-1.6425,-1.6425,-1.6241,-1.5906,-1.5743,-1.5561,-1.5298,-1.479,-1.4727,-1.4858,-1.5053,-1.5367,-1.5687,-1.5881,-1.5668,-1.5398,-1.5398,-1.5167,-1.4909,-1.4909,-1.4909,-1.4739,-1.4105,-1.3581,-1.2801,-1.15,-1.1575,-1.1563,-1.0806,-1.1307,-1.1883,-1.209,-1.2429,-1.251,-1.2153,-1.2115,-1.1889,-1.133,-1.0906,-1.0612,-1.0418,-1.0602,-1.05,-0.9967,-0.9444,-0.9022,-0.8697,-0.7521,-0.6838,0.0,0.0,0.0,0.0,0.0,0.0,0.0,0.0,0.0,0.0,0.0,0.0,0.0,0.0,0.0,0.0,0.0,0.0,0.0,0.0,0.0,0.0,0.0,0.0,0.0,-1.128,-1.2713,-1.3838,-1.5056,-1.5788,-1.5742,-1.5782,-1.6075,-1.6779,-1.6863,-1.7438,-1.8735,-1.922,-1.9803,-2.0501,-2.0558,-2.069,-2.0999,-2.069,-2.0748,-2.1213,-2.0748,-2.0781,-2.1189,-2.0748,-2.0723,-2.0991,-2.0682,-2.0366,-2.0043,-1.9735,-1.9397,-1.9008,-1.8359,-1.8099,-1.8099,-1.8099,-1.786,-1.7544,-1.7347,-1.6951,-1.6459,-1.6095,-1.5975,-1.59,-1.5542,-1.5687,-1.5975,-1.5975,-1.6239,-1.6515,-1.6515,-1.6245,-1.5975,-1.5975,-1.5693,-1.5423,-1.5423,-1.5423,-1.5373,-1.5224,-1.4746,-1.3959,-1.2675,-1.2724,-1.2649,-1.1683,-1.2177,-1.2659,-1.2659,-1.2979,-1.306,-1.2724,-1.2659,-1.2467,-1.1914,-1.1343,-1.0935,-1.0706,-1.0823,-1.0739,-1.0403,-0.9688,-0.9294,-0.9301,-0.8002,-0.7425,-0.7601,0.0,0.0,0.0,0.0,0.0,0.0,0.0,0.0,0.0,0.0,0.0,0.0,0.0,0.0,0.0,0.0,0.0,0.0,0.0,0.0,0.0,0.0,0.0,-1.1567,-1.2941,-1.4342,-1.5477,-1.6962,-1.7861,-1.7713,-1.7835,-1.8283,-1.92,-1.9365,-1.9694,-2.0208,-2.0716,-2.1031,-2.1031,-2.1031,-2.1031,-2.1031,-2.1031,-2.1213,-2.162,-2.1213,-2.1221,-2.162,-2.1213,-2.1031,-2.1031,-2.1031,-2.1031,-2.1031,-2.0999,-2.0999,-2.0813,-1.8896,-1.8171,-1.8171,-1.8131,-1.8138,-1.8059,-1.751,-1.6993,-1.6558,-1.6515,-1.6515,-1.6515,-1.6515,-1.6515,-1.6515,-1.6515,-1.6558,-1.6558,-1.6558,-1.6558,-1.6515,-1.6515,-1.6515,-1.6515,-1.6515,-1.6515,-1.6358,-1.5825,-1.5291,-1.4777,-1.4211,-1.411,-1.3934,-1.3329,-1.3235,0.0,-1.3229,-1.321,-1.3198,-1.3198,-1.3198,-1.2985,-1.2485,-1.1914,-1.1343,-1.0756,-1.0836,-1.0763,-1.0427,-0.9835,-0.9399,-0.9121,-0.8531,-0.8307,-0.8429,0.0,0.0,0.0,0.0,0.0,0.0,0.0,0.0,0.0,0.0,0.0,0.0,0.0,0.0,0.0,0.0,0.0,0.0,0.0,0.0,0.0,-1.2205,-1.3186,-1.3186,-1.5264,-1.7151,-1.82,-1.939,-2.0107,-2.0065,-2.0107,-2.0226,-2.0496,-2.0552,-2.0631,-2.0782,-2.1205,-2.1438,-2.1438,-2.1438,-2.1606,-2.1953,-2.1606,-2.1667,-2.2098,-2.1637,-2.1667,-2.2106,-2.1637,-2.1606,-2.1915,-2.1568,-2.1438,-2.1399,-2.1118,-2.0999,-2.0926,-2.0043,-1.9692,-1.9656,-1.9376,-1.9006,-1.8612,-1.8059,-1.7787,-1.7585,-1.7188,-1.707,-1.6993,-1.6637,-1.6752,-1.707,-1.707,-1.7347,-1.7666,-1.7666,-1.7388,-1.707,-1.707,-1.707,-1.6951,-1.6595,-1.6795,-1.6905,-1.6399,-1.617,-1.5762,-1.4846,-1.4689,-1.4632,-1.4444,-1.4116,-1.3858,-1.3858,-1.3477,-1.3198,-1.3198,-1.3198,-1.3142,-1.2985,-1.2315,-1.1747,-1.1391,-1.1247,-1.1057,-1.0763,-1.0413,-0.9961,-0.9411,-0.9225,-0.9169,0.0,0.0,0.0,0.0,0.0,0.0,0.0,0.0,0.0,0.0,0.0,0.0,0.0,0.0,0.0,0.0,0.0,0.0,0.0,0.0,0.0,0.0,-1.4615,-1.5772,-1.6502,-1.7856,-1.9154,-2.0192,-2.1047,-2.1554,-2.1554,-2.1554,-2.1554,-2.1554,-2.1554,-2.1554,-2.1554,-2.1773,-2.189,-2.189,-2.189,-2.2032,-2.231,-2.2032,-2.2032,-2.2291,-2.2342,-2.2484,-2.2758,-2.2484,-2.2513,-2.2721,-2.2166,-2.189,-2.1869,-2.1645,-2.1554,-2.1485,0.0,0.0,0.0,0.0,-1.9892,-1.9382,-1.8903,-1.8569,-1.8299,-1.7814,-1.7626,-1.7585,-1.7271,-1.7388,-1.7626,-1.7626,-1.786,-1.8099,-1.8099,-1.786,-1.7626,-1.7626,-1.7626,-1.7544,-1.7229,-1.7229,-1.7188,-1.6915,-1.6637,0.0,-1.5674,-1.5367,-1.5174,-1.4941,-1.4639,-1.4349,-1.4116,-1.3802,-1.349,-1.3229,-1.3198,-1.3198,-1.3198,-1.2736,0.0,0.0,0.0,-1.1468,-1.0885,-1.0704,0.0,0.0,0.0,0.0,0.0,-1.0503,0.0,0.0,-0.8862,-0.8791,0.0,0.0,0.0,0.0,0.0,0.0,0.0,0.0,0.0,0.0,0.0,0.0,0.0,0.0,0.0,0.0,-1.7189,-1.8776,-2.0448,-2.0504,-2.0714,-2.1661,-2.215,-2.2396,-2.2396,-2.2396,-2.2396,-2.2349,-2.2349,-2.2321,-2.231,-2.231,0.0,0.0,0.0,-2.2395,-2.231,-2.2386,-2.2415,-2.2349,-2.3095,-2.3472,-2.3522,-2.3607,-2.3641,-2.3607,-2.2866,-2.2552,-2.2515,-2.243,-2.2396,-2.2296,-2.1407,-2.1031,-2.0999,-2.0999,-2.0716,-2.0255,-1.9873,0.0,0.0,-1.8461,-1.8288,-1.8249,-1.8131,-1.8138,-1.8178,-1.8178,-1.8256,-1.8359,-1.8359,-1.8352,-1.8313,-1.8281,-1.8288,-1.8249,-1.8131,-1.7787,-1.747,-1.7388,-1.6951,-1.6595,-1.6595,-1.6155,-1.5624,-1.5134,-1.5041,-1.4828,-1.433,-1.416,-1.3896,-1.3342,-1.3235,0.0,-1.3198,-1.3097,-1.305,-1.2988,-1.264,-1.2037,-1.1232,-1.118,-1.118,-1.118,-1.1474,-1.1886,-1.2443,-1.2705,-1.2874,-1.2883,-1.072,-1.0301,0.0,0.0,0.0,0.0,0.0,0.0,0.0,0.0,0.0,0.0,0.0,0.0,0.0,0.0,0.0,-1.8023,-1.9261,-2.0425,-2.1614,-2.2246,-2.2654,-2.2863,-2.2972,-2.3023,-2.3023,-2.3023,-2.2915,-2.2634,-2.2617,-2.2519,-2.2302,-2.231,-2.231,-2.231,-2.2877,-2.2902,-2.2319,-2.2894,-2.2986,-2.2625,-2.349,0.0,-2.4225,-2.4883,-2.5165,-2.5121,-2.4338,-2.3979,-2.3935,-2.3302,-2.3023,-2.2931,-2.1903,-2.1283,-2.0999,-2.0999,-2.0918,-2.0838,-2.0748,-2.0667,-2.0444,-1.9606,-1.9317,-1.917,-1.8359,-1.8419,0.0,-1.8734,-1.9303,-1.9861,-1.9861,-1.9823,-1.9723,-1.9375,-1.9317,-1.9096,-1.8288,-1.8373,-1.8458,-1.802,-1.751,-1.7153,-1.7153,-1.6705,-1.6321,-1.6214,-1.5819,-1.5498,-1.5392,-1.4639,-1.4047,-1.394,-1.3496,-1.3198,-1.3198,-1.3334,-1.3283,-1.3026,-1.3074,-1.3265,-1.3621,-1.3628,-1.3628,-1.3628,-1.3933,-1.404,-1.3899,-1.4227,-1.4379,-1.4376,-1.333,-1.2973,0.0,0.0,0.0,0.0,0.0,0.0,0.0,0.0,0.0,0.0,0.0,-1.6936,-1.788,0.0,-1.9234,-2.0569,-2.1211,-2.1876,-2.2784,-2.3227,-2.3392,-2.3221,-2.3189,-2.3189,-2.3189,-2.3189,-2.3117,-2.2963,-2.3323,-2.3492,-2.3354,-2.3736,-2.3963,-2.3963,-2.43,-2.4309,-2.3971,-2.3917,-2.399,-2.4172,-2.4568,-2.505,-2.5604,-2.602,-2.6189,-2.6118,-2.493,-2.4391,-2.4337,-2.354,-2.3189,-2.3141,-2.2617,-2.2281,-2.2071,-2.1918,-2.1849,-2.1841,-2.1845,-2.1858,-2.1811,-2.1505,-2.1163,-2.0771,-2.0245,-2.0033,-1.9946,-1.9946,-2.0299,-2.0657,-2.0657,-2.0626,-2.0536,-2.0351,-2.0291,-2.0104,-1.9346,-1.9222,-1.9089,-1.8605,-1.8059,-1.7706,-1.7706,-1.7271,-1.6795,-1.6558,-1.6277,-1.6007,-1.5724,-1.5216,-1.4771,-1.4449,-1.414,-1.3919,-1.3861,-1.4132,-1.4267,-1.4169,-1.4261,-1.4376,-1.4551,-1.4558,-1.4558,-1.4558,-1.4975,-1.5038,-1.4754,-1.5189,-1.5577,-1.5941,-1.556,-1.5189,0.0,0.0,0.0,0.0,0.0,0.0,0.0,0.0,-1.6597,-1.8297,-1.9111,-1.9827,-2.0811,-2.1522,-2.2127,-2.2678,-2.2854,-2.314,-2.3726,-2.3864,-2.3806,-2.3538,-2.3433,-2.3392,-2.3392,-2.3392,-2.3369,-2.3291,-2.4052,-2.4473,-2.4391,-2.5168,-2.561,-2.561,-2.5745,-2.5754,-2.561,-2.5116,-2.5141,-2.5704,-2.5796,-2.6249,-2.7004,-2.7156,-2.7227,-2.7138,-2.5531,-2.4736,-2.4531,-2.3722,-2.3392,-2.3392,-2.3392,-2.3392,-2.3346,-2.2939,-2.2893,-2.3016,-2.3038,-2.3134,-2.329,-2.3482,-2.3137,-2.263,-2.2354,-2.1843,-2.1295,-2.1197,-2.1204,-2.122,-2.1289,-2.1328,-2.1313,-2.122,-2.1173,-2.0959,-2.0408,-2.0016,-1.9585,-1.9148,-1.8612,-1.8256,-1.8256,-1.782,-1.7271,-1.6759,-1.6558,-1.6395,-1.6065,-1.5913,-1.5691,-1.5269,-1.5099,-1.4999,-1.4818,-1.5177,-1.5411,-1.5492,-1.5557,-1.5492,-1.5285,-1.5292,-1.5314,-1.5364,-1.5848,-1.5985,-1.5754,-1.6269,-1.6804,-1.7397,-1.7397,-1.6976,-1.4449,-1.5648,-1.6903,-1.7958,-1.7886,-1.841,0.0,0.0,-2.1268,-2.2768,-2.3151,-2.3203,-2.3157,-2.3374,-2.3499,-2.3415,-2.3792,-2.4133,-2.4222,-2.4498,-2.4657,-2.4632,-2.4302,-2.4094,-2.4094,-2.4094,-2.3967,-2.3671,-2.4388,-2.4705,-2.4424,-2.5168,-2.561,-2.561,-2.6286,-2.6313,-2.5619,-2.6215,-2.6355,-2.6056,-2.6751,-2.7311,-2.7716,-2.8424,-2.8744,-2.8653,-2.7044,-2.5951,-2.5228,-2.4423,-2.4094,-2.4094,-2.4094,-2.4094,-2.4016,-2.3369,-2.3592,-2.4217,-2.4222,-2.4689,-2.5227,-2.491,-2.4737,-2.4473,-2.3328,-2.2755,-2.2402,-2.1923,-2.1891,-2.2051,-2.2347,-2.247,-2.2406,-2.206,-2.1757,-2.1298,-2.0475,-2.028,-2.0108,-1.9703,-1.9169,-1.881,-1.881,-1.8373,-1.782,-1.7312,-1.6795,-1.6655,-1.7068,-1.6691,-1.6544,-1.6978,-1.6589,-1.62,-1.5956,-1.6241,-1.636,-1.6196,-1.647,-1.6756,-1.7001,-1.7025,-1.7118,-1.7381,-1.7727,-1.7873,-1.7783,-1.8132,-1.8354,-1.8434,-1.8434,-1.8251,-1.8639,-1.9318,-1.9735,0.0,-2.1328,-2.1578,-2.3143,-2.3092,-2.301,-2.415,-2.4384,-2.436,-2.4276,-2.4327,-2.4351,-2.4276,-2.4437,-2.4601,-2.4601,-2.4708,-2.4804,-2.4804,-2.4654,-2.4502,-2.4393,-2.4275,-2.4343,-2.4664,-2.5427,-2.604,-2.6363,-2.7142,-2.7577,-2.7577,-2.7888,-2.7915,-2.7577,-2.7551,-2.7638,-2.7803,-2.7925,-2.8251,-2.8755,-2.9197,-2.9076,-2.8429,-2.7632,-2.6576,-2.5375,-2.5045,-2.4887,-2.4887,-2.4887,-2.5172,-2.5434,-2.4004,-2.4001,-2.4721,-2.4955,-2.5587,-2.6331,-2.6593,-2.6406,-2.5851,-2.4802,-2.4127,-2.3552,-2.285,-2.2694,-2.2779,-2.2919,-2.297,-2.2939,-2.2788,-2.2486,-2.2085,-2.1491,-2.1187,-2.087,-2.0193,-1.9872,-1.9643,-1.9398,-1.893,-1.8496,-1.8256,-1.7787,-1.751,-1.7747,-1.757,-1.7472,-1.7651,-1.7607,-1.755,-1.7453,-1.7775,-1.8045,-1.8159,-1.7904,-1.7939,-1.8447,-1.8048,-1.7941,-1.8217,-1.851,-1.8567,-1.8397,-1.8698,-1.9076,-1.9523,-1.9523,-1.9718,-2.1139,-2.1756,0.0,-2.3519,-2.4075,-2.4263,-2.4263,-2.4312,-2.4474,-2.486,-2.4932,-2.4919,-2.4869,-2.4896,-2.4919,-2.486,-2.4896,-2.4932,-2.4932,-2.4932,-2.4932,-2.4932,-2.4883,-2.479,-2.4642,-2.4469,-2.469,-2.5505,-2.631,-2.7124,-2.7959,-2.8762,-2.9185,-2.9185,-2.9185,-2.9185,-2.9185,-2.8762,-2.8762,-2.9197,-2.8951,-2.9051,-2.9484,-2.9634,-2.9286,-2.8531,-2.8151,-2.7329,-2.6246,-2.6024,-2.5922,-2.5922,-2.5922,-2.6273,-2.6624,-2.5202,-2.5111,-2.5746,-2.6036,-2.6697,-2.7485,-2.8022,-2.7852,-2.7207,-2.6126,-2.537,-2.4676,-2.3732,-2.3414,-2.3369,-2.3446,-2.3423,-2.3346,-2.3346,-2.3069,-2.2703,-2.2207,-2.1915,-2.1488,-2.0674,-2.0483,-2.039,-2.0112,-1.973,-1.9484,-1.9484,-1.9133,-1.8797,-1.8545,-1.876,-1.887,-1.8767,-1.8983,-1.9083,-1.8983,-1.9337,-1.9629,-1.9781,-1.9361,-1.9305,-1.9752,-1.9258,-1.9093,-1.9366,-1.957,-1.9606,-1.9479,-1.9677,-2.0064,-2.0644,-2.0644,-2.1071,0.0,0.0,-2.3895,-2.4594,-2.5487,-2.6219,-2.6219,-2.6368,-2.6274,-2.5447,-2.5283,-2.5223,-2.5022,-2.5152,-2.5214,-2.5032,-2.5161,-2.5283,-2.5283,-2.5283,-2.5283,-2.5283,-2.5109,-2.4989,-2.4998,-2.485,-2.5129,-2.5921,-2.6726,-2.7556,-2.8438,-2.9234,-2.9678,-2.9678,-2.9678,-2.9678,-2.9678,-2.9668,-2.9668,-2.9678,-2.9668,-2.9668,-2.9696,-2.9696,-2.9677,-2.9611,-2.8817,-2.8457,-2.8353,-2.7566,-2.7236,-2.7236,-2.7236,-2.7255,-2.7274,-2.7217,-2.7401,-2.7714,-2.7719,-2.8269,-2.8934,-2.8952,-2.8943,-2.8631,-2.7037,-2.6313,-2.5783,-2.4513,-2.3946,-2.3765,-2.4094,-2.3926,-2.3683,-2.3683,-2.3414,-2.2979,-2.2254,-2.2088,-2.1869,-2.1134,-2.0967,-2.0959,-2.0959,-2.0967,-2.0934,-2.0934,-2.0926,-2.0567,-1.9685,-2.0359,-2.0918,-2.0902,-2.0919,-2.0779,-2.0459,-2.0734,-2.079,-2.0491,-2.0762,-2.0936,-2.0936,-2.0939,-2.1032,-2.1304,-2.1323,-2.1443,-2.1712,-2.1712,-2.173,-2.1749,-2.1749,-2.2189,-2.3838,0.0,-2.5254,-2.6645,-2.7238,-2.7487,-2.7487,-2.7099,-2.665,-2.6352,-2.5842,-2.5399,-2.529,-2.5321,-2.5331,-2.5223,-2.5264,-2.5293,-2.5293,-2.5293,-2.5293,-2.5293,-2.5244,-2.5203,-2.5203,-2.4962,-2.5361,-2.6695,-2.7053,-2.7808,-2.9214,-2.9553,-2.9696,-2.9696,-2.9696,-2.9696,-2.9696,-2.9829,-2.9829,-2.9687,-2.9838,-2.9988,-3.0165,-2.9988,-2.9908,-2.9874,-2.947,-2.8995,-2.8482,-2.8209,-2.8111,-2.8111,-2.8111,-2.8426,-2.89,-2.89,-2.8967,-2.8989,-2.8456,-2.8793,-2.9466,-2.9466,-2.9466,-2.9157,-2.7493,-2.6915,-2.6515,-2.5024,-2.4524,-2.4456,-2.4575,-2.4515,-2.442,-2.442,-2.4063,-2.365,-2.3404,-2.3077,-2.2669,-2.2167,-2.1885,-2.1635,-2.1387,-2.1157,-2.0999,-2.0999,-2.0999,-2.0894,-2.0567,-2.0781,-2.0999,-2.0999,-2.145,-2.1674,-2.1558,-2.21,-2.2413,-2.2309,-2.1932,-2.1806,-2.1992,-2.1529,-2.1425,-2.1789,-2.1798,-2.191,-2.2131,-2.2131,-2.2367,-2.2796,-2.2796,-2.3232,-2.5512,-2.5931,-2.5992,-2.8047,-2.8554,-2.8488,-2.8172,-2.7678,-2.7097,-2.6459,-2.5638,-2.512,-2.5389,-2.5186,-2.5062,-2.5322,-2.537,-2.5486,-2.5794,-2.5842,-2.5948,-2.6256,-2.6294,-2.6294,-2.6275,-2.6085,-2.639,-2.739,-2.7723,-2.8479,-2.9886,-2.9952,-2.9952,-2.9952,-2.9952,-2.9952,-2.9952,-3.008,-3.008,-2.9952,-3.0114,-3.026,-3.0388,-3.026,-3.0178,-3.0136,-3.0007,-2.9663,-2.9183,-2.9183,-2.9183,-2.9183,-2.9183,-2.9492,-2.9952,-2.9952,-2.9952,-2.9861,-2.9167,-2.9261,-2.9696,-2.9696,-2.9696,-2.9385,-2.7714,-2.7204,-2.6865,-2.5257,-2.4804,-2.4804,-2.4804,-2.4804,-2.4804,-2.4804,-2.4542,-2.4227,-2.4044,-2.3731,-2.3343,-2.2893,-2.2626,-2.2399,-2.2148,-2.1922,-2.1803,-2.1803,-2.1803,-2.1635,-2.1267,-2.1428,-2.1622,-2.1622,-2.2144,-2.2539,-2.2669,-2.31,-2.3414,-2.3544,-2.3099,-2.2955,-2.3205,-2.2758,-2.2651,-2.2993,-2.3007,-2.3065,-2.3184,-2.3184,-2.3408,-2.3839,-2.3839,-2.4111,-2.5431,-2.5677,-2.6317,-2.8855,-2.944,-2.9187,-2.8368,-2.8104,-2.7555,-2.5858,-2.4826,-2.4442,0.0,0.0,-2.4457,-2.5236,-2.5438,-2.5803,-2.668,-2.6805,-2.7123,0.0,0.0,0.0,-2.8009,-2.8097,-2.8116,-2.7989,-2.868,-2.9486,-3.035,-3.0408,-3.0408,-3.0408,-3.0408,-3.0408,-3.0408,-3.0408,-3.0408,-3.0408,-3.0477,-3.0467,-3.0402,-3.0477,-3.0477,-3.0408,-3.0408,-3.0408,-3.0408,-3.0408,-3.0408,-3.0408,-3.0408,-3.0408,-3.0408,-3.0408,-3.0408,-3.0352,-2.9899,-2.9731,-2.9731,-2.9731,-2.9731,-2.9436,-2.7793,-2.7274,-2.6905,-2.5333,-2.4861,-2.4832,-2.4832,-2.4832,-2.4832,-2.4832,-2.4818,-2.4669,-2.4155,-2.4044,-2.3891,-2.337,-2.325,-2.3236,-2.3189,-2.3189,-2.3189,-2.3189,-2.3189,-2.2821,-2.1795,-2.2288,-2.2721,-2.2721,-2.3021,-2.3337,-2.3662,-2.3735,-2.3887,-2.419,-2.4237,-2.4321,-2.4504,-2.4521,-2.461,-2.4823,-2.4823,-2.4837,-2.4842,-2.4842,-2.4832,-2.4823,-2.4823,-2.4818,-2.7175,-2.8063,-2.8872,-3.0191,-3.0033,-2.9486,-2.927,-2.8214,-2.6975,-2.5873,-2.4965,-2.4016,0.0,0.0,-2.4131,-2.3716,-2.4684,0.0,-2.6679,-2.6802,0.0,-2.7999,0.0,-2.809,-2.8081,-2.8683,-2.9052,-2.9017,-2.9206,-2.9672,-3.0506,-3.0554,-3.0554,-3.0554,-3.0554,-3.0554,-3.0554,-3.0554,-3.0554,-3.0554,-3.0573,-3.0568,-3.0552,-3.0567,-3.0573,-3.0554,-3.0554,-3.0554,-3.0554,-3.0554,-3.0554,-3.0554,-3.0554,-3.0554,-3.0554,-3.0554,-3.0554,-3.0533,-3.0407,-3.0314,-3.0215,-3.0215,-3.0215,-3.0014,-2.8935,-2.8198,-2.7498,-2.6435,-2.5669,-2.5171,-2.5171,-2.5171,-2.5171,-2.5171,-2.5051,-2.4914,-2.4774,-2.4676,-2.4567,-2.4426,-2.4072,-2.3668,-2.3273,-2.3189,-2.3189,-2.3189,-2.3189,-2.3085,-2.283,-2.2963,-2.3061,-2.3061,-2.3369,-2.3619,-2.3692,-2.4079,-2.4338,-2.4418,-2.4568,-2.467,-2.4725,-2.4718,-2.4842,-2.5092,-2.5102,-2.517,-2.5324,-2.5324,-2.5238,-2.5093,-2.5045,-2.5013,-2.8398,-2.9228,-2.9814,-3.0684,-3.0244,-2.9404,-2.8633,-2.7412,-2.5967,-2.4355,-2.3643,0.0,-2.1523,-2.2666,-2.3651,0.0,0.0,0.0,-2.7276,-2.7461,-2.7923,0.0,-2.933,0.0,-2.925,-2.9742,-3.0028,-2.997,-2.9944,-3.0122,-3.0578,-3.0597,-3.0597,-3.0597,-3.0597,-3.0597,-3.0597,-3.0597,-3.0597,-3.0597,-3.0632,-3.0627,-3.0606,-3.063,-3.0632,-3.0597,-3.0597,-3.0597,-3.0597,-3.0597,-3.0597,-3.0597,-3.0597,-3.0597,-3.0597,-3.0597,-3.0597,-3.0597,-3.0597,-3.0549,-3.0492,-3.0483,-3.0496,-3.0333,-2.9494,-2.8927,-2.8302,-2.7044,-2.6332,-2.5871,-2.5495,-2.539,-2.538,-2.5341,-2.5262,-2.5149,-2.5032,-2.4946,-2.4873,-2.4809,-2.4496,-2.4109,-2.3817,-2.3708,-2.3674,-2.3764,-2.3776,-2.3799,-2.3891,-2.3689,-2.355,-2.355,-2.3928,-2.4183,-2.4183,-2.4465,-2.4635,-2.4636,-2.4748,-2.4841,-2.4973,-2.4983,-2.5091,-2.533,-2.5321,-2.5389,-2.5507,-2.5507,-2.5432,-2.5325,-2.5287,-2.5282,-2.916,-2.9678,-2.9932,-3.0566,-3.0068,-2.8975,-2.7217,-2.6074,-2.4678,-2.2227,0.0,-2.1289,-2.042,-2.168,-2.2871,-2.293,0.0,-2.6143,-2.7881,-2.8232,-2.8896,-3.0527,-3.083,-3.0846,-3.0738,-3.0829,-3.0859,-3.0739,-3.0671,-3.0643,-3.0643,-3.0643,-3.0643,-3.0643,-3.0643,-3.0643,-3.0643,-3.0643,-3.0643,-3.0643,-3.07,-3.0699,-3.0638,-3.0704,-3.0691,-3.0643,-3.0643,-3.0643,-3.0643,-3.0643,-3.0643,-3.0643,-3.0643,-3.0643,-3.0643,-3.0643,-3.0642,-3.0645,-3.0645,-3.0645,-3.0639,-3.0617,-3.0601,-3.0476,-2.977,-2.948,-2.9058,-2.7432,-2.6882,-2.6602,-2.5735,-2.5495,-2.5485,-2.5427,-2.5409,-2.535,-2.5117,-2.5044,-2.4996,-2.4846,-2.4691,-2.4559,-2.4536,-2.4393,-2.4348,-2.4502,-2.4536,-2.4591,-2.4775,-2.4383,-2.4109,-2.4109,-2.4526,-2.4799,-2.4803,-2.4813,-2.4841,-2.4854,-2.4891,-2.5007,-2.5238,-2.5256,-2.5339,-2.5521,-2.5535,-2.5535,-2.5535,-2.5535,-2.5535,-2.5535,-2.5525,-2.551,-2.9316,-3.0127,-3.0537,-2.9971,-2.917,-2.8066,-2.6318,-2.4736,0.0,0.0,-2.0254,-1.9482,-1.8613,-1.9883,-2.1279,-2.1992,-2.3516,-2.5234,-2.6982,-2.7851,-2.8682,0.0,-3.0459,-3.0889,-3.0867,-3.0891,-3.0896,-3.087,-3.0847,-3.0846,-3.0846,-3.0846,-3.0846,-3.0846,-3.0846,-3.0846,-3.0846,-3.0846,-3.0846,-3.0846,-3.0858,-3.086,-3.0846,-3.0859,-3.0859,-3.0846,-3.0846,-3.0846,-3.0846,-3.0846,-3.0846,-3.0846,-3.0846,-3.0846,-3.0846,-3.0846,-3.0846,-3.0849,-3.0849,-3.0849,-3.0823,-3.0646,-3.06,-3.0571,-3.0428,-2.9933,-2.9188,-2.8159,-2.7355,-2.66,-2.5729,-2.55,-2.55,-2.549,-2.5482,-2.5447,-2.535,-2.5292,-2.5183,-2.5008,-2.4937,-2.4881,-2.4766,-2.4716,-2.4716,-2.4746,-2.4746,-2.476,-2.4804,-2.4727,-2.4663,-2.4663,-2.4741,-2.4807,-2.4798,-2.4946,-2.5063,-2.512,-2.5284,-2.5416,-2.5531,-2.5533,-2.5572,-2.566,-2.5671,-2.5671,-2.5671,-2.5671,-2.5671,-2.5661,-2.5612,-2.5581,-2.9238,-2.9912,-3.0117,-2.9697,-2.8935,-2.7725,-2.5518,0.0,0.0,0.0,-1.8906,-1.8223,-1.6894,-1.8809,0.0,-2.0547,-2.2363,-2.4365,-2.6084,-2.707,-2.8115,-2.9443,-3.0371,-3.0898,-3.0898,-3.0898,-3.0899,-3.09,-3.0901,-3.0898,-3.0898,-3.0898,-3.0898,-3.0898,-3.0898,-3.0898,-3.0898,-3.0898,-3.0898,-3.0898,-3.0898,-3.0898,-3.0898,-3.0898,-3.0898,-3.0898,-3.0898,-3.0898,-3.0898,-3.0898,-3.0898,-3.0898,-3.0898,-3.0898,-3.0898,-3.0898,-3.0903,-3.0901,-3.0901,-3.0901,-3.0882,-3.0794,-3.0764,-3.0764,-3.0764,-3.0167,-2.9318,-2.8447,-2.7581,-2.6698,-2.5827,-2.5603,-2.5603,-2.5564,-2.5527,-2.548,-2.5409,-2.537,-2.5312,-2.5183,-2.5067,-2.4986,-2.4917,-2.4842,-2.4823,-2.4891,-2.4894,-2.4952,-2.5084,-2.5106,-2.5079,-2.4972,-2.5082,-2.5158,-2.5165,-2.5243,-2.5341,-2.5397,-2.5504,-2.5583,-2.5649,-2.5654,-2.5671,-2.5703,-2.5703,-2.5703,-2.5703,-2.5703,-2.5703,-2.5703,-2.5674,-2.5654,-2.8896,-2.9316,-2.9277,-2.9092,-2.8525,-2.7344,-2.4736,-2.2842,0.0,0.0,-1.7695,-1.708,-1.5898,0.0,-1.9717,0.0,-2.1465,-2.3506,-2.5185,-2.6494,-2.7793,0.0,-3.0264,0.0,-3.0898,-3.0898,-3.0898,-3.0898,-3.0898,-3.0898,-3.0898,-3.0898,-3.0898,-3.0898,-3.0898,-3.0898,-3.0898,-3.0898,-3.0898,-3.0898,-3.0898,-3.0898,-3.0898,-3.0898,-3.0898,-3.0898,-3.0898,-3.0898,-3.0898,-3.0898,-3.0898,-3.0898,-3.0898,-3.0898,-3.0898,-3.0898,-3.0898,-3.0898,-3.0898,-3.0898,-3.0898,-3.0898,-3.0898,-3.0898,-3.0898,-3.042,-2.9658,-2.8603,-2.7812,-2.7031,-2.5967,-2.5703,-2.5693,-2.5635,-2.557,-2.5512,-2.5452,-2.5435,-2.5409,-2.5341,-2.5221,-2.5105,-2.5096,-2.4997,-2.4968,-2.5044,-2.5086,-2.5158,-2.537,-2.5428,-2.5387,-2.522,-2.5379,-2.5504,-2.5515,-2.5515,-2.5557,-2.5623,-2.5615,-2.5653,-2.5703,-2.5703,-2.5703,-2.5703,-2.5703,-2.5703,-2.5703,-2.5703,-2.5703,-2.5703,-2.5703,-2.5703,-2.8164,-2.8418,-2.8232,-2.7441,-2.7178,-2.6445,-2.3887,0.0,0.0,-1.8379,-1.6738,-1.583,-1.6465,-1.6836,0.0,0.0,0.0,-2.2598,-2.4277,-2.6631,-2.8242,-2.8398,0.0,0.0,-3.0898,-3.0898,-3.0898,-3.0898,-3.0898,-3.0898,-3.0898,-3.0898,-3.0898,-3.0898,-3.0898,-3.0898,-3.0898,-3.0898,-3.0898,-3.0898,-3.0898,-3.0898,-3.0898,-3.0898,-3.0898,-3.0898,-3.0898,-3.0898,-3.0898,-3.0898,-3.0898,-3.0898,-3.0898,-3.0898,-3.0898,-3.0898,-3.0898,-3.0898,-3.0898,-3.0898,-3.0898,-3.0898,-3.0898,-3.0898,-3.0898,-3.084,-3.043,-2.8769,-2.8242,-2.7803,-2.6133,-2.5703,-2.5703,-2.5693,-2.5644,-2.5595,-2.5583,-2.5525,-2.5495,-2.5486,-2.5466,-2.5427,-2.537,-2.535,-2.533,-2.5273,-2.5322,-2.537,-2.5399,-2.5515,-2.5572,-2.5562,-2.5519,-2.5522,-2.5592,-2.5582,-2.5621,-2.5687,-2.569,-2.5692,-2.5703,-2.5703,-2.5703,-2.5703,-2.5703,-2.5703,-2.5703,-2.5703,-2.5703,-2.5703,-2.5703,-2.5703,-2.7139,-2.7488,-2.7376,-2.7076,-2.6973,-2.6152,-2.3105,0.0,-1.9961,-1.7686,-1.625,-1.5508,-1.585,-1.6348,-1.7207,0.0,0.0,0.0,-2.2646,-2.4658,-2.6338,-2.7393,-2.9062,-3.0322,-3.085,-3.0898,-3.0898,-3.0898,-3.0898,-3.0898,-3.0898,-3.0898,-3.0898,-3.0898,-3.0898,-3.0898,-3.0898,-3.0898,-3.0898,-3.0898,-3.0898,-3.0898,-3.0898,-3.0898,-3.0898,-3.0898,-3.0898,-3.0898,-3.0898,-3.0898,-3.0898,-3.0898,-3.0898,-3.0898,-3.0898,-3.0898,-3.0898,-3.0898,-3.0898,-3.0898,-3.0898,-3.0898,-3.0898,-3.0898,-3.0898,-3.0527,-2.9863,-2.8643,-2.792,-2.7236,-2.6016,-2.5703,-2.5703,-2.5703,-2.5684,-2.5654,-2.5605,-2.5578,-2.5551,-2.5512,-2.5502,-2.5492,-2.5463,-2.5461,-2.5457,-2.5418,-2.5438,-2.5476,-2.5524,-2.5572,-2.562,-2.5659,-2.5639,-2.563,-2.5664,-2.566,-2.5671,-2.5703,-2.5703,-2.5703,-2.5703,-2.5703,-2.5703,-2.5703,-2.5703,-2.5703,-2.5703,-2.5703,-2.5703,-2.5703,-2.5703,-2.5703,-2.583,-2.638,-2.6566,-2.6601,-2.6389,-2.541,0.0,-2.1025,-1.9551,-1.7187,-1.6006,-1.54,-1.54,-1.5898,-1.6602,0.0,0.0,-1.9912,-2.165,-2.3564,-2.5342,-2.6816,-2.831,-2.956,-3.043,-3.0752,-3.0898,-3.0898,-3.0898,-3.0898,-3.0898,-3.0898,-3.0898,-3.0898,-3.0898,-3.0898,-3.0898,-3.0898,-3.0884,-3.0837,-3.0837,-3.0843,-3.084,-3.084,-3.0859,-3.0898,-3.0858,-3.0862,-3.0898,-3.0859,-3.0859,-3.0898,-3.0898,-3.0898,-3.0898,-3.0898,-3.0871,-3.0837,-3.0837,-3.0837,-3.084,-3.0824,-3.0819,-3.0843,-3.0825,-3.0421,-2.9734,-2.8593,-2.7442,-2.6419,-2.582,-2.5674,-2.5684,-2.5703,-2.5703,-2.5693,-2.5644,-2.5635,-2.5623,-2.557,-2.5558,-2.5548,-2.5528,-2.5526,-2.5519,-2.5497,-2.5524,-2.5553,-2.5591,-2.562,-2.5648,-2.5691,-2.57,-2.5703,-2.5703,-2.5703,-2.5703,-2.5703,-2.5703,-2.5703,-2.5703,-2.5703,-2.5703,-2.5703,-2.5703,-2.5703,-2.5703,-2.5703,-2.5703,-2.5703,-2.5703,-2.5703,-2.4209,-2.5059,-2.5712,-2.5708,-2.506,-2.3984,-2.2285,-2.0557,-1.8818,-1.7061,-1.6006,-1.54,-1.54,-1.541,-1.5703,-1.6572,0.0,0.0,-2.165,-2.4092,-2.6006,-2.6904,-2.7783,-2.8662,-2.9531,-3.0391,-3.0898,-3.0898,-3.0898,-3.0898,-3.0898,-3.0898,-3.0898,-3.0898,-3.0898,-3.0898,-3.0898,-3.0898,-3.0825,-3.07,-3.07,-3.07,-3.0703,-3.0703,-3.0771,-3.0888,-3.0765,-3.078,-3.0889,-3.0762,-3.0781,-3.0898,-3.0898,-3.0898,-3.0898,-3.0898,-3.0823,-3.07,-3.07,-3.0701,-3.0692,-3.0623,-3.0651,-3.0689,-3.0622,-3.0739,-3.0511,-2.8705,-2.69,-2.5529,-2.5593,-2.5596,-2.5615,-2.5684,-2.5703,-2.5703,-2.5703,-2.5703,-2.5703,-2.5703,-2.5703,-2.5684,-2.5605,-2.5596,-2.558,-2.5507,-2.5557,-2.5601,-2.5601,-2.5659,-2.5696,-2.57,-2.5703,-2.5703,-2.5703,-2.5703,-2.5703,-2.5703,-2.5703,-2.5703,-2.5703,-2.5703,-2.5703,-2.5703,-2.5703,-2.5703,-2.5703,-2.5703,-2.5703,-2.5703,-2.5703,-2.5703,-2.1728,-2.2412,-2.2899,-2.2352,-2.2416,-2.2018,-1.9687,-1.9238,-1.8643,-1.6289,-1.5586,-1.54,-1.54,-1.54,-1.6084,-1.8144,-1.8936,0.0,0.0,0.0,0.0,-2.6826,-2.8818,-3.0185,-3.0459,-3.0742,-3.0898,-3.0898,-3.0898,-3.0898,-3.0898,-3.0898,-3.0898,-3.0898,-3.0898,-3.0855,-3.0762,-3.0754,-3.0723,-3.0634,-3.0635,-3.0635,-3.0636,-3.0628,-3.0646,-3.0695,-3.0646,-3.0655,-3.0692,-3.0653,-3.0656,-3.0685,-3.0685,-3.0685,-3.0685,-3.0685,-3.0675,-3.0629,-3.0632,-3.0626,-3.0634,-3.061,-3.0613,-3.0635,-3.0606,-3.0633,-3.0341,-2.8618,-2.6861,-2.5503,-2.5534,-2.5532,-2.5542,-2.5561,-2.5561,-2.5576,-2.5624,-2.5635,-2.5654,-2.5693,-2.5703,-2.5693,-2.5674,-2.5674,-2.5663,-2.5637,-2.5649,-2.5675,-2.5675,-2.5694,-2.5701,-2.5703,-2.5703,-2.5703,-2.5703,-2.5703,-2.5703,-2.5703,-2.5703,-2.5703,-2.5703,-2.5703,-2.5703,-2.5703,-2.5703,-2.5703,-2.5703,-2.5703,-2.5703,-2.5703,-2.5644,-2.5625,0.0,-2.0696,-2.1221,-2.0693,-2.0693,-2.0309,-1.8347,-1.8121,-1.7765,-1.58,-1.54,-1.54,-1.54,-1.54,-1.6035,-1.7998,-1.8867,-2.0098,0.0,0.0,-2.5537,-2.7275,-2.9219,-3.041,-3.041,-3.0713,-3.0898,-3.0898,-3.0852,-3.0846,-3.0898,-3.0832,-3.0801,-3.0822,-3.0822,-3.0775,-3.0656,-3.0659,-3.0624,-3.0561,-3.0566,-3.0564,-3.0554,-3.0559,-3.0579,-3.0599,-3.057,-3.0579,0.0,-3.0577,-3.0579,-3.0599,-3.0599,-3.0599,-3.0599,-3.0599,-3.0579,-3.0554,-3.0564,-3.0564,-3.0569,-3.0528,-3.0521,-3.0525,-3.0525,-3.0105,-2.94,-2.8357,-2.6795,-2.5428,-2.5466,-2.5459,-2.547,-2.5489,-2.5499,-2.5511,-2.5554,-2.5556,-2.5572,-2.5621,-2.5621,-2.5621,-2.5621,-2.5621,-2.5627,-2.5664,-2.5641,-2.5632,-2.5661,-2.5637,-2.5621,-2.5621,-2.5621,-2.5621,-2.5621,-2.5672,-2.5703,-2.5703,-2.5703,-2.5703,-2.5703,-2.5681,-2.5666,-2.5703,-2.5684,-2.5668,-2.5697,-2.5668,-2.5645,-2.5619,-2.5585,-2.5558,0.0,-1.9425,-2.0107,-1.999,-1.9445,-1.8701,-1.7823,-1.714,0.0,-1.557,-1.54,-1.5439,-1.5557,-1.5527,-1.584,-1.6904,-1.8428,-2.0088,-2.1826,-2.4277,-2.6514,-2.8193,-2.916,-2.9687,-2.9675,-3.0407,-3.0877,-3.0878,-3.0761,-3.0755,-3.0874,-3.0695,-3.0624,-3.0681,-3.0689,-3.0665,-3.0597,-3.0588,-3.0564,-3.0496,-3.0496,-3.0496,-3.0496,-3.0496,-3.0535,-3.0583,-3.0525,-3.0535,-3.0583,-3.0525,-3.0535,-3.0592,-3.0592,-3.0592,-3.0592,-3.0592,-3.0554,-3.0496,-3.0496,-3.0496,-3.0487,-3.0417,-3.0398,-3.0398,-3.0398,-2.9276,-2.7988,-2.7988,-2.6688,-2.5303,-2.538,-2.539,-2.5409,-2.5476,-2.5495,-2.5495,-2.5495,-2.5493,-2.5488,-2.5498,-2.5498,-2.5498,-2.5498,-2.5498,-2.5516,-2.5581,-2.5538,-2.5517,-2.5582,-2.5536,-2.5498,-2.5498,-2.5498,-2.5498,-2.5498,-2.5605,-2.5693,-2.5693,-2.5693,-2.5693,-2.5693,-2.5635,-2.5631,-2.569,-2.5634,-2.5619,-2.5688,-2.5621,-2.5564,-2.5498,-2.5498,-2.5492,-1.3836,0.0,-1.548,-1.4839,-1.5497,-1.6056,0.0,-1.5794,-1.6381,0.0,0.0,0.0,-1.7139,-1.6836,-1.7334,-2.0215,-2.1016,-2.1885,-2.3574,-2.6055,-2.8086,-2.917,-3.0059,-3.0548,-3.0448,-3.0635,-3.0731,-3.0667,-3.0636,-3.0644,-3.0674,-3.0632,-3.0576,-3.0556,-3.0554,-3.054,-3.0519,-3.0521,-3.0496,-3.0417,-3.0417,-3.0417,-3.0417,-3.0417,-3.0427,-3.0458,-3.0427,-3.0427,-3.0458,-3.0427,-3.0427,-3.0458,-3.0458,-3.0458,-3.0458,-3.0458,-3.0448,-3.0417,-3.0417,-3.0417,-3.0417,-3.0408,-3.0398,-3.0398,-3.0398,-2.9236,-2.792,-2.792,-2.6659,-2.5293,-2.5312,-2.5312,-2.5322,-2.5332,-2.5341,-2.5361,-2.5409,-2.5427,-2.5434,-2.5482,-2.5492,-2.5492,-2.5492,-2.5492,-2.5509,-2.5526,-2.5508,-2.5508,-2.5515,-2.5504,-2.5492,-2.5492,-2.5492,-2.5492,-2.5492,-2.5525,-2.5551,-2.5551,-2.5598,-2.5615,-2.5615,-2.5654,-2.5658,-2.5621,-2.5561,-2.5536,-2.5547,-2.5529,-2.5515,-2.5492,-2.5444,-2.5427,-1.1426,-1.3075,-1.4552,-1.4111,-1.4963,-1.577,-1.5258,0.0,0.0,0.0,0.0,0.0,0.0,0.0,0.0,-2.0859,-2.1973,-2.3359,-2.584,-2.7412,-2.8753,-2.9961,-3.0525,-3.0772,-3.0663,-3.0652,-3.0641,-3.0595,-3.0565,-3.0569,-3.0604,-3.054,-3.0511,-3.0496,-3.0477,-3.0458,-3.0458,-3.0458,-3.0448,-3.0398,-3.0398,-3.0398,-3.0398,-3.0398,-3.0398,-3.0398,-3.0398,-3.0398,-3.0398,-3.0398,-3.0398,-3.0398,-3.0398,-3.0398,-3.0398,-3.0398,-3.0398,-3.0398,-3.0398,-3.0311,-3.0196,-3.0104,-3.0076,-3.0076,-3.0076,-2.8902,-2.7615,-2.7838,-2.664,-2.5293,-2.5293,-2.5293,-2.5293,-2.5293,-2.5293,-2.5303,-2.5341,-2.5341,-2.5361,-2.5399,-2.5409,-2.5409,-2.5409,-2.5409,-2.5418,-2.5457,-2.543,-2.5414,-2.5457,-2.5428,-2.5409,-2.5409,-2.5409,-2.5409,-2.5409,-2.541,-2.543,-2.5498,-2.5531,-2.5547,-2.5544,-2.5565,-2.5553,-2.5515,-2.5495,-2.5478,-2.5449,-2.5455,-2.5438,-2.5409,-2.537,-2.5341,-1.0512,-1.2879,-1.5195,-1.4814,-1.5619,-1.6468,-1.633,0.0,0.0,0.0,0.0,0.0,0.0,-1.7938,0.0,0.0,-2.2516,-2.4666,-2.7829,-2.8376,-2.9013,-3.051,-3.0685,-3.0664,-3.0586,-3.0579,-3.0583,-3.0573,-3.0525,-3.0516,-3.0573,-3.0467,-3.0427,-3.0487,-3.0427,-3.0398,-3.0398,-3.0398,-3.0398,-3.0398,-3.0398,-3.0376,-3.0333,-3.0333,-3.0333,-3.0333,-3.0308,-3.0308,-3.0333,-3.0333,-3.0333,-3.0345,-3.0388,-3.0398,-3.0398,-3.0398,-3.0367,-3.0333,-3.0299,-3.0146,-2.9924,-2.9755,-2.9696,-2.9668,-2.9553,-2.8431,-2.7263,-2.7532,-2.6461,-2.5213,-2.5213,-2.5243,-2.5244,-2.5244,-2.5283,-2.5293,-2.5293,-2.5293,-2.5293,-2.5293,-2.5293,-2.5293,-2.5293,-2.5293,-2.5312,-2.538,-2.5332,-2.5312,-2.538,-2.5332,-2.5293,-2.5293,-2.5293,-2.5293,-2.5293,-2.5293,-2.5341,-2.5466,-2.5486,-2.5491,-2.55,-2.544,-2.5399,-2.5399,-2.5457,-2.5438,-2.538,-2.538,-2.5361,-2.5293,-2.5293,-2.5293,-1.192,-1.3734,-1.4705,-1.2615,-1.4303,-1.6309,0.0,0.0,0.0,0.0,0.0,0.0,0.0,-2.056,-2.098,0.0,-2.461,-2.5907,-2.7857,-2.872,-2.9512,-3.05,-3.0627,-3.0585,-3.0515,-3.0519,-3.0496,-3.0427,-3.0417,-3.0417,-3.0427,-3.0408,-3.0398,-3.0417,-3.0408,-3.0398,-3.0398,-3.0398,-3.0398,-3.0398,-3.0398,-3.0276,-3.0052,-3.0052,-3.0052,-3.0052,-2.9871,-2.9902,-3.0052,-3.0052,-3.0052,-3.0089,-3.0311,-3.0398,-3.0398,-3.0398,-3.0254,-3.0047,-2.9864,-2.9772,-2.9738,-2.9713,-2.9696,-2.9572,-2.8891,-2.7994,-2.7069,-2.6464,-2.5608,-2.4888,-2.4888,-2.4956,-2.5055,-2.5055,-2.5183,-2.5293,-2.5293,-2.5293,-2.5293,-2.5293,-2.5293,-2.5293,-2.5293,-2.5293,-2.5293,-2.5303,-2.5303,-2.5293,-2.5303,-2.5303,-2.5293,-2.5293,-2.5293,-2.5293,-2.5293,-2.5293,-2.5303,-2.5322,-2.538,-2.5447,-2.5504,-2.5438,-2.5399,-2.5399,-2.5341,-2.5322,-2.5312,-2.5312,-2.5303,-2.5293,-2.5293,-2.5293,-1.1079,-1.2858,-1.4232,-1.3133,-1.5757,-1.8504,-1.81,0.0,0.0,0.0,0.0,0.0,0.0,0.0,-2.2783,-2.5341,-2.6036,-2.6829,-2.8511,-2.907,-2.9611,-3.0452,-3.0546,-3.0525,-3.0458,-3.0458,-3.0427,-3.0398,-3.0398,-3.0398,-3.0398,-3.0398,-3.0398,-3.0398,-3.0398,-3.0333,-3.0196,-3.0186,-3.0186,-3.0186,-3.0186,-3.0071,-2.9845,-2.9845,-2.9845,-2.9829,-2.9738,-2.9755,-2.9845,-2.9845,-2.9845,-2.9845,-2.9968,-3.0022,-3.0022,-3.0022,-2.9943,-2.9813,-2.9607,-2.9542,-2.9504,-2.9366,-2.9028,-2.861,-2.8229,-2.7224,-2.6144,-2.5772,-2.5241,-2.4804,-2.4804,-2.4904,-2.5001,-2.5001,-2.5152,-2.5293,-2.5293,-2.5293,-2.5293,-2.5293,-2.5293,-2.5293,-2.5293,-2.5293,-2.5293,-2.5293,-2.5293,-2.5293,-2.5293,-2.5293,-2.5293,-2.5293,-2.5293,-2.5293,-2.5293,-2.5293,-2.5293,-2.5293,-2.5322,-2.5361,-2.539,-2.5361,-2.5341,-2.5341,-2.5312,-2.5293,-2.5293,-2.5293,-2.5293,-2.5303,-2.5183,-2.5141,-1.0598,-1.2267,-1.4012,-1.4468,0.0,-1.9901,-2.0312,0.0,0.0,0.0,0.0,0.0,0.0,-2.3108,-2.4323,-2.6256,-2.6865,-2.7521,-2.8789,-2.9308,-2.979,-3.0398,-3.0487,-3.0467,-3.0398,-3.0398,-3.0398,-3.0398,-3.0217,-3.0189,-3.0388,-3.0217,-3.0155,-3.0301,-3.0311,-3.0182,-2.993,-2.9939,-2.9939,-2.9939,-2.9939,-2.9829,-2.9634,-2.9634,-2.9634,-2.9634,-2.9551,-2.957,-2.9634,-2.9634,-2.9634,-2.9625,-2.9678,-2.9696,-2.9687,-2.9652,-2.9634,-2.9607,-2.9373,-2.931,-2.9267,-2.9076,-2.8466,-2.7759,-2.7576,-2.6521,-2.5366,-2.5182,-2.4901,-2.4654,-2.4654,-2.4766,-2.4888,-2.4937,-2.5098,-2.5244,-2.5293,-2.5293,-2.5293,-2.5293,-2.5293,-2.5293,-2.5293,-2.5293,-2.5293,-2.5293,-2.5293,-2.5293,-2.5293,-2.5293,-2.5293,-2.5293,-2.5293,-2.5293,-2.5293,-2.5293,-2.5293,-2.5293,-2.5293,-2.5293,-2.5293,-2.5293,-2.5293,-2.5293,-2.5293,-2.5293,-2.5293,-2.5244,-2.5234,-2.5234,-2.5041,-2.4949,-1.2074,-1.3195,-1.429,-1.5904,0.0,0.0,-2.0035,-2.0396,0.0,-2.249,0.0,0.0,0.0,-2.4866,-2.5465,-2.5582,-2.6898,-2.7926,-2.7996,-2.9342,-3.034,-3.0398,-3.0408,-3.0408,-3.0398,-3.0398,-3.0398,-3.0398,-2.965,-2.9544,-3.035,-2.9631,-2.9445,-3.0009,-3.0037,-2.9924,-2.9721,-2.9721,-2.9721,-2.9721,-2.9721,-2.9626,-2.9423,-2.9423,-2.9423,-2.9403,-2.9169,-2.9181,-2.9423,-2.9423,-2.9423,-2.9434,-2.9634,-2.9696,-2.9678,-2.9503,-2.9423,-2.9383,-2.9134,-2.903,-2.904,-2.9017,-2.8466,-2.7658,-2.6915,-2.608,-2.5247,-2.4493,-2.4274,-2.4238,-2.4238,-2.4383,-2.4575,-2.4766,-2.4917,-2.5067,-2.5264,-2.5293,-2.5293,-2.5293,-2.5293,-2.5293,-2.5293,-2.5293,-2.5293,-2.5293,-2.5293,-2.5293,-2.5293,-2.5293,-2.5293,-2.5293,-2.5293,-2.5293,-2.5293,-2.5293,-2.5293,-2.5293,-2.5293,-2.5293,-2.5293,-2.5293,-2.5293,-2.5293,-2.5293,-2.5293,-2.5293,-2.5111,-2.5022,-2.5022,-2.4873,-2.4809,-1.0896,-1.2887,-1.4941,-1.5635,0.0,0.0,0.0,0.0,0.0,-2.4417,-2.4632,0.0,0.0,-2.5297,-2.564,-2.6158,-2.7197,-2.7927,-2.79,-2.9342,-3.0208,-2.966,-3.0073,-3.0143,-2.9471,-2.9411,-2.9151,-2.8517,-2.8174,-2.8127,-2.8451,-2.8165,-2.8084,-2.8315,-2.8812,-2.8945,-2.8708,-2.9232,-2.9435,-2.9282,-2.9426,-2.9394,-2.9147,-2.9147,-2.9147,-2.9156,-2.9053,-2.9053,-2.9147,-2.9147,-2.9147,-2.9147,-2.9218,-2.9251,-2.9261,-2.9181,-2.9147,-2.9134,-2.904,-2.8994,-2.8994,-2.8994,-2.8126,-2.6998,-2.6695,-2.5685,-2.4584,-2.4291,-2.4199,-2.4199,-2.4199,-2.4348,-2.4552,-2.476,-2.4904,-2.5055,-2.5264,-2.5293,-2.5293,-2.5293,-2.5293,-2.5293,-2.5293,-2.5293,-2.5293,-2.5293,-2.5293,-2.5293,-2.5293,-2.5293,-2.5293,-2.5293,-2.5293,-2.5293,-2.5293,-2.5293,-2.5293,-2.5293,-2.5293,-2.5293,-2.5293,-2.5293,-2.5293,-2.5293,-2.5293,-2.5244,-2.5111,-2.5044,-2.4959,-2.4873,-2.4691,-2.4607,-1.0512,-1.2641,-1.4994,0.0,0.0,0.0,0.0,0.0,0.0,-2.5401,-2.5562,-2.5504,-2.5502,0.0,-2.5498,-2.6102,-2.6828,-2.7292,-2.7292,-2.853,-2.92,-2.8597,-2.9066,-2.9132,-2.8403,-2.8332,-2.8037,-2.7352,-2.7053,-2.7015,-2.728,-2.7044,-2.6984,-2.7175,-2.7714,-2.7884,-2.7639,-2.8472,-2.8682,-2.8255,-2.8682,-2.8941,-2.8994,-2.8994,-2.8994,-2.8994,-2.8994,-2.8994,-2.8994,-2.8994,-2.8994,-2.8994,-2.8994,-2.8994,-2.8994,-2.8994,-2.8994,-2.8994,-2.8994,-2.8994,-2.8994,-2.8994,-2.809,-2.6934,-2.6686,-2.5649,-2.452,-2.4263,-2.4199,-2.4199,-2.4199,-2.4303,-2.4453,-2.4654,-2.4776,-2.4907,-2.5094,-2.5182,-2.5203,-2.5203,-2.5264,-2.5293,-2.5293,-2.5293,-2.5293,-2.5293,-2.5293,-2.5293,-2.5293,-2.5293,-2.5293,-2.5293,-2.5293,-2.5293,-2.5293,-2.5293,-2.5293,-2.5293,-2.5293,-2.5293,-2.5293,-2.5293,-2.5293,-2.5293,-2.5234,-2.5141,-2.5001,-2.4888,-2.4785,-2.47,-2.4495,-2.441,-1.1396,-1.2642,0.0,0.0,0.0,0.0,0.0,0.0,0.0,-2.5166,-2.5505,-2.5505,-2.5505,-2.5279,-2.5095,-2.5095,-2.5617,-2.6003,-2.5984,-2.6745,-2.7299,-2.728,-2.728,-2.7299,-2.7289,-2.728,-2.728,-2.727,-2.648,-2.6352,-2.7223,-2.6452,-2.6267,-2.6869,-2.6879,-2.6784,-2.6594,-2.7383,-2.7392,-2.6612,-2.7411,-2.8209,-2.8984,-2.8984,-2.8984,-2.8994,-2.8994,-2.8994,-2.8994,-2.8994,-2.8994,-2.8994,-2.8994,-2.8994,-2.8994,-2.8994,-2.8994,-2.8994,-2.8994,-2.8994,-2.8994,-2.8994,-2.8457,-2.764,-2.6842,-2.6025,-2.5228,-2.4419,-2.4199,-2.4199,-2.4199,-2.4199,-2.4256,-2.4444,-2.4495,-2.4561,-2.476,-2.4894,-2.5001,-2.5001,-2.5163,-2.5303,-2.5303,-2.5303,-2.5303,-2.5303,-2.5293,-2.5293,-2.5293,-2.5293,-2.5293,-2.5293,-2.5293,-2.5293,-2.5293,-2.5293,-2.5293,-2.5293,-2.5293,-2.5293,-2.5293,-2.5293,-2.5293,-2.5303,-2.5099,-2.5001,-2.4989,-2.4657,-2.4495,-2.4495,-2.4284,-2.4199,-1.1373,0.0,0.0,-1.7138,0.0,0.0,0.0,0.0,0.0,0.0,-2.5427,-2.5369,-2.5177,-2.508,-2.5006,-2.4893,-2.5513,-2.5795,-2.5238,-2.6386,-2.7072,-2.6461,-2.693,-2.7006,-2.6242,-2.616,-2.5877,-2.5179,-2.4874,-2.4847,-2.5115,-2.4865,-2.482,-2.5004,-2.5548,-2.5823,-2.575,-2.6548,-2.6842,-2.6603,-2.6842,-2.7383,-2.8163,-2.8163,-2.8466,-2.8994,-2.8994,-2.8994,-2.8994,-2.8994,-2.8994,-2.8994,-2.8994,-2.8994,-2.8994,-2.8994,-2.8994,-2.8994,-2.8994,-2.8994,-2.8994,-2.8994,-2.8081,-2.6915,-2.6677,-2.564,-2.4502,-2.4263,-2.4199,-2.4199,-2.4199,-2.4199,-2.4256,-2.4444,-2.4495,-2.4561,-2.476,-2.4828,-2.4887,-2.4977,-2.4968,-2.4975,-2.5077,-2.5088,-2.5088,-2.5088,-2.5214,-2.5293,-2.5293,-2.5293,-2.5293,-2.5293,-2.5293,-2.5293,-2.5293,-2.5293,-2.5293,-2.5293,-2.5293,-2.5293,-2.5293,-2.5293,-2.5224,-2.5088,-2.5034,-2.4875,-2.4642,-2.4543,-2.4436,-2.4284,-2.4228,-2.4199,-1.2694,0.0,0.0,-1.8896,-2.1459,-2.3746,-2.4164,0.0,0.0,0.0,-2.524,-2.5177,-2.4956,-2.4854,-2.4771,-2.4691,-2.501,-2.512,-2.4634,-2.5426,-2.5873,-2.5344,-2.5744,-2.5813,-2.517,-2.5096,-2.4838,-2.4255,-2.4199,-2.4199,-2.4199,-2.4199,-2.4199,-2.4199,-2.4531,-2.4787,-2.4915,-2.5591,-2.5838,-2.5649,-2.597,-2.6301,-2.6662,-2.712,-2.7594,-2.8049,-2.8393,-2.8714,-2.8994,-2.8994,-2.8994,-2.8994,-2.8994,-2.8994,-2.8994,-2.8994,-2.8994,-2.8994,-2.8994,-2.8994,-2.8938,-2.864,-2.7879,-2.6961,-2.6319,-2.5447,-2.4603,-2.4291,-2.4199,-2.4199,-2.4199,-2.4199,-2.4228,-2.4339,-2.4375,-2.4418,-2.4545,-2.4623,-2.4697,-2.4785,-2.4804,-2.4823,-2.4904,-2.492,-2.492,-2.492,-2.5075,-2.5183,-2.5183,-2.5244,-2.5293,-2.5293,-2.5293,-2.5293,-2.5293,-2.5293,-2.5293,-2.5293,-2.5293,-2.5264,-2.5183,-2.5183,-2.512,-2.5001,-2.4872,-2.4708,-2.4495,-2.4418,-2.4321,-2.4199,-2.4199,-2.4199,-1.462,0.0,0.0,-2.0888,-2.2163,0.0,-2.449,-2.4877,-2.4952,-2.4986,-2.4977,-2.4946,-2.4795,-2.4623,-2.4486,-2.4487,-2.4312,-2.4199,-2.4199,-2.4199,-2.4199,-2.4151,-2.4142,-2.4142,-2.4113,-2.4122,-2.4122,-2.4122,-2.4122,-2.4122,-2.4122,-2.4122,-2.4122,-2.4122,-2.3816,-2.3795,-2.4103,-2.452,-2.452,-2.4132,-2.4846,-2.5051,-2.478,-2.5972,-2.6539,-2.6649,-2.7365,-2.8154,-2.8897,-2.8801,-2.8856,-2.8984,-2.8911,-2.8929,-2.8994,-2.8994,-2.8994,-2.8994,-2.8994,-2.8994,-2.8879,-2.8062,-2.7741,-2.7392,-2.588,-2.5357,-2.5146,-2.4401,-2.4199,-2.4199,-2.4199,-2.4199,-2.4199,-2.4199,-2.4199,-2.4199,-2.4199,-2.4339,-2.4478,-2.4495,-2.4623,-2.4746,-2.4775,-2.4775,-2.4775,-2.4804,-2.4894,-2.4977,-2.4977,-2.5152,-2.5274,-2.5274,-2.5293,-2.5293,-2.5293,-2.5293,-2.5293,-2.5293,-2.5274,-2.5194,-2.501,-2.5001,-2.4998,-2.4962,-2.4657,-2.4495,-2.4478,-2.4284,-2.4199,-2.4199,-2.4199,-2.4199,0.0,-1.599,0.0,0.0,-2.296,-2.4413,-2.4724,-2.4706,-2.4651,-2.4814,-2.4842,-2.4795,-2.4591,-2.4519,-2.4453,-2.4284,-2.4228,-2.4199,-2.4199,-2.4199,-2.4094,-2.3846,-2.3816,-2.3692,-2.3446,-2.3423,-2.3423,-2.3423,-2.3423,-2.3423,-2.3423,-2.3423,-2.3423,-2.3423,-2.3346,-2.3346,-2.3414,-2.3515,-2.3506,-2.3423,-2.3584,-2.3642,-2.3622,-2.502,-2.5997,-2.6612,-2.6787,-2.731,-2.8007,-2.7383,-2.787,-2.8929,-2.8301,-2.8448,-2.8994,-2.8994,-2.8994,-2.8994,-2.8994,-2.8994,-2.8879,-2.8062,-2.7365,-2.6677,-2.5706,-2.4971,-2.4419,-2.4245,-2.4199,-2.4199,-2.4199,-2.4199,-2.4199,-2.4199,-2.4199,-2.4199,-2.4199,-2.4219,-2.4312,-2.4461,-2.441,-2.4375,-2.4545,-2.4559,-2.4617,-2.4775,-2.4814,-2.4842,-2.4842,-2.4971,-2.5067,-2.5067,-2.5214,-2.5293,-2.5293,-2.5293,-2.5293,-2.5293,-2.5152,-2.5055,-2.5001,-2.5001,-2.4885,-2.4604,-2.4536,-2.4418,-2.4247,-2.4228,-2.4199,-2.4199,-2.4199,-2.4199,0.0,0.0,0.0,-2.1762,0.0,-2.4623,-2.4536,-2.4436,-2.4393,-2.4495,-2.4584,-2.455,-2.4183,-2.4117,-2.4079,-2.3987,-2.3967,-2.3967,-2.3967,-2.3967,-2.3846,-2.3491,-2.3468,-2.3392,-2.3221,-2.3189,-2.3189,-2.3189,-2.3189,-2.3189,-2.3189,-2.3189,-2.3189,-2.3189,-2.3036,-2.3045,-2.3189,-2.3045,-2.3045,-2.3189,-2.3189,-2.3189,-2.323,-2.3988,-2.4867,-2.5798,-2.5798,-2.6328,-2.719,-2.6778,-2.7099,-2.786,-2.7805,-2.8062,-2.8475,-2.8847,-2.8994,-2.8994,-2.8994,-2.876,-2.8292,-2.7493,-2.6677,-2.5878,-2.5061,-2.452,-2.4199,-2.4199,-2.4199,-2.4199,-2.4199,-2.4199,-2.4199,-2.4199,-2.4199,-2.4199,-2.4199,-2.4199,-2.4228,-2.433,-2.4275,-2.4219,-2.433,-2.4366,-2.4393,-2.4495,-2.4502,-2.4502,-2.4502,-2.4747,-2.4968,-2.513,-2.5234,-2.5293,-2.5293,-2.5214,-2.5152,-2.5152,-2.4993,-2.4854,-2.4762,-2.4757,-2.4687,-2.4502,-2.441,-2.4294,-2.4199,-2.4199,-2.4199,-2.4199,-2.4199,-2.4199,0.0,0.0,-1.906,-2.2684,-2.4048,0.0,-2.4162,-2.4113,-2.4094,-2.4045,-2.421,-2.4238,-2.3768,-2.364,-2.3619,-2.3619,-2.3619,-2.3619,-2.3619,-2.3619,-2.3491,-2.3141,-2.3117,-2.3102,-2.3038,-2.303,-2.303,-2.303,-2.303,-2.303,-2.303,-2.303,-2.303,-2.303,-2.2789,-2.2755,-2.3038,-2.2764,-2.2764,-2.303,-2.303,-2.303,-2.303,-2.303,-2.3641,-2.4685,-2.4685,-2.5341,-2.6383,-2.6245,-2.6355,-2.6658,-2.7172,-2.7558,-2.786,-2.8402,-2.8677,-2.8755,-2.8618,-2.8154,-2.7457,-2.6649,-2.5933,-2.5256,-2.4437,-2.4199,-2.4199,-2.4199,-2.4199,-2.4199,-2.4199,-2.4199,-2.4199,-2.4199,-2.4199,-2.4199,-2.4199,-2.4199,-2.4199,-2.4199,-2.4199,-2.4199,-2.4199,-2.4199,-2.4199,-2.4199,-2.4199,-2.4199,-2.4199,-2.4495,-2.4799,-2.5072,-2.5223,-2.5293,-2.5293,-2.512,-2.5001,-2.5001,-2.4836,-2.467,-2.4512,-2.447,-2.4426,-2.4364,-2.4191,-2.4113,-2.4113,-2.4113,-2.4142,-2.4199,-2.4199,-2.4199,0.0,0.0,-2.0391,0.0,-2.4008,-2.4373,0.0,0.0,-2.3683,-2.3392,-2.3579,-2.3789,-2.3714,-2.3459,-2.3268,-2.3268,-2.3268,-2.3268,-2.3268,-2.3268,-2.3141,-2.2822,-2.2772,-2.2678,-2.2434,-2.2424,-2.2424,-2.2424,-2.2424,-2.2424,-2.2424,-2.2424,-2.2424,-2.2424,-2.2369,-2.2369,-2.2424,-2.2369,-2.2369,-2.2424,-2.2424,-2.2424,-2.2424,-2.2424,-2.2944,-2.3855,-2.3855,-2.4505,-2.5522,-2.4805,-2.5346,-2.6548,-2.5942,-2.6557,-2.7723,-2.7145,-2.7365,-2.786,-2.7163,-2.686,-2.6631,-2.5814,-2.5495,-2.5256,-2.4437,-2.4199,-2.4199,-2.4199,-2.4199,-2.4199,-2.4199,-2.4199,-2.4199,-2.4199,-2.4199,-2.4199,-2.4199,-2.4199,-2.4199,-2.4199,-2.4199,-2.4199,-2.4199,-2.4199,-2.4199,-2.4199,-2.4199,-2.4199,-2.4199,-2.4247,-2.4303,-2.4339,-2.4926,-2.5293,-2.5293,-2.512,-2.5001,-2.5001,-2.4708,-2.4528,-2.4495,-2.433,-2.4095,-2.381,-2.3786,-2.3774,-2.3774,-2.3774,-2.3926,-2.4199,-2.4199,-2.4199,-1.339,-1.6179,-1.9047,0.0,-2.2833,-2.3557,-2.3125,-2.3386,-2.3588,-2.3268,-2.3165,-2.3141,-2.3141,-2.3021,-2.2914,-2.2914,-2.2914,-2.2923,-2.2958,-2.2931,-2.2806,-2.25,-2.2239,-2.2144,-2.2302,-2.2069,-2.2032,-2.2282,-2.231,-2.231,-2.231,-2.231,-2.231,-2.231,-2.231,-2.231,-2.231,-2.231,-2.231,-2.231,-2.231,-2.231,-2.231,-2.231,-2.2624,-2.3141,-2.3141,-2.3533,-2.4149,-2.3784,-2.4055,-2.4708,-2.4807,-2.5384,-2.6181,-2.6295,-2.6657,-2.708,-2.6722,-2.63,-2.586,-2.5531,-2.5109,-2.4649,-2.4309,-2.4199,-2.4199,-2.4199,-2.4199,-2.4199,-2.4199,-2.4199,-2.4199,-2.4199,-2.4199,-2.4199,-2.4199,-2.4199,-2.4199,-2.4199,-2.4199,-2.4199,-2.4199,-2.4199,-2.4199,-2.4199,-2.4199,-2.4199,-2.4199,-2.4199,-2.4199,-2.4199,-2.4493,-2.4766,-2.4997,-2.4846,-2.4723,-2.4723,-2.4486,-2.433,-2.433,-2.4066,-2.3765,-2.3423,-2.3588,-2.3692,-2.3692,-2.3692,-2.3867,-2.4199,-2.4199,-2.4199,0.0,0.0,-1.715,-1.9581,-2.1258,-2.2291,0.0,-2.2783,-2.3137,-2.3003,-2.2772,-2.2564,-2.2423,-2.2529,-2.2599,-2.2599,-2.2599,-2.2616,-2.2677,-2.252,-2.2349,-2.2155,-2.1726,-2.1606,-2.1953,-2.1637,-2.1598,-2.1945,-2.1982,-2.2011,-2.2115,-2.2106,-2.218,-2.231,-2.231,-2.231,-2.231,-2.231,-2.231,-2.231,-2.231,-2.231,-2.231,-2.231,-2.2407,-2.2599,-2.2678,-2.2889,-2.3189,-2.3189,-2.3189,-2.3251,-2.3868,-2.4376,-2.4805,-2.5215,-2.5665,-2.6003,-2.5803,-2.5351,-2.4841,-2.4951,-2.4549,-2.4094,-2.417,-2.4199,-2.4199,-2.4199,-2.4199,-2.4199,-2.4199,-2.4199,-2.4199,-2.4199,-2.4199,-2.4199,-2.4199,-2.4199,-2.4199,-2.4199,-2.4199,-2.4199,-2.4199,-2.4199,-2.4199,-2.4199,-2.4199,-2.4199,-2.4199,-2.4199,-2.4199,-2.4199,-2.4256,-2.4418,-2.4716,-2.4601,-2.4495,-2.4495,-2.4312,-2.417,-2.4074,-2.3837,-2.3491,-2.3069,-2.3314,-2.3491,-2.3566,-2.3566,-2.3795,-2.4199,-2.4199,-2.4199,0.0,-1.3706,0.0,-1.7909,-1.9442,0.0,0.0,-2.1867,-2.1838,-2.2271,-2.233,-2.2192,-2.1739,-2.2023,-2.233,-2.233,-2.233,-2.233,-2.2338,-2.1949,-2.1642,-2.165,-2.1283,-2.1031,-2.1071,-2.1063,-2.1031,-2.1071,-2.1071,-2.1221,-2.162,-2.165,-2.1832,-2.2282,-2.231,-2.231,-2.231,-2.231,-2.231,-2.231,-2.231,-2.231,-2.231,-2.231,-2.231,-2.2321,-2.2599,-2.2889,-2.3189,-2.3189,-2.3189,-2.3189,-2.3242,-2.3735,-2.4335,-2.3626,-2.383,-2.4404,-2.365,-2.3357,-2.3376,-2.3682,-2.375,-2.3795,-2.4094,-2.4199,-2.4199,-2.4199,-2.4199,-2.4199,-2.4199,-2.4199,-2.4199,-2.4199,-2.4199,-2.4199,-2.4199,-2.4199,-2.4199,-2.4199,-2.4199,-2.4199,-2.4199,-2.4199,-2.4199,-2.4199,-2.4199,-2.4199,-2.4199,-2.4199,-2.4199,-2.4199,-2.4428,-2.4587,-2.461,-2.4545,-2.4495,-2.4495,-2.4312,-2.4074,-2.3744,-2.3714,-2.3392,-2.2746,-2.2738,-2.2914,-2.3221,-2.3221,-2.3566,-2.4199,-2.4199,-2.4199,0.0,0.0,0.0,-1.5327,-1.7187,-1.8645,-1.8821,-1.99,-2.1029,-2.1494,-2.1348,-2.123,-2.1529,-2.1726,-2.1764,-2.1524,-2.1462,-2.1462,-2.1462,-2.1314,-2.1213,-2.1213,-2.0813,-2.0657,-2.0967,-2.0723,-2.069,-2.0967,-2.0999,-2.1063,-2.1221,-2.1213,-2.1407,-2.1832,-2.1861,-2.2003,-2.231,-2.231,-2.231,-2.231,-2.231,-2.231,-2.231,-2.231,-2.231,-2.231,-2.2407,-2.2517,-2.2616,-2.2616,-2.2616,-2.2616,-2.2616,-2.2903,-2.3273,-2.3003,-2.3197,-2.3602,-2.3286,-2.3189,-2.3268,-2.3588,-2.3692,-2.3765,-2.4094,-2.4199,-2.4199,-2.4199,-2.4199,-2.4199,-2.4199,-2.4199,-2.4199,-2.4199,-2.4199,-2.4199,-2.4199,-2.4199,-2.4199,-2.4199,-2.4199,-2.4199,-2.4199,-2.4199,-2.4199,-2.4199,-2.4199,-2.4199,-2.4199,-2.4199,-2.4199,-2.4199,-2.4294,-2.433,-2.433,-2.4321,-2.4303,-2.4303,-2.4247,-2.4045,-2.3714,-2.3491,-2.3165,-2.2721,-2.2545,-2.2599,-2.2864,-2.3093,-2.3437,-2.3887,-2.4094,-2.4199,-1.1201,0.0,0.0,0.0,-1.5063,-1.6219,-1.7239,-1.828,-1.9299,-2.0085,-2.0125,-2.0094,-2.0443,-2.0695,-2.0876,-2.0991,-2.0999,-2.0999,-2.0999,-2.0854,-2.0764,-2.0764,-2.0356,-2.0227,-2.0532,-2.0261,-2.0235,-2.054,-2.0565,-2.0632,-2.0756,-2.0764,-2.1007,-2.159,-2.1756,-2.1966,-2.231,-2.231,-2.231,-2.231,-2.231,-2.231,-2.231,-2.231,-2.231,-2.231,-2.231,-2.231,-2.231,-2.231,-2.231,-2.231,-2.231,-2.2407,-2.2563,-2.2563,-2.2712,-2.2908,-2.2908,-2.2908,-2.2982,-2.3392,-2.3522,-2.3619,-2.4065,-2.4199,-2.4199,-2.4199,-2.4199,-2.4199,-2.4199,-2.4199,-2.4199,-2.4199,-2.4199,-2.4199,-2.4199,-2.4199,-2.4199,-2.4199,-2.4199,-2.4199,-2.4199,-2.4199,-2.4199,-2.4199,-2.4199,-2.4122,-2.3887,-2.3867,-2.3917,-2.4016,-2.4025,-2.4074,-2.4199,-2.4199,-2.4199,-2.4199,-2.4199,-2.3996,-2.3544,-2.3314,-2.3005,-2.2581,-2.2379,-2.2388,-2.2563,-2.2981,-2.3369,-2.3714,-2.4045,-2.4199,0.0,0.0,0.0,0.0,0.0,-1.3435,-1.714,-1.6998,-1.6532,-1.8021,-1.864,-1.8799,-1.8467,-1.8912,-1.9694,-2.0727,-2.0943,-2.0959,-2.0959,-2.0558,-2.028,-2.028,-1.9937,-1.9682,-1.9682,-1.9682,-1.9682,-1.9682,-1.9682,-1.9874,-2.0246,-2.0272,-2.0699,-2.1521,-2.2011,-2.2245,-2.2245,-2.2274,-2.2282,-2.2282,-2.2282,-2.231,-2.231,-2.231,-2.231,-2.231,-2.231,-2.231,-2.231,-2.231,-2.231,-2.231,-2.231,-2.231,-2.231,-2.231,-2.231,-2.231,-2.231,-2.231,-2.2396,-2.2989,-2.3189,-2.3314,-2.3987,-2.419,-2.4199,-2.4199,-2.4199,-2.4199,-2.4199,-2.4199,-2.4199,-2.4199,-2.4199,-2.4199,-2.4199,-2.4199,-2.4199,-2.4199,-2.419,-2.4199,-2.4199,-2.4199,-2.4199,-2.4199,-2.4199,-2.3946,-2.3268,-2.3165,-2.3323,-2.364,-2.3692,-2.3825,-2.4142,-2.417,-2.417,-2.417,-2.4199,-2.3896,-2.3221,-2.3189,-2.2908,-2.2302,-2.231,-2.231,-2.231,-2.2908,-2.3369,-2.3692,-2.4045,-2.4199,-0.9469,0.0,0.0,0.0,0.0,0.0,-1.254,-1.3352,-1.4458,-1.6221,-1.6438,-1.6756,-1.815,-1.8275,-1.8273,-1.857,-1.9417,-2.005,-2.005,-1.9945,-1.9874,-1.9874,-1.9782,-1.9682,-1.9682,-1.9682,-1.9682,-1.9682,-1.9682,-1.9754,-1.9874,-2.0158,-2.0408,-2.0634,-2.1118,-2.1354,-2.1354,-2.1637,-2.1794,-2.1794,-2.2143,-2.231,-2.231,-2.231,-2.231,-2.231,-2.231,-2.231,-2.231,-2.231,-2.231,-2.231,-2.231,-2.231,-2.231,-2.231,-2.231,-2.231,-2.231,-2.231,-2.2349,-2.2721,-2.2996,-2.3268,-2.3714,-2.4016,-2.4199,-2.4199,-2.4199,-2.4199,-2.4199,-2.4199,-2.4199,-2.4199,-2.4199,-2.4199,-2.4199,-2.4199,-2.4122,-2.3896,-2.4036,-2.4199,-2.4199,-2.4199,-2.4199,-2.4199,-2.4199,-2.3792,-2.2695,-2.2798,-2.3023,-2.312,-2.3253,-2.3369,-2.3468,-2.3468,-2.3566,-2.3816,-2.3846,-2.3649,-2.3221,-2.3189,-2.2908,-2.2302,-2.231,-2.2432,-2.2651,-2.3023,-2.3245,-2.3346,-2.3917,-2.4199,0.0,0.0,0.0,0.0,0.0,0.0,-1.1675,-1.2082,-1.274,-1.4435,-1.4725,-1.5051,-1.6266,-1.6705,-1.6907,-1.6907,-1.8006,-1.8957,-1.9233,-1.951,-1.9682,-1.9682,-1.9682,-1.9682,-1.9682,-1.9682,-1.9682,-1.9682,-1.9682,-1.9682,-1.9682,-2.0097,-2.0314,-2.0314,-2.0756,-2.0999,-2.0999,-2.1399,-2.159,-2.162,-2.2077,-2.231,-2.231,-2.231,-2.231,-2.231,-2.231,-2.231,-2.231,-2.231,-2.231,-2.231,-2.231,-2.231,-2.231,-2.231,-2.231,-2.231,-2.231,-2.231,-2.2341,-2.2617,-2.2814,-2.3069,-2.3566,-2.3846,-2.3996,-2.3996,-2.3996,-2.4016,-2.417,-2.4199,-2.4199,-2.4199,-2.4199,-2.4199,-2.4199,-2.4199,-2.4142,-2.3946,-2.3846,-2.3867,-2.4142,-2.4199,-2.4025,-2.3491,-2.3422,-2.314,-2.2405,-2.2508,-2.2642,-2.2642,-2.284,-2.3045,-2.3189,-2.3189,-2.3291,-2.3468,-2.3491,-2.3346,-2.3021,-2.2996,-2.2781,-2.231,-2.231,-2.2516,-2.2966,-2.3126,-2.3337,-2.3619,-2.4025,-2.4199,0.0,0.0,0.0,0.0,-1.1188,0.0,-1.2632,-1.205,-1.1343,-1.2588,-1.3106,-1.3421,-1.3563,-1.4603,-1.5469,-1.5469,-1.66,-1.776,-1.85,-1.9099,-1.9465,-1.9465,-1.9465,-1.9465,-1.9465,-1.954,-1.9577,-1.9577,-1.9645,-1.9682,-1.9682,-2.0027,-2.0212,-2.0212,-2.0632,-2.087,-2.087,-2.1236,-2.146,-2.1452,-2.1936,-2.2152,-2.2152,-2.2152,-2.2152,-2.2152,-2.2152,-2.2152,-2.2152,-2.2152,-2.2209,-2.231,-2.231,-2.231,-2.231,-2.231,-2.231,-2.231,-2.231,-2.231,-2.2349,-2.2581,-2.2678,-2.2822,-2.3414,-2.364,-2.3714,-2.3744,-2.3723,-2.3774,-2.4113,-2.4199,-2.4199,-2.4199,-2.4199,-2.4199,-2.4199,-2.4199,-2.4199,-2.4199,-2.3671,-2.3392,-2.3905,-2.4103,-2.3771,-2.2497,-2.231,-2.231,-2.231,-2.231,-2.231,-2.231,-2.2519,-2.278,-2.3078,-2.3102,-2.3102,-2.3141,-2.3141,-2.3021,-2.2721,-2.2695,-2.2581,-2.231,-2.233,-2.2616,-2.3141,-2.3165,-2.3535,-2.4199,-2.4199,-2.4199,0.0,0.0,-1.1016,-1.0729,-1.1189,0.0,-1.0125,-1.007,-1.0335,-1.0512,-1.0609,-1.0974,-1.1999,-1.2837,-1.3393,-1.3393,-1.4959,-1.6563,-1.7745,-1.7996,-1.8104,-1.8104,-1.8104,-1.8104,-1.8104,-1.8583,-1.8904,-1.8904,-1.939,-1.9682,-1.9682,-1.9782,-1.9811,-1.9811,-1.9917,-1.9945,-1.9945,-2.0356,-2.0534,-2.0575,-2.1023,-2.126,-2.126,-2.126,-2.126,-2.126,-2.126,-2.126,-2.126,-2.126,-2.1661,-2.231,-2.231,-2.231,-2.231,-2.231,-2.231,-2.231,-2.231,-2.231,-2.231,-2.2369,-2.2519,-2.2712,-2.2873,-2.3268,-2.3765,-2.4025,-2.3917,-2.3774,-2.4113,-2.4199,-2.4199,-2.4199,-2.4199,-2.4199,-2.4199,-2.4199,-2.4199,-2.4199,-2.3795,-2.3294,-2.2747,-2.3513,-2.3771,-2.2497,-2.231,-2.231,-2.231,-2.231,-2.231,-2.231,-2.2349,-2.2407,-2.2462,-2.2489,-2.2563,-2.2772,-2.2797,-2.2772,-2.2686,-2.2695,-2.2581,-2.231,-2.25,-2.2686,-2.2797,-2.3069,-2.3535,-2.4199,-2.4199,-2.4199,-1.1127,-1.111,-1.1307,-1.1582,-1.16,0.0,0.0,-1.0632,-1.0625,-1.1212,-1.081,-1.0653,-1.1618,-1.2067,-1.2291,-1.2291,-1.3698,-1.4959,-1.5433,-1.6784,-1.769,-1.769,-1.769,-1.769,-1.769,-1.7988,-1.8216,-1.8216,-1.8523,-1.8852,-1.9181,-1.9196,-1.9338,-1.9675,-1.9682,-1.9682,-1.9682,-2.0089,-2.0314,-2.0314,-2.0797,-2.0999,-2.0999,-2.0999,-2.0999,-2.0999,-2.0999,-2.0999,-2.0999,-2.0999,-2.126,-2.1683,-2.1869,-2.1966,-2.1966,-2.2209,-2.231,-2.231,-2.231,-2.231,-2.231,-2.231,-2.2379,-2.2527,-2.2652,-2.2939,-2.3268,-2.3619,-2.3468,-2.3323,-2.3816,-2.3896,-2.3917,-2.4142,-2.4199,-2.4199,-2.4199,-2.4199,-2.4199,-2.4199,-2.3504,-2.2764,-2.2377,-2.2833,-2.3042,-2.2405,-2.231,-2.231,-2.231,-2.231,-2.231,-2.231,-2.231,-2.231,-2.231,-2.231,-2.2369,-2.25,-2.25,-2.25,-2.25,-2.25,-2.2445,-2.231,-2.2417,-2.266,-2.2947,-2.3117,-2.3468,-2.3946,-2.4122,-2.4199,-1.2089,-1.1809,-1.1915,-1.2884,-1.223,-1.1542,0.0,0.0,0.0,-1.2059,-1.1329,-1.0708,-1.1235,-1.1332,-1.1332,-1.1332,-1.2499,-1.3287,-1.287,-1.5106,-1.6755,-1.6742,-1.6819,-1.691,-1.7037,-1.7091,-1.7287,-1.7667,-1.7458,-1.7692,-1.8478,-1.8635,-1.8949,-1.948,-1.9622,-1.9682,-1.9682,-2.0035,-2.0185,-2.0185,-2.0565,-2.0739,-2.0739,-2.0739,-2.0739,-2.0739,-2.0739,-2.0739,-2.0739,-2.0739,-2.0739,-2.0797,-2.1368,-2.159,-2.1658,-2.2135,-2.231,-2.231,-2.231,-2.231,-2.231,-2.231,-2.231,-2.2341,-2.2617,-2.2652,-2.2712,-2.3093,-2.2972,-2.2839,-2.3446,-2.3619,-2.3723,-2.4122,-2.4199,-2.4199,-2.4199,-2.4014,-2.3834,-2.3834,-2.2993,-2.231,-2.231,-2.231,-2.231,-2.231,-2.231,-2.231,-2.231,-2.231,-2.231,-2.231,-2.231,-2.231,-2.231,-2.231,-2.231,-2.231,-2.231,-2.231,-2.231,-2.231,-2.231,-2.231,-2.2341,-2.2607,-2.3085,-2.3236,-2.3468,-2.3795,-2.4065,-2.4199,-1.3605,-1.3642,-1.3612,-1.3,-1.3121,-1.2958,-1.1386,0.0,-1.1038,-1.0363,0.0,-0.9576,-0.9667,0.0,0.0,-0.9682,-1.0989,-1.1806,-1.1167,-1.2396,-1.3365,-1.3373,-1.3609,-1.404,-1.4644,-1.4937,-1.5845,-1.7563,-1.6645,-1.6533,-1.7735,-1.8388,-1.874,-1.8814,-1.9383,-1.9682,-1.9682,-1.9754,-1.9782,-1.9782,-1.9818,-1.9854,-1.9854,-1.9854,-1.9854,-1.9854,-1.9854,-1.9854,-1.9854,-1.9854,-1.9854,-1.9945,-2.1134,-2.159,-2.1658,-2.2135,-2.231,-2.231,-2.231,-2.231,-2.231,-2.231,-2.231,-2.2341,-2.2617,-2.2545,-2.2453,-2.3038,-2.2972,-2.2797,-2.3165,-2.3692,-2.4122,-2.4199,-2.4199,-2.4199,-2.4199,-2.3321,-2.2525,-2.2525,-2.2405,-2.231,-2.231,-2.231,-2.231,-2.231,-2.231,-2.231,-2.231,-2.231,-2.231,-2.231,-2.231,-2.231,-2.231,-2.231,-2.231,-2.231,-2.231,-2.231,-2.231,-2.231,-2.231,-2.231,-2.2545,-2.2678,-2.2772,-2.3337,-2.3825,-2.4142,-2.417,-2.4199,-1.3169,-1.3101,-1.3109,-1.2796,-1.2645,-1.2345,-1.1601,-1.1258,-1.1121,-1.1256,0.0,0.0,0.0,0.0,0.0,0.0,-1.0255,-1.0527,-1.0042,-1.0466,-1.1322,-1.2648,-1.2922,-1.3269,-1.3956,-1.3778,-1.4131,-1.5338,-1.4939,-1.5201,-1.6518,-1.7214,-1.7884,-1.868,-1.8972,-1.9301,-1.9682,-1.9682,-1.9682,-1.9682,-1.9682,-1.9682,-1.9682,-1.9682,-1.9682,-1.9682,-1.9682,-1.9682,-1.9682,-1.9682,-1.9682,-1.9782,-2.055,-2.1007,-2.1306,-2.1735,-2.2069,-2.2245,-2.2003,-2.2069,-2.231,-2.231,-2.231,-2.233,-2.2417,-2.2379,-2.2349,-2.2624,-2.2589,-2.2554,-2.2822,-2.2998,-2.3274,-2.4025,-2.3896,-2.3619,-2.3619,-2.2925,-2.231,-2.231,-2.1886,-2.1721,-2.2209,-2.231,-2.231,-2.231,-2.231,-2.231,-2.231,-2.231,-2.231,-2.231,-2.231,-2.231,-2.231,-2.231,-2.231,-2.231,-2.231,-2.231,-2.231,-2.231,-2.231,-2.231,-2.2555,-2.2797,-2.2996,-2.3468,-2.3867,-2.4199,-2.4199,-2.4199,-1.3163,-1.2851,-1.2682,-1.2684,-1.2081,-1.1482,-1.1596,-1.1282,-1.1158,-1.179,-1.1303,0.0,0.0,0.0,-0.998,-0.9795,0.0,-0.9683,-0.9075,-0.9151,-0.9887,-1.1542,-1.1962,-1.2372,-1.2918,-1.2328,-1.2358,-1.3443,-1.314,-1.3677,-1.5439,-1.6129,-1.6973,-1.8134,-1.8523,-1.8934,-1.9413,-1.96,-1.9682,-1.9682,-1.9682,-1.9682,-1.9682,-1.9682,-1.9682,-1.9682,-1.9682,-1.9682,-1.9682,-1.9682,-1.9682,-1.9754,-2.0158,-2.0516,-2.0854,-2.1275,-2.1726,-2.2069,-2.1726,-2.1899,-2.231,-2.231,-2.231,-2.231,-2.231,-2.231,-2.231,-2.231,-2.231,-2.2341,-2.2537,-2.25,-2.2642,-2.3562,-2.3522,-2.3245,-2.315,-2.2493,-2.1945,-2.1945,-2.1424,-2.1134,-2.1524,-2.1982,-2.231,-2.231,-2.1878,-2.1593,-2.1593,-2.1789,-2.1982,-2.2049,-2.204,-2.2115,-2.2282,-2.231,-2.231,-2.231,-2.231,-2.231,-2.231,-2.231,-2.231,-2.231,-2.2555,-2.2864,-2.3189,-2.3544,-2.3867,-2.4199,-2.4199,-2.4199,-1.4358,-1.3775,-1.3031,-1.2769,-1.176,-1.0851,-1.0933,-1.107,-1.1143,-1.0993,-1.1341,-1.1523,-1.1031,-1.0639,0.0,0.0,0.0,0.0,0.0,-0.8514,-0.8948,-0.902,-0.989,-1.0581,-1.0875,-1.011,-1.0494,-1.2665,-1.1446,-1.1843,-1.4677,-1.5476,-1.6114,-1.6749,-1.8003,-1.8717,-1.874,-1.9368,-1.9682,-1.9682,-1.9682,-1.9682,-1.9682,-1.9682,-1.9682,-1.9682,-1.9682,-1.9682,-1.9682,-1.9682,-1.9682,-1.9754,-2.0158,-2.0314,-2.0382,-2.0862,-2.1283,-2.162,-2.162,-2.1899,-2.231,-2.231,-2.231,-2.231,-2.231,-2.231,-2.231,-2.231,-2.231,-2.231,-2.2302,-2.25,-2.2695,-2.2746,-2.3117,-2.3369,-2.2998,-2.1943,-2.1031,-2.1031,-2.1031,-2.0739,-1.9917,-2.1197,-2.231,-2.231,-2.0862,-1.9782,-1.9782,-2.0506,-2.115,-2.1399,-2.1438,-2.1675,-2.2245,-2.231,-2.231,-2.231,-2.231,-2.231,-2.231,-2.231,-2.231,-2.231,-2.2555,-2.2864,-2.3189,-2.3544,-2.3867,-2.4199,-2.4199,-2.4199,-1.2666,-1.2484,-1.2107,-1.1634,-1.0993,-1.0392,-1.0046,-1.0528,-1.0893,-1.0289,-1.1097,-1.169,-1.1035,-1.0431,0.0,0.0,0.0,0.0,0.0,-0.8379,-0.8228,-0.8244,-0.9329,-1.0098,-1.0193,-0.9538,-0.9684,-1.1103,-1.0727,-1.1219,-1.3041,-1.4195,-1.5211,-1.6076,-1.6913,-1.7787,-1.8695,-1.8919,-1.9256,-1.9682,-1.9682,-1.9682,-1.9682,-1.9682,-1.9682,-1.9682,-1.9682,-1.9682,-1.9682,-1.9682,-1.9682,-1.9718,-1.9846,-1.9909,-1.9929,-2.039,-2.0813,-2.1244,-2.1499,-2.1899,-2.231,-2.231,-2.231,-2.231,-2.231,-2.231,-2.231,-2.231,-2.231,-2.231,-2.231,-2.2369,-2.2482,-2.266,-2.2712,-2.2712,-2.2764,-2.2046,-2.1399,-2.1399,-2.0943,-2.0491,-2.0319,-2.0447,-2.0573,-2.0573,-2.0085,-1.9854,-2.025,-2.0556,-2.0845,-2.1126,-2.1126,-2.1323,-2.1794,-2.2106,-2.231,-2.231,-2.231,-2.231,-2.231,-2.231,-2.2379,-2.2555,-2.2881,-2.3198,-2.3522,-2.3867,-2.4094,-2.4199,-2.4199,-2.4199,-1.1811,-1.1664,-1.1426,-1.0996,-1.0575,-1.0119,-0.9622,-1.0158,-1.0549,-0.9829,-1.0675,-1.143,-1.1104,-1.062,-1.0242,0.0,0.0,0.0,0.0,-0.8072,-0.7819,-0.7885,-0.86,-0.9104,-0.9179,-0.8639,-0.8723,-0.9792,-0.9997,-1.0627,-1.1889,-1.3181,-1.4331,-1.5246,-1.5924,-1.6774,-1.7785,-1.8064,-1.8496,-1.9138,-1.9331,-1.9522,-1.9682,-1.9682,-1.9682,-1.9682,-1.9682,-1.9682,-1.9682,-1.9682,-1.9682,-1.9682,-1.9682,-1.9682,-1.9711,-2.0,-2.0457,-2.1063,-2.146,-2.1899,-2.231,-2.231,-2.231,-2.231,-2.231,-2.231,-2.231,-2.231,-2.231,-2.231,-2.231,-2.231,-2.2341,-2.2527,-2.2426,-2.2349,-2.2519,-2.1948,-2.1407,-2.1407,-2.0674,-2.0131,-2.0258,-1.996,-1.9682,-1.9682,-1.9682,-1.9854,-2.0224,-2.0292,-2.0387,-2.0731,-2.0756,-2.0983,-2.1552,-2.2032,-2.231,-2.231,-2.231,-2.231,-2.231,-2.231,-2.2388,-2.2555,-2.2856,-2.3198,-2.3513,-2.3867,-2.4094,-2.4199,-2.4199,-2.4199]}]]